[[{"header":{"parameterUnit":"m.s-1","parameterCategory":1,"la1":30.6,"la2":28.766,"lo1":-90.7593,"lo2":-88.6598,"dy":0.0162,"dx":0.0183,"nx":116,"ny":114,"refTime":"2023-11-14T06:00:00:Z","depth":0,"parameterNumber":2,"parameterNumberName":"U-component_of_WINDS"},"data":[0.0,0.0,0.0,0.0,0.0,0.0,0.0,0.0,0.0,0.0,0.0,0.0,0.0,0.0,0.0,0.0,0.0,0.0,0.0,0.0,0.0,0.0,0.0,0.0,0.0,0.0,0.0,0.0,0.0,0.0,0.0,0.0,0.0,0.0,0.0,0.0,0.0,0.0,0.0,0.0,0.0,0.0,0.0,0.0,0.0,0.0,0.0,0.0,0.0,0.0,0.0,0.0,0.0,0.0,0.0,0.0,0.0,0.0,0.0,0.0,0.0,0.0,0.0,0.0,0.0,0.0,0.0,0.0,0.0,0.0,0.0,0.0,0.0,0.0,0.0,0.0,0.0,0.0,0.0,0.0,0.0,0.0,0.0,0.0,0.0,0.0,0.0,0.0,0.0,0.0,0.0,0.0,0.0,0.0,0.0,0.0,0.0,0.0,0.0,0.0,0.0,0.0,0.0,0.0,0.0,0.0,0.0,0.0,0.0,0.0,0.0,0.0,0.0,0.0,0.0,0.0,0.0,0.0,0.0,0.0,0.0,0.0,0.0,0.0,0.0,0.0,0.0,0.0,0.0,0.0,0.0,0.0,0.0,0.0,0.0,0.0,0.0,0.0,0.0,0.0,0.0,0.0,0.0,0.0,0.0,0.0,0.0,0.0,0.0,0.0,0.0,0.0,0.0,0.0,0.0,0.0,0.0,0.0,0.0,0.0,0.0,0.0,0.0,0.0,0.0,0.0,0.0,0.0,0.0,0.0,0.0,0.0,0.0,0.0,0.0,0.0,0.0,0.0,0.0,0.0,0.0,0.0,0.0,0.0,0.0,0.0,0.0,0.0,0.0,0.0,0.0,0.0,0.0,0.0,0.0,0.0,0.0,0.0,0.0,0.0,0.0,0.0,0.0,0.0,0.0,0.0,0.0,0.0,0.0,0.0,0.0,0.0,0.0,0.0,0.0,0.0,0.0,0.0,0.0,0.0,0.0,0.0,0.0,0.0,0.0,0.0,0.0,0.0,0.0,0.0,0.0,0.0,0.0,0.0,0.0,0.0,0.0,0.0,0.0,0.0,0.0,0.0,0.0,0.0,0.0,0.0,0.0,0.0,0.0,0.0,0.0,0.0,0.0,0.0,0.0,0.0,0.0,0.0,0.0,0.0,0.0,0.0,0.0,0.0,0.0,0.0,0.0,0.0,0.0,0.0,0.0,0.0,0.0,0.0,0.0,0.0,0.0,0.0,0.0,0.0,0.0,0.0,0.0,0.0,0.0,0.0,0.0,0.0,0.0,0.0,0.0,0.0,0.0,0.0,0.0,0.0,0.0,0.0,0.0,0.0,0.0,0.0,0.0,0.0,0.0,0.0,0.0,0.0,0.0,0.0,0.0,0.0,0.0,0.0,0.0,0.0,0.0,0.0,0.0,0.0,0.0,0.0,0.0,0.0,0.0,0.0,0.0,0.0,0.0,0.0,0.0,0.0,0.0,0.0,0.0,0.0,0.0,0.0,0.0,0.0,0.0,0.0,0.0,0.0,0.0,0.0,0.0,0.0,0.0,0.0,0.0,0.0,0.0,0.0,0.0,0.0,0.0,0.0,0.0,0.0,0.0,0.0,0.0,0.0,0.0,0.0,0.0,0.0,0.0,0.0,0.0,0.0,0.0,0.0,0.0,0.0,0.0,0.0,0.0,0.0,0.0,0.0,0.0,0.0,0.0,0.0,0.0,0.0,0.0,0.0,0.0,0.0,0.0,0.0,0.0,0.0,0.0,0.0,0.0,0.0,0.0,0.0,0.0,0.0,0.0,0.0,0.0,0.0,0.0,0.0,0.0,0.0,0.0,0.0,0.0,0.0,0.0,0.0,0.0,0.0,0.0,0.0,0.0,0.0,0.0,0.0,0.0,0.0,0.0,0.0,0.0,0.0,0.0,0.0,0.0,0.0,0.0,0.0,0.0,0.0,0.0,0.0,0.0,0.0,0.0,0.0,0.0,0.0,0.0,0.0,0.0,0.0,0.0,0.0,0.0,0.0,0.0,0.0,0.0,0.0,0.0,0.0,0.0,0.0,0.0,0.0,0.0,0.0,0.0,0.0,0.0,0.0,0.0,0.0,0.0,0.0,0.0,0.0,0.0,0.0,0.0,0.0,0.0,0.0,0.0,0.0,0.0,0.0,0.0,0.0,0.0,0.0,0.0,0.0,0.0,0.0,0.0,0.0,0.0,0.0,0.0,0.0,0.0,0.0,0.0,0.0,0.0,0.0,0.0,0.0,0.0,0.0,0.0,0.0,0.0,0.0,0.0,0.0,0.0,0.0,0.0,0.0,0.0,0.0,0.0,0.0,0.0,0.0,0.0,0.0,0.0,0.0,0.0,0.0,0.0,0.0,0.0,0.0,0.0,0.0,0.0,0.0,0.0,0.0,0.0,0.0,0.0,0.0,0.0,0.0,0.0,0.0,0.0,0.0,0.0,0.0,0.0,0.0,0.0,0.0,0.0,0.0,0.0,0.0,0.0,0.0,0.0,0.0,0.0,0.0,0.0,0.0,0.0,0.0,0.0,0.0,0.0,0.0,0.0,0.0,0.0,0.0,0.0,0.0,0.0,0.0,0.0,0.0,0.0,0.0,0.0,0.0,0.0,0.0,0.0,0.0,0.0,0.0,0.0,0.0,0.0,0.0,0.0,0.0,0.0,0.0,0.0,0.0,0.0,0.0,0.0,0.0,0.0,0.0,0.0,0.0,0.0,0.0,0.0,0.0,0.0,0.0,0.0,0.0,0.0,0.0,0.0,0.0,0.0,0.0,0.0,0.0,0.0,0.0,0.0,0.0,0.0,0.0,0.0,0.0,0.0,0.0,0.0,0.0,0.0,0.0,0.0,0.0,0.0,0.0,0.0,0.0,0.0,0.0,0.0,0.0,0.0,0.0,0.0,0.0,0.0,0.0,0.0,0.0,0.0,0.0,0.0,0.0,0.0,0.0,0.0,0.0,0.0,0.0,0.0,0.0,0.0,0.0,0.0,0.0,0.0,0.0,0.0,0.0,0.0,0.0,0.0,0.0,0.0,0.0,0.0,0.0,0.0,0.0,0.0,0.0,0.0,0.0,0.0,0.0,0.0,0.0,0.0,0.0,0.0,0.0,0.0,0.0,0.0,0.0,0.0,0.0,0.0,0.0,0.0,0.0,0.0,0.0,0.0,0.0,0.0,0.0,0.0,0.0,0.0,0.0,0.0,0.0,0.0,0.0,0.0,0.0,0.0,0.0,0.0,0.0,0.0,0.0,0.0,0.0,0.0,0.0,0.0,0.0,0.0,0.0,0.0,0.0,0.0,0.0,0.0,0.0,0.0,0.0,0.0,0.0,0.0,0.0,0.0,0.0,0.0,0.0,0.0,0.0,0.0,0.0,0.0,0.0,0.0,0.0,0.0,0.0,0.0,0.0,0.0,0.0,0.0,0.0,0.0,0.0,0.0,0.0,0.0,0.0,0.0,0.0,0.0,0.0,0.0,0.0,0.0,0.0,0.0,0.0,0.0,0.0,0.0,0.0,0.0,0.0,0.0,0.0,0.0,0.0,0.0,0.0,0.0,0.0,0.0,0.0,0.0,0.0,0.0,0.0,0.0,0.0,0.0,0.0,0.0,0.0,0.0,0.0,0.0,0.0,0.0,0.0,0.0,0.0,0.0,0.0,0.0,0.0,0.0,0.0,0.0,0.0,0.0,0.0,0.0,0.0,0.0,0.0,0.0,0.0,0.0,0.0,0.0,0.0,0.0,0.0,0.0,0.0,0.0,0.0,0.0,0.0,0.0,0.0,0.0,0.0,0.0,0.0,0.0,0.0,0.0,0.0,0.0,0.0,0.0,0.0,0.0,0.0,0.0,0.0,0.0,0.0,0.0,0.0,0.0,0.0,0.0,0.0,0.0,0.0,0.0,0.0,0.0,0.0,0.0,0.0,0.0,0.0,0.0,0.0,0.0,0.0,0.0,0.0,0.0,0.0,0.0,0.0,0.0,0.0,0.0,0.0,0.0,0.0,0.0,0.0,0.0,0.0,0.0,0.0,0.0,0.0,0.0,0.0,0.0,0.0,0.0,0.0,0.0,0.0,0.0,0.0,0.0,0.0,0.0,0.0,0.0,0.0,0.0,0.0,0.0,0.0,0.0,0.0,0.0,0.0,0.0,0.0,0.0,0.0,0.0,0.0,0.0,0.0,0.0,0.0,0.0,0.0,0.0,0.0,0.0,0.0,0.0,0.0,0.0,0.0,0.0,0.0,0.0,0.0,0.0,0.0,0.0,0.0,0.0,0.0,0.0,0.0,0.0,0.0,0.0,0.0,0.0,0.0,0.0,0.0,0.0,0.0,0.0,0.0,0.0,0.0,0.0,0.0,0.0,0.0,0.0,0.0,0.0,0.0,0.0,0.0,0.0,0.0,0.0,0.0,0.0,0.0,0.0,0.0,0.0,0.0,0.0,0.0,0.0,0.0,0.0,0.0,0.0,0.0,0.0,0.0,0.0,0.0,0.0,0.0,0.0,0.0,0.0,0.0,0.0,0.0,0.0,0.0,0.0,0.0,0.0,0.0,0.0,0.0,0.0,0.0,0.0,0.0,0.0,0.0,0.0,0.0,0.0,0.0,0.0,0.0,0.0,0.0,0.0,0.0,0.0,0.0,0.0,0.0,0.0,0.0,0.0,0.0,0.0,0.0,0.0,0.0,0.0,0.0,0.0,0.0,0.0,0.0,0.0,0.0,0.0,0.0,0.0,0.0,0.0,0.0,0.0,0.0,0.0,0.0,0.0,0.0,0.0,0.0,0.0,0.0,0.0,0.0,0.0,0.0,0.0,0.0,0.0,0.0,0.0,0.0,0.0,0.0,0.0,0.0,0.0,0.0,0.0,0.0,0.0,0.0,0.0,0.0,0.0,0.0,0.0,0.0,0.0,0.0,0.0,0.0,0.0,0.0,0.0,0.0,0.0,0.0,0.0,0.0,0.0,0.0,0.0,0.0,0.0,0.0,0.0,0.0,0.0,0.0,0.0,0.0,0.0,0.0,0.0,0.0,0.0,0.0,0.0,0.0,0.0,0.0,0.0,0.0,0.0,0.0,0.0,0.0,0.0,0.0,0.0,0.0,0.0,0.0,0.0,0.0,0.0,0.0,0.0,0.0,0.0,0.0,0.0,0.0,0.0,0.0,0.0,0.0,0.0,0.0,0.0,0.0,0.0,0.0,0.0,0.0,0.0,0.0,0.0,0.0,0.0,0.0,0.0,0.0,0.0,0.0,0.0,0.0,0.0,0.0,0.0,0.0,0.0,0.0,0.0,0.0,0.0,0.0,0.0,0.0,0.0,0.0,0.0,0.0,0.0,0.0,0.0,0.0,0.0,0.0,0.0,0.0,0.0,0.0,0.0,0.0,0.0,0.0,0.0,0.0,0.0,0.0,0.0,0.0,0.0,0.0,0.0,0.0,0.0,0.0,0.0,0.0,0.0,0.0,0.0,0.0,0.0,0.0,0.0,0.0,0.0,0.0,0.0,0.0,0.0,0.0,0.0,0.0,0.0,0.0,0.0,0.0,0.0,0.0,0.0,0.0,0.0,0.0,0.0,0.0,0.0,0.0,0.0,0.0,0.0,0.0,0.0,0.0,0.0,0.0,0.0,0.0,0.0,0.0,0.0,0.0,0.0,0.0,0.0,0.0,0.0,0.0,0.0,0.0,0.0,0.0,0.0,0.0,0.0,0.0,0.0,0.0,0.0,0.0,0.0,0.0,0.0,0.0,0.0,0.0,0.0,0.0,0.0,0.0,0.0,0.0,0.0,0.0,0.0,0.0,0.0,0.0,0.0,0.0,0.0,0.0,0.0,0.0,0.0,0.0,0.0,0.0,0.0,0.0,0.0,0.0,0.0,0.0,0.0,0.0,0.0,0.0,0.0,0.0,0.0,0.0,0.0,0.0,0.0,0.0,0.0,0.0,0.0,0.0,0.0,0.0,0.0,0.0,0.0,0.0,0.0,0.0,0.0,0.0,0.0,0.0,0.0,0.0,0.0,0.0,0.0,0.0,0.0,0.0,0.0,0.0,0.0,0.0,0.0,0.0,0.0,0.0,0.0,0.0,0.0,0.0,3.3593,3.3051,0.0,0.0,0.0,0.0,0.0,0.0,0.0,0.0,0.0,0.0,0.0,0.0,0.0,0.0,0.0,0.0,0.0,0.0,0.0,0.0,0.0,0.0,0.0,0.0,0.0,0.0,0.0,0.0,0.0,0.0,0.0,0.0,0.0,0.0,0.0,0.0,0.0,2.0508,2.0781,2.1211,2.1835,2.1837,2.1642,2.1211,0.0,0.0,0.0,0.0,0.0,0.0,0.0,0.0,0.0,0.0,0.0,0.0,0.0,0.0,0.0,0.0,0.0,0.0,0.0,0.0,0.0,0.0,0.0,0.0,0.0,0.0,0.0,0.0,0.0,0.0,0.0,0.0,0.0,0.0,0.0,0.0,0.0,0.0,0.0,0.0,0.0,0.0,0.0,0.0,0.0,0.0,0.0,0.0,0.0,0.0,0.0,0.0,0.0,0.0,0.0,0.0,0.0,0.0,0.0,0.0,0.0,0.0,0.0,0.0,0.0,0.0,0.0,0.0,0.0,0.0,3.4422,3.2997,0.0,0.0,0.0,0.0,0.0,0.0,0.0,0.0,0.0,0.0,0.0,0.0,0.0,0.0,0.0,0.0,0.0,0.0,0.0,0.0,0.0,0.0,0.0,1.9315,1.9686,2.0625,2.0644,2.0644,0.0,0.0,0.0,0.0,0.0,0.0,2.0703,2.0703,2.0898,2.1327,2.16,2.2245,2.3203,2.3655,2.3479,2.2754,2.2305,0.0,0.0,0.0,0.0,0.0,0.0,0.0,0.0,0.0,0.0,0.0,0.0,0.0,0.0,0.0,0.0,0.0,0.0,0.0,0.0,0.0,0.0,0.0,0.0,0.0,0.0,0.0,0.0,0.0,0.0,0.0,0.0,0.0,0.0,0.0,0.0,0.0,0.0,0.0,0.0,0.0,0.0,0.0,0.0,0.0,0.0,0.0,0.0,0.0,0.0,0.0,0.0,0.0,0.0,0.0,0.0,0.0,0.0,0.0,0.0,0.0,0.0,0.0,3.6209,3.7361,3.8965,3.9239,3.9357,3.9108,3.5379,3.3471,3.2889,3.256,0.0,0.0,0.0,0.0,0.0,0.0,0.0,0.0,0.0,0.0,0.0,0.0,0.0,0.0,0.0,0.0,0.0,0.0,0.0,1.834,1.9199,1.9315,1.9785,2.1015,2.0801,2.0762,2.1113,0.0,0.0,0.0,0.0,2.0762,2.1113,2.1132,2.1347,2.1797,2.3281,2.4625,2.5879,2.6309,2.6445,2.625,2.3962,2.3162,2.3457,0.0,0.0,0.0,0.0,0.0,0.0,0.0,0.0,0.0,0.0,0.0,0.0,0.0,0.0,0.0,0.0,0.0,0.0,0.0,0.0,0.0,0.0,0.0,0.0,0.0,0.0,0.0,0.0,0.0,0.0,0.0,0.0,0.0,0.0,0.0,0.0,0.0,0.0,0.0,0.0,0.0,3.3009,3.4217,0.0,0.0,0.0,0.0,0.0,0.0,0.0,0.0,0.0,0.0,0.0,0.0,0.0,3.8672,3.7392,3.9787,4.0675,4.003,3.9063,3.9227,4.0228,3.7357,3.7156,3.8946,3.662,0.0,3.5939,3.2881,0.0,0.0,0.0,0.0,0.0,0.0,0.0,0.0,0.0,0.0,0.0,0.0,0.0,0.0,0.0,0.0,0.0,0.0,0.0,0.0,0.0,1.9941,2.0586,2.1151,2.1679,2.1776,2.1229,2.1289,0.0,0.0,2.082,2.1015,2.119,2.1464,2.2051,2.2971,2.4922,2.6147,2.6758,2.7422,2.7734,2.7676,2.6543,2.5581,2.4801,2.375,0.0,0.0,0.0,0.0,0.0,0.0,0.0,0.0,0.0,0.0,0.0,0.0,0.0,0.0,0.0,0.0,0.0,0.0,0.0,0.0,0.0,0.0,0.0,0.0,0.0,0.0,0.0,0.0,0.0,0.0,0.0,0.0,0.0,0.0,0.0,0.0,0.0,0.0,0.0,3.3173,3.4654,3.4307,3.4675,3.4223,0.0,0.0,0.0,0.0,0.0,0.0,0.0,0.0,0.0,3.7668,4.0217,4.0319,3.7769,4.0386,4.0765,3.8866,3.8541,3.9295,4.0929,3.9392,3.9274,4.025,3.9355,3.8385,3.7217,3.4457,3.2887,3.2131,0.0,0.0,0.0,0.0,2.9629,2.9863,0.0,0.0,0.0,0.0,0.0,0.0,0.0,0.0,0.0,0.0,0.0,0.0,1.9394,2.0508,2.1347,2.1679,2.2479,2.2535,2.158,2.166,2.1387,2.0644,2.0996,2.1269,2.1386,2.2246,2.3342,2.4609,2.6445,2.7402,2.7493,2.8262,2.8613,2.8613,2.8613,2.7851,2.644,2.5249,2.4176,2.324,0.0,0.0,0.0,0.0,0.0,0.0,0.0,0.0,0.0,0.0,0.0,0.0,0.0,0.0,0.0,0.0,0.0,0.0,0.0,0.0,0.0,0.0,0.0,0.0,0.0,0.0,0.0,0.0,0.0,0.0,0.0,0.0,0.0,0.0,0.0,0.0,0.0,3.4804,3.5892,3.5036,3.5866,3.5551,0.0,0.0,0.0,0.0,0.0,0.0,3.8205,3.7498,3.765,3.9042,4.2,4.1956,3.8566,4.1317,4.1348,3.868,3.8596,3.934,4.075,4.075,4.0724,4.0621,4.0621,3.9672,3.793,3.5879,3.4414,3.3359,3.2266,3.166,3.1387,3.1387,3.1504,3.1699,0.0,0.0,0.0,0.0,0.0,0.0,0.0,0.0,0.0,0.0,0.0,1.8909,1.9766,2.0664,2.1718,2.299,2.2754,2.2498,2.244,2.1679,2.1055,2.0625,2.0996,2.1405,2.1876,2.389,2.5571,2.683,2.7773,2.8437,2.8801,2.9324,2.954,2.954,2.954,2.9238,2.8606,2.6518,2.5601,2.5367,2.3298,0.0,0.0,0.0,0.0,0.0,0.0,0.0,0.0,0.0,0.0,0.0,0.0,0.0,0.0,0.0,0.0,0.0,0.0,0.0,0.0,0.0,0.0,0.0,0.0,0.0,0.0,0.0,0.0,0.0,0.0,0.0,0.0,0.0,0.0,0.0,0.0,0.0,0.0,3.7618,3.7193,0.0,0.0,0.0,0.0,3.5388,3.4978,3.6009,3.9156,3.8735,3.836,3.8247,4.2678,4.3837,4.1158,4.3823,4.4255,4.233,4.1006,3.9999,3.9308,3.9308,3.9092,3.8756,3.8756,3.8664,3.8435,3.668,3.5684,3.5098,3.3398,3.2715,3.2695,3.2695,3.2492,3.2218,0.0,0.0,0.0,0.0,0.0,0.0,0.0,0.0,1.7991,1.7991,1.883,1.9552,1.9864,2.1425,2.2518,2.2734,2.3359,2.3357,2.2537,2.1973,2.1582,2.1446,2.1269,2.1932,2.3477,2.5098,2.6269,2.6986,2.8144,2.8769,2.8898,2.9383,2.9598,2.9598,2.9598,2.952,2.9258,2.793,2.6582,2.5215,2.416,2.3045,0.0,0.0,0.0,0.0,0.0,0.0,0.0,0.0,0.0,0.0,0.0,0.0,0.0,0.0,0.0,0.0,0.0,0.0,0.0,0.0,0.0,0.0,0.0,0.0,0.0,0.0,0.0,0.0,0.0,0.0,0.0,0.0,0.0,0.0,0.0,0.0,0.0,4.0062,4.1765,0.0,3.923,3.9267,3.9084,3.8123,3.8212,3.9417,4.1895,4.0085,3.9723,4.1447,4.3096,4.2538,3.9602,4.1697,4.183,4.0011,3.9512,3.9101,3.8789,3.8516,3.8457,3.8591,3.7988,3.791,3.8066,3.6914,3.6382,3.6128,3.4922,3.4277,3.3984,3.3711,3.3723,3.373,0.0,0.0,0.0,0.0,0.0,0.0,0.0,1.7991,1.8049,1.8186,1.9181,2.0001,2.0313,2.197,2.3064,2.2949,2.3711,2.3708,2.2557,2.2109,2.1816,2.168,2.1913,2.2947,2.4801,2.6152,2.7057,2.7441,2.8301,2.8711,2.8711,2.8894,2.9031,2.9168,2.9297,2.9355,2.9344,2.8933,2.7682,2.5923,2.5312,2.4394,2.3281,0.0,0.0,0.0,0.0,0.0,0.0,0.0,0.0,0.0,0.0,0.0,0.0,0.0,0.0,0.0,0.0,0.0,0.0,0.0,0.0,0.0,0.0,0.0,0.0,0.0,0.0,0.0,0.0,0.0,0.0,0.0,0.0,0.0,0.0,3.8995,4.0838,4.1758,4.2796,4.2778,4.1071,4.087,4.085,4.0759,3.9866,4.0639,4.3753,4.0774,3.9889,4.1845,4.2375,4.1376,3.8826,4.0633,4.0633,3.8789,3.8945,3.8867,3.8611,3.8418,3.8437,3.8571,3.7812,3.7754,3.8066,3.7105,3.6792,3.6832,3.5937,3.5508,3.5312,3.4883,3.4824,3.4805,0.0,0.0,0.0,0.0,0.0,0.0,1.7991,1.801,1.8166,1.8559,1.9396,2.0274,2.1112,2.234,2.3279,2.373,2.3772,2.3398,2.2559,2.209,2.166,2.1229,2.291,2.4434,2.5674,2.6992,2.7878,2.8262,2.8242,2.8242,2.8223,2.7839,2.7878,2.8301,2.8691,2.8859,2.8898,2.9383,2.8836,2.7643,2.6803,2.5942,2.5082,0.0,0.0,0.0,0.0,0.0,0.0,0.0,0.0,0.0,0.0,0.0,0.0,0.0,0.0,0.0,0.0,0.0,0.0,0.0,0.0,0.0,0.0,0.0,0.0,0.0,0.0,0.0,0.0,0.0,0.0,0.0,0.0,0.0,3.9206,3.8924,3.9529,4.2758,4.0182,3.8734,4.0214,3.8303,3.8766,4.3095,3.973,3.9555,4.4381,4.0817,3.8826,3.9254,4.0545,4.0597,3.918,4.099,4.099,3.9199,3.9648,3.9414,3.863,3.8984,3.8945,3.8591,3.8105,3.8144,3.8493,3.7242,3.6949,3.7187,3.6348,3.6289,3.6636,3.6152,3.5742,3.5254,0.0,0.0,0.0,0.0,0.0,0.0,1.7991,1.8244,1.8596,1.9043,2.0118,2.1054,2.1641,2.2537,2.314,2.3279,2.3047,2.2773,2.2539,2.1544,2.1172,2.168,2.3655,2.52,2.6191,2.6855,2.7246,2.7363,2.707,2.6914,2.6914,2.6822,2.7154,2.7878,2.7976,2.8184,2.8476,2.8594,2.8464,2.8105,2.7871,2.7467,2.6881,0.0,0.0,0.0,0.0,0.0,0.0,0.0,0.0,0.0,0.0,0.0,0.0,0.0,0.0,0.0,0.0,0.0,0.0,0.0,0.0,0.0,0.0,0.0,0.0,0.0,0.0,0.0,0.0,0.0,0.0,0.0,3.5189,3.7907,4.0046,3.9707,4.0977,4.57,4.4629,4.4149,4.5854,4.4177,4.339,4.4291,4.2365,4.1726,4.3097,4.0868,4.0082,4.1193,4.029,3.9456,3.8787,3.9278,3.9278,3.875,3.8923,3.8845,3.8611,3.8359,3.8379,3.8571,3.7793,3.7715,3.8047,3.7402,3.7012,3.6832,3.623,3.6094,3.6152,3.5723,3.5273,3.4805,0.0,0.0,0.0,0.0,0.0,0.0,1.7991,1.8205,1.8635,1.9453,2.0371,2.1191,2.1837,2.248,2.2713,2.2321,2.2264,2.2012,2.1445,2.123,2.1524,2.2383,2.4144,2.5336,2.5845,2.6269,2.6459,2.6459,2.6055,2.5937,2.6113,2.5918,2.6333,2.7154,2.733,2.7734,2.8301,2.8476,2.8652,2.8855,2.8855,2.8601,2.8151,2.7441,2.7213,2.7109,2.6459,2.642,2.6543,2.5884,0.0,0.0,0.0,0.0,0.0,0.0,0.0,0.0,0.0,0.0,0.0,0.0,0.0,0.0,0.0,0.0,0.0,0.0,0.0,0.0,0.0,0.0,0.0,0.0,3.628,3.8608,4.1167,4.1077,4.2672,4.7765,4.5142,4.4032,4.6818,4.4681,4.3446,4.4388,4.2742,4.2146,4.3166,4.1111,4.0271,4.1098,3.9691,3.8865,3.8611,3.8611,3.8611,3.8611,3.8611,3.8611,3.8611,3.832,3.834,3.8571,3.7851,3.7812,3.8144,3.7539,3.7266,3.7148,0.0,0.0,0.0,0.0,3.5488,3.5195,0.0,0.0,0.0,0.0,0.0,0.0,1.7991,1.8069,1.8594,1.9824,2.0429,2.1035,2.1817,2.2266,2.2127,2.121,2.1542,2.1309,2.0118,2.1211,2.2285,2.314,2.4355,2.5063,2.516,2.5464,2.562,2.5538,2.5137,2.5137,2.5484,2.5117,2.5415,2.6275,2.668,2.7324,2.8105,2.8574,2.9004,2.9383,2.9481,2.9297,2.8918,2.8516,2.8398,2.834,2.7519,2.7285,2.7305,2.6836,0.0,0.0,0.0,0.0,0.0,0.0,0.0,0.0,0.0,0.0,0.0,0.0,0.0,0.0,0.0,0.0,0.0,0.0,0.0,0.0,0.0,0.0,0.0,0.0,3.6912,3.8475,4.2403,4.2616,4.3957,4.8297,4.3225,4.0898,4.4862,4.2109,4.1185,4.3882,4.1851,4.1468,4.3659,4.1338,0.0,0.0,0.0,3.8806,3.8767,3.8708,3.8689,3.8689,3.8689,3.865,3.8611,3.8669,3.865,3.8591,3.8223,3.8281,3.863,3.7832,3.7695,3.7913,3.748,3.6836,3.6172,3.6172,3.6172,3.6094,0.0,0.0,0.0,0.0,0.0,0.0,1.7991,1.8594,1.9393,2.0332,2.1153,2.172,2.1896,2.2266,2.2012,2.082,2.1113,2.123,2.0976,2.1543,2.2443,2.3613,2.4238,2.4859,2.5562,2.5332,2.5019,2.4645,2.4238,2.4082,2.416,2.4082,2.4515,2.5375,2.5757,2.6269,2.6816,2.7604,2.7976,2.8112,2.8769,2.9199,2.9394,2.8965,2.9023,2.9285,2.873,2.8976,2.9453,2.8691,2.8437,2.8223,2.7012,2.6497,0.0,0.0,0.0,0.0,0.0,0.0,0.0,0.0,0.0,0.0,0.0,0.0,0.0,0.0,0.0,0.0,0.0,0.0,0.0,3.5845,3.7519,3.9697,4.333,4.2809,4.2522,4.3808,4.1755,4.1341,4.4081,4.2279,4.1824,4.3924,4.1851,4.0857,4.1733,4.0894,4.0372,4.0372,4.0234,3.998,3.9648,3.9258,3.9082,3.9082,3.9082,0.0,3.863,3.8926,3.8887,3.863,3.8848,3.9004,3.9062,3.8906,3.8691,3.8415,3.7598,3.7207,3.7051,3.7051,3.7051,3.6934,0.0,0.0,0.0,0.0,0.0,0.0,1.7991,1.8379,1.9023,2.0098,2.0625,2.0977,2.1211,2.1426,2.1016,1.9707,2.0,2.0508,2.1151,2.1815,2.2676,2.375,2.3984,2.4316,2.4723,2.4336,2.3981,2.3747,2.3552,2.3435,2.3435,2.3435,2.3809,2.4476,2.4883,2.5312,2.5806,2.6685,2.7057,2.7115,2.7715,2.8223,2.8699,2.9109,2.9512,2.9891,2.9629,2.998,3.0449,2.9785,2.9551,2.9375,2.8301,2.7676,2.7051,0.0,0.0,0.0,0.0,0.0,0.0,0.0,0.0,0.0,0.0,0.0,0.0,0.0,0.0,3.1158,3.0519,0.0,3.444,3.7076,3.7794,3.9206,4.2559,4.185,4.1698,4.3759,4.1909,4.133,4.3515,4.2171,4.1618,4.256,4.1516,4.0937,4.1211,4.0762,4.0489,4.0489,4.0312,4.0098,3.9902,3.9668,3.9551,3.9551,3.9551,3.9434,3.9238,3.9453,3.9434,3.9238,3.9453,3.9551,3.9551,3.9551,3.9297,3.8867,3.8672,3.8184,3.7598,3.7383,3.7305,3.7207,0.0,0.0,0.0,0.0,0.0,0.0,1.7991,1.8127,1.8633,1.9648,1.9941,2.0117,2.0312,2.0429,1.9999,1.8849,1.9142,1.9922,2.1112,2.201,2.2891,2.375,2.3711,2.3711,2.3789,2.3337,2.3101,2.3101,2.3101,2.3101,2.3101,2.3101,2.3298,2.3691,2.4102,2.4531,2.5024,2.5879,2.6309,2.6451,2.6836,2.7285,2.78,2.8836,2.954,2.9941,2.9941,3.0195,3.0469,3.0176,3.0078,2.9961,2.9258,2.8867,2.8301,2.6498,2.6401,0.0,0.0,0.0,0.0,0.0,0.0,0.0,0.0,2.93,2.9351,3.0187,3.1751,3.2791,3.2117,3.4094,3.6518,3.8814,3.8197,3.8549,4.1814,4.0898,4.1065,4.4184,4.2242,4.1237,4.2748,4.188,4.1211,4.1211,4.1132,4.1074,4.1211,4.0762,4.0528,4.0644,4.0312,4.0137,4.0137,4.0059,4.0019,4.0019,4.0019,3.998,3.9902,3.998,3.998,3.9902,3.998,4.0019,4.0019,4.0117,3.9824,3.9375,3.9844,3.9316,3.8262,3.7832,3.7617,3.748,0.0,0.0,0.0,0.0,0.0,0.0,0.0,0.0,1.9217,1.9354,2.0038,2.0234,1.953,1.9766,1.9785,1.9258,1.9609,2.0215,2.1132,2.201,2.2891,2.375,2.3396,2.3376,2.3789,2.3337,2.3101,2.3101,2.3101,2.3101,2.3101,2.3101,2.312,2.3198,2.3672,2.4102,2.4551,2.5406,2.601,2.6451,2.6836,2.7285,2.7702,2.7858,2.8359,2.9035,2.9035,2.9074,2.9199,2.9559,2.9676,2.9657,2.9559,2.9755,2.957,2.7454,2.668,2.6055,2.4219,2.3977,2.5056,2.8363,2.7627,2.6972,0.0,3.0356,3.0,3.1604,3.3601,3.4828,3.3974,3.5895,3.825,4.0164,3.8975,3.9085,4.2636,4.1281,4.0327,4.1535,4.1326,4.121,4.1384,4.1288,4.1211,4.1211,4.082,4.0762,4.1191,4.0762,4.0703,4.1094,4.1093,4.1074,4.1074,4.0644,4.0411,4.0411,4.0411,4.0254,3.9902,4.0273,4.0254,3.9922,4.0293,4.0411,4.0488,4.0859,4.0547,3.9863,4.0293,4.0137,3.9609,3.916,3.875,3.8415,0.0,0.0,0.0,0.0,0.0,0.0,0.0,0.0,1.8888,1.8888,1.9434,1.9608,1.8947,1.883,1.873,1.8555,1.9609,2.0468,2.082,2.2363,2.3418,2.3769,2.3613,2.3711,2.4141,2.373,2.361,2.3864,2.3864,2.3864,2.3864,2.3864,2.3864,2.3864,2.404,2.4394,2.4867,2.5445,2.5971,2.6451,2.6836,2.7129,2.7285,2.7285,2.7363,2.7519,2.8008,2.834,0.0,2.8184,2.8269,2.8484,2.8484,2.8601,2.8484,2.7051,2.6875,2.7057,2.6543,2.6255,2.6516,2.8255,2.8536,2.8723,3.0371,3.0723,3.1113,3.2598,3.4016,3.502,3.5171,3.6487,3.7898,3.8884,3.8826,3.9298,4.1088,4.0726,4.0391,4.0762,4.1016,4.1211,4.1211,4.1211,4.1211,4.1211,4.0996,4.0976,4.1211,4.0996,4.0976,4.1211,4.1211,4.1211,4.1211,4.0996,4.0898,4.0898,4.0898,4.0801,4.0644,4.082,4.0801,4.0644,4.082,4.0898,4.0918,4.1132,4.0801,4.0293,4.0742,4.0488,3.9883,3.9668,3.9492,3.9238,0.0,0.0,0.0,0.0,0.0,0.0,0.0,0.0,0.0,0.0,1.883,1.8945,1.8481,1.8166,1.7991,1.7991,1.9491,2.0449,2.0605,2.2384,2.3535,2.3769,2.3789,2.3984,2.4391,2.4121,2.4121,2.4391,2.4391,2.4391,2.4391,2.4531,2.459,2.4609,2.4703,2.5019,2.5473,2.5781,2.623,2.6758,2.6934,2.709,2.7168,2.6934,2.666,2.6465,2.7115,2.737,2.7324,2.6836,2.6875,2.7174,2.7311,2.7428,2.737,2.6627,2.6685,2.7096,2.7617,2.7565,2.7545,2.8445,2.9434,3.0293,3.0664,3.1328,3.2226,3.3516,3.4626,3.5574,3.6118,3.7193,3.8045,3.8236,3.8789,3.9453,4.0156,4.0312,4.043,4.0684,4.0879,4.1035,4.1211,4.1211,4.1211,4.1211,4.1289,4.1387,4.1387,4.1465,4.1465,4.1348,4.1387,4.1289,4.1211,4.1211,4.1211,4.1211,4.1211,4.1211,4.1211,4.1211,4.1211,4.1211,4.1211,4.1211,4.1211,4.1211,4.0996,4.0742,4.1093,4.0801,4.0254,4.0254,4.0098,3.9805,0.0,0.0,0.0,0.0,0.0,0.0,0.0,0.0,0.0,0.0,0.0,1.8479,1.8049,1.8008,1.7991,1.7991,1.918,2.0117,2.0566,2.1816,2.293,2.375,2.3789,2.3984,2.4391,2.4391,2.4391,2.4391,2.4391,2.4391,2.441,2.4867,2.5082,2.5082,2.5484,2.5913,2.6348,2.6367,2.6881,2.7624,2.7187,2.7266,2.7585,2.6744,2.6406,2.6387,2.6426,2.5903,2.5258,2.562,2.5757,2.5854,2.6289,2.6699,2.6953,2.6523,2.5825,2.5356,2.6211,2.647,2.6959,2.9031,2.9891,3.0527,3.1846,3.2441,3.3125,3.4394,3.6026,3.7115,3.673,3.8409,3.968,3.9239,3.918,3.9648,4.0996,4.043,4.0215,4.1093,4.0801,4.0703,4.1172,4.1211,4.1211,4.1211,4.1543,4.1777,4.1777,4.2168,4.2167,4.1797,4.1777,4.1582,4.1211,4.1211,4.1211,4.1211,4.1211,4.1211,4.1211,4.1211,4.1211,4.1211,4.1211,4.1211,4.1211,4.1211,4.1211,4.1191,4.1211,4.1191,4.1172,4.1172,4.0605,3.9883,0.0,0.0,0.0,0.0,0.0,0.0,0.0,0.0,0.0,0.0,0.0,0.0,0.0,0.0,0.0,0.0,1.8926,1.9668,2.0098,2.1621,2.2773,2.3381,2.3906,2.4528,2.5249,2.5269,2.5542,2.6128,2.6128,2.6128,2.6128,2.6289,2.6367,2.6367,2.6498,2.6973,2.7656,2.7656,2.7988,2.8476,2.8313,2.7851,2.7168,2.6602,2.584,2.5039,0.0,2.4648,2.457,2.4137,2.4176,2.4473,2.4629,2.4766,2.4902,2.5039,2.5684,2.6484,2.7096,2.7878,2.8836,3.0146,3.1006,3.1729,3.2422,3.3156,3.3801,3.4199,3.4504,3.5047,3.6115,3.636,3.7387,4.0337,3.9912,4.0016,4.2368,4.1584,4.0742,4.0742,4.0859,4.0898,4.0762,4.0996,4.1211,4.1211,4.1562,4.1797,4.1797,4.2207,4.2323,4.2187,4.1953,4.1738,4.1582,4.1348,4.1308,4.1601,4.1875,4.1719,4.123,4.1465,4.1426,4.1211,4.1211,4.1211,4.1211,4.1211,4.1211,4.1211,4.1211,4.1211,4.1211,4.1211,4.0996,4.0703,0.0,0.0,0.0,0.0,0.0,0.0,0.0,0.0,0.0,0.0,0.0,0.0,0.0,0.0,0.0,0.0,0.0,1.9297,1.9864,2.1113,2.2148,2.2912,2.3594,2.4297,2.4996,2.5015,2.5367,2.6069,2.6069,2.6172,2.6328,2.6797,2.6986,2.7006,2.7344,2.7773,2.8301,2.8301,2.8359,2.8457,2.8301,2.7532,2.6459,2.5918,2.5059,0.0,2.3711,2.373,2.3845,2.3276,2.3298,2.3555,2.3555,2.3769,2.4121,2.4684,2.5874,2.7187,2.791,2.8973,3.0028,3.0898,3.1758,3.2492,3.2734,3.334,3.3988,3.4509,3.4244,3.4408,3.6107,3.5632,3.6193,3.9838,3.9096,3.9109,4.2121,4.1223,4.0371,4.0723,4.0996,4.1133,4.0996,4.123,4.1328,4.123,4.1836,4.2187,4.2031,4.2558,4.2812,4.2656,4.2402,4.2187,4.2031,4.1758,4.1758,4.2031,4.2148,4.1914,4.1406,4.1523,4.1426,4.1211,4.1211,4.1211,4.1211,4.1211,4.1211,4.1211,4.1211,4.1211,4.1211,4.1211,4.1211,4.1172,0.0,0.0,0.0,0.0,0.0,0.0,0.0,0.0,0.0,0.0,0.0,0.0,0.0,0.0,0.0,0.0,0.0,0.0,1.9844,2.0351,2.1153,2.2401,2.2951,2.3381,2.3809,2.3848,2.4062,2.4469,2.4469,2.4687,2.516,2.6367,2.6928,2.6967,2.7793,2.8184,2.8203,2.8203,2.7995,2.7585,2.7148,2.644,2.5581,2.4723,2.416,2.373,2.3279,2.3101,2.3101,2.3101,2.312,2.3159,2.3179,2.3806,2.4664,2.5523,2.6401,2.7357,2.8586,2.959,3.0469,3.1328,3.2187,3.2793,3.2832,3.3125,3.3768,3.5232,3.5062,3.5137,3.667,3.6132,3.6158,3.8279,3.7236,3.7312,4.0661,3.9783,3.9393,4.1054,4.1289,4.1465,4.1816,4.1894,4.1719,4.1348,4.2423,4.2891,4.244,4.3281,4.3555,4.3125,4.3127,4.2871,4.2421,4.2421,4.2401,4.2382,4.2051,4.1836,4.1797,4.1387,4.123,4.1211,4.1211,4.1211,4.1211,4.1211,4.1211,4.1211,4.1211,4.1211,4.1211,4.1211,4.1211,4.1211,0.0,0.0,0.0,0.0,0.0,0.0,0.0,0.0,0.0,0.0,0.0,0.0,0.0,0.0,0.0,0.0,0.0,0.0,1.9864,2.0351,2.1035,2.1992,2.2754,2.3474,2.4238,2.4593,2.4984,2.5367,2.5367,2.5425,2.5542,2.5874,2.603,2.605,2.6264,2.6562,2.6875,2.6875,2.6842,2.6724,2.6602,2.6016,2.52,2.4629,2.416,2.373,2.3279,2.3101,2.3101,2.3101,2.3532,2.4118,2.4473,2.5176,2.5996,2.6523,2.7493,2.8547,2.9238,3.0273,3.1309,3.1885,3.2402,3.2871,3.3184,3.3105,3.3254,3.4334,3.3663,3.3514,3.5577,3.543,3.6743,4.2112,4.0415,4.0032,4.4765,4.2854,4.1152,4.1582,4.2207,4.2677,4.2734,4.3027,4.3047,4.2657,4.2931,4.3027,4.291,4.375,4.4004,4.3555,4.3242,4.3027,4.291,4.291,4.2754,4.2382,4.2656,4.2422,4.1797,4.1699,4.1465,4.1211,4.1211,4.1211,4.1211,4.1211,4.1211,4.1211,4.1211,4.1211,4.1211,4.1211,4.1211,4.1211,0.0,0.0,0.0,0.0,0.0,0.0,0.0,0.0,0.0,0.0,0.0,0.0,0.0,0.0,0.0,0.0,0.0,0.0,0.0,2.0137,2.0684,2.1542,2.2206,2.2791,2.3301,2.373,2.3984,2.402,2.4215,2.4391,2.4563,2.4957,2.523,2.5449,2.562,2.5854,2.6069,2.6069,2.5879,0.0,0.0,2.5,2.4199,2.3923,2.3688,2.3454,2.3179,2.3335,2.3767,2.4352,2.4742,2.5074,2.5723,2.6412,2.7096,2.765,2.8496,2.9336,3.0009,3.0957,3.1914,3.2344,3.2754,3.3183,3.3644,3.3577,3.3766,3.4939,3.4406,3.4241,3.5998,3.6321,3.7546,4.1276,4.0255,4.0309,4.4017,4.2634,4.1523,4.2266,4.3125,4.3652,4.3652,4.3867,4.3984,4.3945,4.3769,4.3574,4.3359,4.4199,4.4551,4.4297,4.4062,4.3926,4.3926,4.375,4.3633,4.3533,4.3242,4.293,4.2617,4.2246,4.1953,4.1719,4.1523,4.1445,4.1426,4.1289,4.1211,4.1211,4.1211,4.1211,4.1211,4.1211,4.1211,4.1211,0.0,0.0,0.0,0.0,0.0,0.0,0.0,0.0,0.0,0.0,0.0,0.0,0.0,0.0,0.0,0.0,0.0,0.0,0.0,0.0,2.0371,2.1249,2.168,2.1914,2.1993,2.2324,2.2305,2.1915,2.2246,2.2615,2.3045,2.3728,2.4336,2.4848,2.5132,2.5284,2.5343,2.5343,2.4918,2.4235,2.4235,2.3786,2.3101,0.0,2.3101,2.3101,2.3159,2.3708,2.4606,2.5996,2.6269,2.6128,2.6967,2.7559,2.8112,2.8926,2.9453,2.997,3.0849,3.167,3.2385,3.2973,3.3222,3.3511,3.4345,3.4261,3.4474,3.6038,3.5911,3.5848,3.6895,3.772,3.8362,3.8775,3.8918,3.9655,4.1555,4.1198,4.1367,4.2969,4.3887,4.4453,4.4551,4.4512,4.4648,4.5078,4.4766,4.4355,4.3906,4.4668,4.5035,4.4977,4.5078,4.5035,4.4977,4.4668,4.4668,4.4977,4.3828,4.3437,4.3769,4.2969,4.2518,4.246,4.2129,4.1933,4.1855,4.1484,4.1348,4.1269,4.1348,4.1308,4.1211,4.1269,4.1269,4.1211,0.0,0.0,0.0,0.0,0.0,0.0,0.0,0.0,0.0,0.0,0.0,0.0,0.0,0.0,0.0,0.0,0.0,0.0,0.0,0.0,0.0,2.1738,2.1876,2.2051,2.2402,2.2459,2.2305,2.1915,2.1953,2.2207,2.2596,2.2422,2.2734,2.3435,2.3162,2.324,2.3549,2.3549,2.3452,2.3337,2.3337,2.3218,2.3101,2.3101,0.0,0.0,2.3555,2.4004,2.4645,2.6323,2.709,2.7506,2.832,2.8887,2.9442,3.0293,3.0605,3.0859,3.1749,3.2335,3.3015,3.444,3.384,3.3474,3.5685,3.4604,3.3613,3.5408,3.5394,3.5397,3.6345,3.7271,3.8609,4.0787,4.0409,4.0888,4.3719,4.2934,4.2461,4.3476,4.4062,4.4668,4.5391,4.5137,4.5098,4.5527,4.5488,4.5254,4.4824,4.5293,4.5391,4.4996,4.5371,4.5391,4.4996,4.4961,4.4961,4.4977,4.4433,4.4199,4.4258,4.373,4.3301,4.2949,4.2891,4.2656,4.2265,4.2246,4.2012,4.1719,4.207,4.1777,4.125,4.1562,4.1465,4.1211,0.0,0.0,0.0,0.0,0.0,0.0,0.0,0.0,0.0,0.0,0.0,0.0,0.0,0.0,0.0,0.0,0.0,0.0,0.0,0.0,0.0,2.1543,2.1758,2.1875,2.1835,2.207,2.1973,2.1543,0.0,2.2109,2.25,2.2305,2.2518,2.3081,2.2908,2.2927,2.3101,2.3101,2.3101,2.3101,2.3101,2.3101,2.3101,2.3101,0.0,0.0,2.3965,2.4528,2.5365,2.7292,2.7964,2.821,2.9258,2.9902,3.0419,3.1035,3.1387,3.1729,3.2324,3.3421,3.437,3.4277,3.4716,3.527,3.5641,3.5229,3.5005,3.586,3.5868,3.5866,3.6337,3.7714,3.9047,3.9862,4.0061,4.0767,4.2705,4.2475,4.2598,4.3906,4.4844,4.5547,4.5957,4.582,4.5781,4.5996,4.5996,4.582,4.5391,4.5976,4.6133,4.5703,4.6113,4.6133,4.5683,4.5683,4.5683,4.5683,4.5273,4.5058,4.5039,4.459,4.4277,4.4062,4.3613,4.3418,4.3398,4.2674,4.2441,4.2461,4.2441,4.2148,4.1816,4.1816,4.168,4.1465,0.0,0.0,0.0,0.0,0.0,0.0,0.0,0.0,0.0,0.0,0.0,0.0,0.0,0.0,0.0,0.0,0.0,0.0,0.0,0.0,0.0,0.0,0.0,0.0,2.121,0.0,0.0,2.119,2.168,0.0,0.0,0.0,0.0,0.0,2.3003,2.3003,2.3101,2.3101,2.3101,0.0,0.0,2.3201,2.3101,0.0,0.0,0.0,0.0,2.5,2.5893,2.8066,2.8635,2.8655,3.0121,3.065,3.0985,3.2124,3.2664,3.3053,3.3911,3.5386,3.6449,3.5376,3.629,3.719,3.6154,3.6157,3.6376,3.6396,3.6405,3.6455,3.6532,3.7989,3.9026,3.8646,3.9412,4.0523,4.1862,4.2046,4.2764,4.4806,4.553,4.5996,4.6269,4.6308,4.6308,4.6308,4.6308,4.6152,4.584,4.6523,4.6738,4.6308,4.6719,4.6777,4.6445,4.6348,4.6387,4.6562,4.6152,4.5937,4.5937,4.5586,4.5289,4.5117,4.4433,4.4277,4.4453,4.3418,4.3066,4.3183,4.2949,4.2635,4.2362,4.2168,4.2012,4.1894,0.0,0.0,0.0,0.0,0.0,0.0,0.0,0.0,0.0,0.0,0.0,0.0,0.0,0.0,0.0,0.0,0.0,0.0,0.0,0.0,0.0,0.0,0.0,0.0,0.0,0.0,0.0,2.119,2.168,0.0,0.0,0.0,0.0,0.0,0.0,2.2752,2.3101,2.3101,0.0,0.0,0.0,0.0,0.0,0.0,0.0,0.0,0.0,2.5082,2.5527,2.7988,2.8786,2.9111,3.1182,3.1102,3.0934,3.4473,3.5315,3.5613,3.7805,3.8951,3.9709,4.0482,3.9118,3.7874,3.9002,3.7492,3.5972,3.6321,3.6405,3.6532,3.7034,3.7311,3.7789,3.8929,3.9616,4.0954,4.3744,4.3355,4.3869,4.6717,4.5562,4.5019,4.6191,4.6308,4.6308,4.6308,4.6308,4.6289,4.625,4.668,4.6738,4.6308,4.6719,4.687,4.6831,4.6484,4.6699,4.7461,4.7012,4.6772,4.6772,4.6733,4.6348,4.5605,4.5527,4.5293,4.4961,4.4801,4.4336,4.3691,4.4062,4.3476,4.2461,4.2832,4.2715,4.2323,0.0,0.0,0.0,0.0,0.0,0.0,0.0,0.0,0.0,0.0,0.0,0.0,0.0,0.0,0.0,0.0,0.0,0.0,0.0,0.0,0.0,0.0,0.0,0.0,0.0,0.0,0.0,0.0,0.0,0.0,0.0,0.0,0.0,0.0,0.0,2.2945,2.3101,2.3101,0.0,0.0,0.0,0.0,0.0,0.0,0.0,0.0,0.0,0.0,2.6966,2.9428,2.9922,2.9969,3.2371,3.2341,3.1699,3.3185,3.5273,3.7098,3.7167,3.9902,4.2382,4.0853,4.0428,4.0081,3.8967,3.7651,3.6604,3.6437,3.6405,3.6557,3.711,3.721,3.7592,3.8832,3.8677,3.9182,4.1474,4.1651,4.2366,4.4657,4.5024,4.5402,4.62,4.6308,4.6308,4.6308,4.6543,4.6562,4.6308,4.6699,4.6738,4.6308,4.6719,4.6889,4.6889,4.6714,4.6992,4.7578,4.7129,4.6889,4.687,4.666,4.6367,4.6035,4.5824,4.5723,4.5762,4.5234,4.498,4.4883,4.4805,4.4411,4.3943,4.3906,4.3769,4.3574,0.0,0.0,0.0,0.0,0.0,0.0,0.0,0.0,0.0,0.0,0.0,0.0,0.0,0.0,0.0,0.0,0.0,0.0,0.0,0.0,0.0,0.0,0.0,0.0,0.0,0.0,0.0,0.0,0.0,0.0,0.0,0.0,0.0,0.0,0.0,0.0,0.0,0.0,0.0,0.0,0.0,0.0,0.0,0.0,0.0,0.0,0.0,0.0,0.0,0.0,0.0,3.0767,3.3155,3.347,3.3019,3.3487,3.5904,3.8401,3.8134,4.138,4.4323,4.2113,4.1992,4.1786,3.9364,3.8081,3.7261,3.6532,3.6531,3.6808,3.7361,3.7437,3.7813,3.8944,3.8641,3.8939,4.0942,4.1307,4.2082,4.4047,4.4428,4.4961,4.5967,4.6296,4.6484,4.6484,4.6714,4.6694,4.6328,4.6582,4.6601,4.6308,4.6582,4.6753,4.6889,4.6889,4.7148,4.7623,4.7266,4.7006,4.687,4.6621,4.6426,4.6289,4.5996,4.6035,4.625,4.5644,4.5508,4.5688,4.5332,4.5137,4.4957,4.4687,4.459,4.4531,0.0,0.0,0.0,0.0,0.0,0.0,0.0,0.0,0.0,0.0,0.0,0.0,0.0,0.0,0.0,0.0,0.0,0.0,0.0,0.0,0.0,0.0,0.0,0.0,0.0,0.0,0.0,0.0,0.0,0.0,0.0,0.0,0.0,0.0,0.0,0.0,0.0,0.0,0.0,0.0,0.0,0.0,2.6823,0.0,0.0,0.0,0.0,0.0,0.0,0.0,0.0,0.0,0.0,3.4251,3.4984,3.6661,3.8069,3.9646,4.2243,4.4188,4.5468,4.5443,4.4217,4.2534,4.0876,3.9194,3.7688,3.6607,3.6808,3.7361,3.7889,3.799,3.8366,3.9496,4.0123,4.1252,4.346,4.3421,4.3944,4.602,4.3954,4.3172,4.5316,4.6331,4.687,4.687,4.6889,4.6694,4.6328,4.6308,4.6308,4.6308,4.6308,4.6504,4.6889,4.6889,4.7148,4.7578,4.7623,4.7344,4.6889,4.6889,4.6699,4.6308,4.6289,4.6289,4.6308,4.6289,4.6055,4.5727,4.5664,4.541,4.4977,4.5019,4.4977,4.4977,0.0,0.0,0.0,0.0,0.0,0.0,0.0,0.0,0.0,0.0,0.0,0.0,0.0,0.0,0.0,0.0,0.0,0.0,0.0,0.0,0.0,0.0,0.0,0.0,0.0,0.0,0.0,0.0,0.0,0.0,0.0,0.0,0.0,0.0,0.0,0.0,0.0,0.0,0.0,0.0,0.0,2.5908,2.7701,0.0,0.0,0.0,0.0,0.0,0.0,0.0,0.0,0.0,0.0,0.0,0.0,3.5882,3.7942,3.9929,3.9396,4.1984,4.4618,4.3517,4.2261,4.1153,4.06,3.8919,3.7462,3.7487,3.7638,3.7914,3.8517,3.8617,3.9094,4.0549,4.0926,4.1428,4.2562,4.2737,4.3171,4.4445,4.4836,4.5408,4.6359,4.6752,4.7006,4.7344,4.7383,4.7187,4.6714,4.6738,4.6601,4.6308,4.6308,4.6504,4.6889,4.6641,4.6855,4.7578,4.6992,4.6777,4.687,4.6641,4.6426,4.6308,4.6308,4.6308,4.6308,4.6308,4.623,4.6113,4.6113,4.6016,4.5898,4.5898,4.5898,4.5898,0.0,0.0,0.0,0.0,0.0,0.0,0.0,0.0,0.0,0.0,0.0,0.0,0.0,0.0,0.0,0.0,0.0,0.0,0.0,0.0,0.0,0.0,0.0,0.0,0.0,0.0,0.0,0.0,0.0,0.0,0.0,0.0,0.0,0.0,0.0,0.0,0.0,0.0,0.0,0.0,2.6496,2.7323,2.904,0.0,0.0,0.0,0.0,0.0,0.0,0.0,0.0,0.0,0.0,0.0,0.0,0.0,3.7287,3.9091,3.824,4.0508,4.2858,4.2057,4.1178,4.045,4.0249,3.8969,3.7889,3.799,3.8191,3.8442,3.8818,3.907,3.9521,4.0524,4.1051,4.1384,4.1664,4.2311,4.2922,4.3385,4.5121,4.6214,4.6196,4.6933,4.7461,4.7578,4.7578,4.7383,4.6909,4.6777,4.6562,4.6308,4.6308,4.6426,4.6699,4.6601,4.6719,4.709,4.6719,4.6601,4.668,4.6426,4.6308,4.6308,4.6308,4.6308,0.0,4.6308,4.6308,4.6308,4.6308,4.6308,4.6308,4.6308,4.6308,4.6308,0.0,0.0,0.0,0.0,0.0,0.0,0.0,0.0,0.0,0.0,0.0,0.0,0.0,0.0,0.0,0.0,0.0,0.0,0.0,0.0,0.0,0.0,0.0,0.0,0.0,0.0,0.0,0.0,3.0093,3.0596,3.0574,0.0,0.0,0.0,0.0,0.0,0.0,0.0,0.0,0.0,2.7478,2.8773,0.0,0.0,0.0,0.0,0.0,0.0,0.0,0.0,0.0,0.0,0.0,0.0,0.0,0.0,0.0,0.0,0.0,3.9496,4.0424,4.0951,4.065,4.0174,3.9798,3.9245,0.0,3.8216,3.8592,3.8969,3.8994,3.9396,3.9747,3.9898,4.075,4.1376,4.1252,4.2488,4.3282,4.2939,4.4807,4.5859,4.5167,4.6973,4.8008,4.7656,4.7598,4.7383,4.6909,4.6523,4.6308,4.6308,4.6308,4.6308,4.6308,4.6699,4.6699,4.6308,4.6699,4.668,4.6308,4.6308,4.6308,4.6308,4.6308,4.6308,4.6308,4.6308,4.6308,4.6308,4.6308,4.6308,4.6308,4.6308,4.6308,4.6308,0.0,0.0,0.0,0.0,0.0,0.0,0.0,0.0,0.0,0.0,0.0,0.0,0.0,0.0,0.0,0.0,0.0,0.0,0.0,0.0,0.0,0.0,0.0,0.0,0.0,0.0,0.0,3.0794,3.1911,3.2457,3.2457,3.2321,0.0,0.0,0.0,0.0,0.0,0.0,0.0,0.0,2.9386,3.0272,0.0,0.0,0.0,0.0,3.309,3.3442,0.0,0.0,0.0,0.0,0.0,0.0,0.0,0.0,3.6381,3.6656,3.6909,0.0,3.8617,3.8718,3.8366,3.8266,0.0,3.8919,3.8417,3.9145,3.9396,3.9622,4.0049,3.9898,4.0249,4.1959,4.2462,4.3022,4.4234,4.5102,4.4923,4.3259,4.4941,4.6193,4.602,4.7051,4.7812,4.8047,4.7754,4.7383,4.6909,4.6523,4.6308,4.6308,4.6308,4.6308,4.6308,4.6406,4.6406,4.6308,4.6406,4.6406,4.6308,4.6308,4.6308,4.6308,4.6308,4.6308,4.6308,4.6308,4.6308,4.6308,4.6308,4.6308,4.6308,4.6308,4.6308,4.6308,0.0,0.0,0.0,0.0,0.0,0.0,0.0,0.0,0.0,0.0,0.0,0.0,0.0,0.0,0.0,0.0,0.0,0.0,0.0,0.0,0.0,0.0,0.0,0.0,0.0,0.0,0.0,0.0,0.0,3.309,0.0,0.0,0.0,0.0,0.0,0.0,0.0,0.0,0.0,3.13,3.1016,0.0,0.0,0.0,0.0,0.0,3.3391,3.3796,0.0,3.4904,3.5431,3.5981,0.0,0.0,0.0,0.0,3.6405,3.6405,3.6405,3.7009,3.7638,3.7638,3.7813,3.8215,3.9145,3.9044,3.8944,3.9572,3.9697,3.9798,4.0074,3.9669,3.9947,4.1895,4.2641,4.3844,4.6336,4.6773,4.6566,4.5738,4.6798,4.7594,4.7472,4.7715,4.7969,4.8183,4.7637,4.7187,4.6889,4.6523,4.6308,4.6308,4.6308,4.6308,4.6308,4.6308,4.6308,4.6308,4.6308,4.6308,4.6308,4.6308,4.6308,4.6308,4.6308,4.6308,4.6308,4.6308,4.6308,4.6308,4.6308,4.6308,4.6308,4.6308,4.6308,4.6308,0.0,0.0,0.0,0.0,0.0,0.0,0.0,0.0,0.0,0.0,0.0,0.0,0.0,0.0,0.0,0.0,0.0,0.0,0.0,0.0,0.0,0.0,0.0,0.0,0.0,0.0,0.0,0.0,0.0,0.0,0.0,0.0,0.0,0.0,0.0,0.0,0.0,0.0,0.0,3.2194,3.2194,0.0,0.0,0.0,0.0,0.0,0.0,0.0,0.0,3.5307,3.5906,3.6405,3.6405,0.0,0.0,0.0,0.0,0.0,3.6505,3.7034,3.7562,3.7386,3.8065,3.8818,3.8994,3.9321,3.9597,3.9672,3.9772,3.9873,4.0049,3.9653,3.9892,4.1661,4.2793,4.4498,4.756,4.7671,4.7597,4.8004,4.8578,4.8871,4.8601,4.834,4.8183,4.8105,4.7441,4.6973,4.6836,4.6504,4.6308,4.6308,4.6308,4.6308,4.6308,4.6308,4.6308,4.6308,4.6308,4.6308,4.6308,4.6308,4.6308,4.6308,4.6308,4.6308,4.6308,4.6308,4.6308,4.6289,4.623,4.625,4.6289,4.623,4.625,4.6308,0.0,0.0,0.0,0.0,0.0,0.0,0.0,0.0,0.0,0.0,0.0,0.0,0.0,0.0,0.0,0.0,0.0,0.0,0.0,0.0,0.0,0.0,0.0,0.0,0.0,0.0,0.0,0.0,0.0,0.0,3.3771,3.3847,3.3043,0.0,0.0,0.0,0.0,0.0,0.0,3.2194,3.2194,0.0,0.0,0.0,0.0,0.0,0.0,0.0,0.0,3.5307,3.5906,3.6405,3.6405,0.0,0.0,0.0,0.0,0.0,3.6959,3.819,3.9069,3.8115,3.8015,3.8391,3.9346,3.9296,3.9145,3.9597,4.0074,4.0676,4.1632,4.1743,4.2385,4.4514,4.5469,4.6268,4.7271,4.7294,4.6741,4.5678,4.6907,4.7681,4.7226,4.7812,4.8066,4.7715,4.7558,4.7168,4.6445,4.6328,4.6308,4.6308,4.6308,4.6308,4.6308,4.6308,4.6308,4.6308,4.6308,4.6308,4.6308,4.6308,4.6308,4.6308,4.6308,4.6308,4.6308,4.6308,4.6308,4.6269,4.5918,4.5996,4.625,4.5898,4.5996,4.6308,0.0,0.0,0.0,0.0,0.0,0.0,0.0,0.0,0.0,0.0,0.0,0.0,0.0,0.0,0.0,0.0,0.0,0.0,0.0,0.0,0.0,0.0,0.0,0.0,0.0,0.0,0.0,0.0,0.0,3.3796,3.4301,3.342,3.2566,3.1813,0.0,0.0,0.0,0.0,0.0,3.2692,0.0,0.0,0.0,0.0,0.0,0.0,0.0,0.0,0.0,0.0,3.618,3.6405,3.6405,0.0,0.0,0.0,0.0,0.0,3.706,3.7965,3.8868,3.927,4.0023,4.0752,4.1004,4.108,4.1105,4.1054,4.1255,4.1683,4.2487,4.2609,4.3695,4.7108,4.7954,4.8557,4.9739,4.898,4.8089,4.7366,4.7981,4.835,4.8026,4.7695,4.7539,4.7578,4.7148,4.6719,4.6328,4.6308,4.6308,4.6308,4.6308,4.6308,4.6308,4.6308,4.6308,4.6308,4.6308,4.6308,4.6308,4.6308,4.6308,4.6308,4.6308,4.6308,4.6308,4.6308,4.6308,4.6289,4.6094,4.6133,4.6289,4.6094,4.6133,4.6308,0.0,0.0,0.0,0.0,0.0,0.0,0.0,0.0,0.0,0.0,0.0,0.0,0.0,0.0,0.0,0.0,0.0,0.0,0.0,0.0,0.0,0.0,0.0,0.0,0.0,0.0,3.2215,3.3897,3.3771,3.3997,3.4477,3.3197,3.2466,0.0,0.0,0.0,0.0,0.0,0.0,3.309,0.0,0.0,0.0,0.0,0.0,0.0,0.0,0.0,0.0,0.0,0.0,0.0,0.0,0.0,0.0,3.6405,3.6505,3.6708,3.7261,3.7965,3.8894,4.0173,4.1379,4.2336,4.2688,4.2889,4.3039,4.314,4.3165,4.3291,4.3718,4.4042,4.5459,4.9116,4.9887,5.0393,5.1549,5.0406,4.9312,4.8845,4.8835,4.8834,4.8895,4.7871,4.7324,4.7558,4.6973,4.6504,4.6308,4.6308,4.6308,4.6308,4.6308,4.625,4.6152,4.625,4.6308,4.6308,4.6308,4.6308,4.6308,4.6308,4.6308,4.6308,4.6308,4.6308,4.6308,4.6308,4.6308,4.6289,4.6191,4.6152,4.6172,4.6269,4.6308,4.6308,0.0,0.0,0.0,0.0,0.0,0.0,0.0,0.0,0.0,0.0,0.0,0.0,0.0,0.0,0.0,0.0,0.0,0.0,0.0,0.0,0.0,0.0,0.0,0.0,0.0,3.1662,3.2215,3.3897,3.3416,3.342,3.3947,3.3822,3.3219,3.2219,0.0,0.0,0.0,0.0,0.0,3.309,3.309,0.0,0.0,0.0,0.0,0.0,0.0,0.0,0.0,0.0,0.0,0.0,0.0,0.0,3.6405,3.6405,3.6758,3.7261,3.7789,3.912,4.0349,4.0449,4.0224,4.0727,4.3736,4.3689,4.3592,4.5598,4.5999,4.6024,4.6075,4.7313,4.8803,5.0122,5.0863,5.1096,5.0586,4.9991,4.9121,4.7835,4.7704,4.8013,4.8815,4.8418,4.7969,4.7617,4.7519,4.7129,4.6348,4.6308,4.6308,4.6308,4.6308,4.6113,4.5766,4.6113,4.6308,4.6308,4.6308,4.6308,4.6308,4.6308,4.6308,4.6308,4.6308,4.6308,4.6308,4.6308,4.6308,4.6269,4.5879,4.5723,4.5805,4.6152,4.6308,4.6308,0.0,0.0,0.0,0.0,0.0,0.0,0.0,0.0,0.0,0.0,0.0,0.0,0.0,0.0,0.0,0.0,0.0,0.0,0.0,0.0,0.0,0.0,0.0,3.2194,3.2194,3.2014,3.2566,3.3897,3.4022,3.4198,3.4377,3.3696,0.0,0.0,0.0,0.0,0.0,0.0,0.0,0.0,3.3467,3.3721,0.0,0.0,0.0,0.0,0.0,0.0,0.0,0.0,3.6405,3.6455,3.6783,3.6909,3.6959,3.7311,3.7538,3.7814,3.8391,3.9521,4.0575,4.0926,4.1128,4.1934,4.4568,4.5372,4.5899,4.7054,4.7857,4.8259,4.7908,4.949,5.1096,5.1816,5.2173,5.2377,5.2426,5.0718,4.9294,4.8783,4.7813,4.7402,4.8053,4.7441,4.707,4.7168,4.6933,4.6641,4.6328,4.6308,4.6308,4.6308,4.6308,4.623,4.6074,4.623,4.6308,4.6289,4.6035,4.5918,4.5918,4.5918,4.5918,4.5918,4.6191,4.6308,4.6308,4.6308,4.6308,4.6289,4.6133,4.6055,4.6094,4.625,4.6308,4.6308,0.0,0.0,0.0,0.0,0.0,0.0,0.0,0.0,0.0,0.0,0.0,0.0,0.0,0.0,0.0,0.0,0.0,0.0,0.0,0.0,0.0,0.0,0.0,3.2039,3.2194,3.2039,3.2591,3.3897,3.4427,3.4603,3.4427,0.0,0.0,0.0,0.0,0.0,0.0,0.0,0.0,0.0,0.0,3.4098,0.0,0.0,0.0,0.0,0.0,0.0,0.0,0.0,3.6405,3.6482,3.7034,3.721,3.7311,3.7839,3.814,3.8366,3.8793,3.9546,4.0399,4.1127,4.1756,4.2889,4.5652,4.6672,4.76,4.9364,4.9791,4.9791,4.9622,5.0519,5.1674,5.2719,5.3322,5.3525,5.2992,5.1235,4.989,4.9447,4.7675,4.7003,4.8264,4.7233,4.6621,4.687,4.666,4.6445,4.6308,4.6308,4.6308,4.6308,4.6308,4.623,4.6113,4.623,4.623,4.6094,4.5683,4.5605,4.5879,4.5742,4.5742,4.5898,4.6172,4.6308,4.6308,4.6308,4.6308,4.6308,4.6308,4.6308,4.6308,4.6308,4.6308,4.6308,0.0,0.0,0.0,0.0,0.0,0.0,0.0,0.0,0.0,0.0,0.0,0.0,0.0,0.0,0.0,0.0,0.0,0.0,0.0,0.0,0.0,0.0,0.0,3.1637,3.2169,3.1687,3.2215,3.3872,3.4402,3.4402,3.3897,3.3897,0.0,0.0,0.0,0.0,0.0,0.0,0.0,0.0,0.0,3.4552,3.5433,0.0,0.0,0.0,0.0,0.0,0.0,0.0,3.6405,3.6482,3.706,3.7235,3.7336,3.7864,3.8442,3.8894,3.8894,3.9296,3.9973,4.1051,4.1781,4.3215,4.7029,4.75,4.8378,5.2804,5.1975,5.0619,5.1197,5.0368,5.0343,5.2544,5.431,5.4438,5.1719,5.1402,5.091,4.9554,4.7239,4.6866,4.9773,4.8133,4.687,4.687,4.687,4.6694,4.6328,4.6289,4.6289,4.6289,4.6308,4.6113,4.5683,4.6094,4.6094,4.5727,4.5234,4.5469,4.6269,4.5859,4.5898,4.6289,4.6289,4.6289,4.6308,4.6308,4.6308,4.6289,4.6308,4.6308,4.6289,4.6308,4.6308,4.6308,0.0,0.0,0.0,0.0,0.0,0.0,0.0,0.0,0.0,0.0,0.0,0.0,0.0,0.0,0.0,0.0,0.0,0.0,0.0,0.0,0.0,0.0,0.0,0.0,0.0,0.0,3.2616,3.2717,3.2846,3.3269,0.0,0.0,0.0,3.3897,0.0,0.0,0.0,0.0,0.0,0.0,0.0,3.5207,3.5533,0.0,0.0,0.0,0.0,0.0,0.0,0.0,0.0,0.0,3.809,3.8391,3.8492,3.9044,3.932,3.9472,3.9472,4.0149,4.1001,4.1731,4.324,4.5225,4.7939,4.8686,4.9891,5.3592,5.3181,5.2092,5.19,5.2201,0.0,5.2845,5.431,5.5231,5.4801,5.3746,5.2343,5.0487,4.8858,4.7532,4.6575,4.6249,4.6055,4.6055,4.5762,4.5801,4.6269,4.6016,4.5859,4.5859,4.6152,4.6113,4.5683,4.6094,4.623,4.6113,4.5371,4.5156,4.5391,4.4961,4.5,4.541,4.5723,4.6035,4.6308,4.6308,4.6133,4.5898,4.6191,4.6113,4.5898,4.6191,4.6308,4.6308,0.0,0.0,0.0,0.0,0.0,0.0,0.0,0.0,0.0,0.0,0.0,0.0,0.0,0.0,0.0,0.0,0.0,0.0,0.0,0.0,0.0,0.0,0.0,0.0,0.0,3.2512,3.2792,0.0,0.0,0.0,0.0,0.0,0.0,3.4248,0.0,3.4248,0.0,0.0,0.0,3.4276,3.5132,3.5656,3.5906,0.0,0.0,0.0,0.0,0.0,0.0,0.0,0.0,0.0,3.8617,3.8894,3.8994,3.9521,3.9697,3.9747,3.9948,4.065,4.1654,4.314,4.4819,4.6828,4.949,5.0904,5.211,5.3893,5.3532,5.292,5.3055,5.2904,5.3005,5.3783,5.4561,5.5102,5.5176,5.3481,5.183,5.072,4.8494,4.6753,4.6072,4.5647,4.541,4.541,4.5176,4.5211,4.5762,4.5547,4.541,4.541,4.584,4.5937,4.5727,4.5918,4.6055,4.6055,4.5195,4.4766,4.4766,4.4512,4.4629,4.5058,4.5488,4.582,4.6055,4.6055,4.5898,4.5703,4.5957,4.5996,4.5957,4.6211,4.6308,4.6308,0.0,0.0,0.0,0.0,0.0,0.0,0.0,0.0,0.0,0.0,0.0,0.0,0.0,0.0,0.0,0.0,0.0,0.0,0.0,0.0,0.0,0.0,0.0,0.0,0.0,0.0,0.0,0.0,0.0,0.0,0.0,0.0,3.4628,3.4653,0.0,3.5157,0.0,3.4728,3.4753,3.4753,3.5332,3.5906,3.6405,3.6405,0.0,0.0,0.0,0.0,0.0,0.0,0.0,0.0,3.8793,3.8969,3.907,3.9546,3.9697,3.9823,4.0399,4.1001,4.213,4.4945,4.6627,4.8353,5.1473,5.3381,5.4396,5.3884,5.3432,5.3432,5.4421,5.3014,5.2486,5.4913,5.5024,5.4541,5.398,5.1986,5.0555,5.0552,4.7212,4.5525,4.7028,4.5802,4.4961,4.486,4.486,4.4879,4.4918,4.4961,4.4961,4.4961,4.5391,4.5605,4.5566,4.5605,4.5668,4.5648,4.4785,4.4394,4.4394,4.4355,4.457,4.4957,4.543,4.5668,4.5668,4.5668,4.5668,4.5625,4.5707,4.5918,4.625,4.6289,4.6308,4.6308,0.0,0.0,0.0,0.0,0.0,0.0,0.0,0.0,0.0,0.0,0.0,0.0,0.0,0.0,0.0,0.0,0.0,0.0,0.0,0.0,0.0,0.0,0.0,0.0,0.0,0.0,0.0,0.0,0.0,0.0,0.0,0.0,0.0,3.4123,0.0,3.4979,3.4123,3.4979,3.5082,3.4778,3.5805,3.6281,3.6405,3.6405,3.6405,0.0,0.0,0.0,0.0,0.0,0.0,0.0,3.9346,3.9547,3.9546,3.9672,3.9697,3.9898,4.0876,4.1882,4.3288,4.607,4.8937,5.1322,5.2443,5.3331,5.3984,5.4346,5.4637,5.4787,5.4647,5.4572,5.4561,5.4748,5.5365,5.5822,5.567,5.5189,5.3675,5.0533,4.9632,4.8039,4.4838,4.4508,4.4375,4.4023,4.3984,4.4141,4.4512,4.4531,4.4531,4.4531,4.4941,4.5,4.4668,4.5,4.5176,4.5156,4.4648,4.4394,4.4394,4.4023,4.4101,4.4551,4.498,4.5176,4.5176,4.5176,4.5176,4.5195,4.5547,4.5723,4.5859,4.6191,4.6308,4.6308,0.0,0.0,0.0,0.0,0.0,0.0,0.0,0.0,0.0,0.0,0.0,0.0,0.0,0.0,0.0,0.0,0.0,0.0,0.0,0.0,0.0,0.0,0.0,0.0,0.0,0.0,0.0,0.0,0.0,0.0,0.0,0.0,0.0,3.4703,0.0,3.5182,3.4703,3.5257,3.5332,3.5155,3.6055,3.6405,3.6405,3.6405,3.6557,3.6859,3.7387,0.0,0.0,0.0,0.0,0.0,0.0,0.0,3.9697,3.9697,3.9697,3.9923,4.1026,4.2507,4.4618,4.8234,5.082,5.2578,5.282,5.3296,5.3783,5.4084,5.4386,5.4486,5.421,5.4185,5.4361,5.4924,5.5214,5.5516,5.5792,5.4327,5.2301,4.9843,4.8226,4.637,4.3917,4.3926,4.3965,4.373,4.3711,4.373,4.3769,4.3965,4.3867,4.3457,4.4062,4.418,4.3769,4.3984,4.4082,4.4082,4.3652,4.3574,4.3769,4.373,4.3965,4.4414,4.4629,4.4726,4.4726,4.4726,4.4726,4.4766,4.5195,4.5488,4.5766,4.6152,4.6308,4.6308,0.0,0.0,0.0,0.0,0.0,0.0,0.0,0.0,0.0,0.0,0.0,0.0,0.0,0.0,0.0,0.0,0.0,0.0,0.0,0.0,0.0,0.0,0.0,0.0,0.0,0.0,0.0,0.0,0.0,0.0,0.0,0.0,0.0,3.5508,0.0,0.0,3.5508,3.5608,3.5583,3.5533,3.6155,3.6405,3.6405,0.0,0.0,3.7286,3.7914,3.8492,3.8969,3.9522,0.0,0.0,0.0,0.0,3.9697,3.9697,3.9697,3.9923,4.1026,4.3134,4.602,5.0243,5.2051,5.277,5.287,5.3221,5.3557,5.3557,5.3632,5.3708,5.3708,5.3432,5.3658,5.5039,5.4974,5.4898,5.5315,5.2737,5.0467,4.9616,4.6878,4.4805,4.417,4.4108,4.3944,4.3635,4.3672,4.3496,4.2988,4.3359,4.3242,4.2421,4.3105,4.332,4.2969,4.2969,4.2969,4.2949,4.2598,4.2617,4.2988,4.3398,4.3808,4.418,4.4258,4.4238,4.418,4.4258,4.4316,4.4433,4.4785,4.5234,4.5766,4.6074,4.623,4.6308,0.0,0.0,0.0,0.0,0.0,0.0,0.0,0.0,0.0,0.0,0.0,0.0,0.0,0.0,0.0,0.0,0.0,0.0,2.9804,0.0,0.0,3.1361,3.1913,0.0,0.0,0.0,0.0,0.0,0.0,0.0,0.0,0.0,0.0,3.5508,0.0,0.0,0.0,3.6056,3.5981,3.5533,3.6155,3.6405,0.0,0.0,0.0,0.0,0.0,3.8818,3.8969,3.9522,3.9697,0.0,0.0,0.0,3.9697,3.9697,3.9697,3.9923,4.1026,4.3987,4.75,5.0519,5.1749,5.2352,5.2795,5.2945,5.2995,5.2995,5.3381,5.3708,5.3708,5.4059,5.4446,5.4672,5.5049,5.5315,5.539,5.4583,5.3264,5.1332,5.0653,4.9147,4.5999,4.5683,4.4984,4.3327,4.3496,4.3359,4.2558,4.293,4.293,4.2401,4.2499,4.2538,4.2479,4.2479,4.2479,4.2479,4.2421,4.2421,4.2519,4.2969,4.3203,4.3281,4.3633,4.3594,4.3281,4.3652,4.4043,4.4414,4.4453,4.498,4.5727,4.5742,4.5996,4.6348,0.0,0.0,0.0,0.0,0.0,0.0,0.0,0.0,0.0,0.0,0.0,0.0,0.0,0.0,0.0,2.9804,2.9804,2.9804,2.9804,3.003,3.0407,3.0934,3.1165,3.1562,0.0,0.0,0.0,0.0,0.0,0.0,0.0,3.5257,3.5606,0.0,0.0,0.0,0.0,0.0,0.0,3.6031,3.6281,0.0,0.0,0.0,0.0,0.0,0.0,0.0,0.0,3.9622,3.9697,3.9697,3.9697,0.0,0.0,0.0,3.9697,4.0199,4.2507,4.464,4.7029,5.0476,5.1473,5.1875,5.2694,5.2895,5.2895,5.2895,5.3071,5.3246,5.3246,5.3482,5.3858,5.4496,5.4486,5.4561,5.4924,5.3708,5.2345,5.1103,5.0192,4.8612,4.5932,4.5639,4.4935,4.3209,4.3027,4.2772,4.2401,4.2617,4.2402,4.1738,4.1953,4.1973,4.1719,4.1719,4.1719,4.1719,4.1719,4.1855,4.207,4.2266,4.248,4.2734,4.3164,4.3242,4.3086,4.3281,4.3613,4.4043,4.4297,4.4766,4.5332,4.5586,4.5937,4.6367,0.0,0.0,0.0,0.0,0.0,0.0,0.0,0.0,0.0,0.0,0.0,0.0,0.0,0.0,0.0,0.0,2.9804,2.9804,2.9804,2.9804,3.003,3.0563,3.0588,3.0859,3.1386,0.0,0.0,0.0,0.0,0.0,3.5508,3.5656,3.6332,0.0,3.6985,0.0,0.0,0.0,0.0,0.0,0.0,0.0,0.0,0.0,0.0,0.0,0.0,0.0,0.0,0.0,0.0,3.9697,3.9697,3.9697,0.0,0.0,0.0,4.03,4.3009,4.4317,4.5703,4.9163,5.0376,5.1004,5.2226,5.2628,5.2719,5.287,5.2895,5.2895,5.2895,5.2995,5.3432,5.4446,5.4084,5.3858,5.4321,5.2858,5.1658,5.1212,4.9737,4.7984,4.6181,4.5507,4.4584,4.3033,4.2617,4.2343,4.2226,4.2266,4.1933,4.123,4.1484,4.1484,4.1211,4.1211,4.1211,4.1211,4.1211,4.1387,4.1641,4.1758,4.1914,4.2129,4.2676,4.291,4.291,4.3027,4.332,4.373,4.4082,4.4551,4.5016,4.5391,4.5918,4.6504,0.0,0.0,0.0,0.0,0.0,0.0,0.0,0.0,0.0,0.0,0.0,0.0,0.0,0.0,2.9804,2.9804,2.9804,2.9804,2.9804,2.9804,3.003,3.0563,3.0588,0.0,3.1386,0.0,0.0,0.0,0.0,0.0,3.5508,3.6081,3.6934,3.7965,3.7939,3.7638,3.716,0.0,0.0,0.0,0.0,0.0,0.0,0.0,0.0,0.0,0.0,0.0,0.0,0.0,0.0,0.0,0.0,0.0,3.9697,0.0,0.0,0.0,4.1152,4.2283,4.3693,4.5999,4.7732,4.9371,5.1029,5.1774,5.2302,5.2795,5.2895,5.2895,5.2895,5.3331,5.3858,5.4496,5.4084,5.3708,5.3733,5.3202,5.2807,5.2782,5.1071,4.929,4.7731,4.5857,4.4091,4.2542,4.2401,4.2246,4.1855,4.1836,4.1621,4.123,4.123,4.123,4.1211,4.1211,4.1211,4.1211,4.1211,4.123,4.125,4.1621,4.1601,4.1328,4.2109,4.2421,4.246,4.291,4.332,4.3711,4.373,4.4258,4.4977,4.5058,4.5796,4.685,0.0,0.0,0.0,0.0,0.0,0.0,0.0,0.0,0.0,0.0,0.0,0.0,0.0,2.9804,2.9804,2.9804,2.9804,2.9804,2.9804,2.9804,2.988,3.008,3.008,3.0181,3.0357,0.0,0.0,0.0,0.0,3.3147,3.5004,3.5556,3.6232,3.7009,3.7688,3.7688,3.7185,3.6833,0.0,0.0,0.0,0.0,0.0,0.0,0.0,0.0,0.0,0.0,0.0,0.0,0.0,0.0,0.0,0.0,0.0,3.9697,3.9697,3.9923,4.1026,4.1603,4.2532,4.5146,4.6753,4.8159,4.9816,5.1197,5.2151,5.2352,5.2644,5.2995,5.3356,5.3306,5.3381,5.3934,5.3557,5.3331,5.3658,5.3256,5.2895,5.2895,5.2293,5.0648,4.7555,4.6595,4.501,4.221,4.1777,4.168,4.1797,4.1543,4.1367,4.1211,4.1211,4.1211,4.1211,4.1211,4.1211,4.1211,4.1211,4.1211,4.1211,4.1367,4.1348,4.125,4.1777,4.2168,4.2421,4.2891,4.332,4.373,4.4043,4.4512,4.5058,4.5332,4.5898,4.6562,0.0,0.0,0.0,0.0,0.0,0.0,0.0,0.0,0.0,0.0,0.0,0.0,0.0,0.0,2.9804,2.9804,2.9804,2.9804,2.9804,2.9804,2.9804,2.9804,2.998,3.008,3.008,0.0,0.0,0.0,0.0,0.0,0.0,3.5157,3.5807,3.6455,3.7312,3.7538,0.0,0.0,0.0,3.7437,0.0,0.0,3.8894,0.0,0.0,0.0,0.0,0.0,0.0,0.0,0.0,0.0,0.0,0.0,0.0,0.0,0.0,3.9848,4.0575,4.1026,4.1879,4.4317,4.5623,4.6798,4.8862,5.0193,5.1147,5.1724,5.2277,5.2795,5.3331,5.3121,5.3071,5.3607,5.3256,5.302,5.3381,5.3096,5.2895,5.2895,5.2327,5.0893,4.8253,4.6809,4.5068,4.2752,4.1737,4.1328,4.1562,4.1367,4.1211,4.1211,4.1211,4.1211,4.1211,4.1211,4.1211,4.1211,4.1211,4.1211,4.1211,4.1211,4.1211,4.123,4.1621,4.2031,4.2421,4.2891,4.3418,4.3945,4.4101,4.4609,4.5254,4.541,4.5898,4.6562,0.0,0.0,0.0,0.0,0.0,0.0,0.0,0.0,0.0,0.0,0.0,0.0,0.0,0.0,0.0,2.9849,2.9829,2.9804,2.9804,2.9804,2.9804,2.9804,3.0306,3.0588,3.0588,0.0,0.0,0.0,0.0,0.0,0.0,0.0,3.5782,3.638,3.6959,3.721,3.721,0.0,3.799,3.7965,0.0,3.7914,3.8919,0.0,0.0,0.0,3.9697,3.9697,0.0,0.0,0.0,0.0,0.0,0.0,0.0,0.0,0.0,0.0,0.0,0.0,0.0,4.3338,4.4192,4.5321,4.8064,4.8743,4.9245,5.0904,5.1674,5.2251,5.277,5.2895,5.3046,5.3607,5.3256,5.2895,5.2895,5.2895,5.2895,5.2895,5.1233,5.0056,5.002,4.6478,4.4172,4.4096,4.2311,4.1211,4.1211,4.1211,4.1211,4.1191,4.1211,4.1211,4.1191,4.1211,4.1211,4.1211,4.1211,4.1211,4.1211,4.1211,4.1211,4.123,4.1621,4.2031,4.2421,4.2891,4.3594,4.4336,4.3887,4.4512,4.5648,4.5195,4.5796,4.687,0.0,0.0,0.0,0.0,0.0,0.0,0.0,0.0,0.0,0.0,0.0,0.0,0.0,0.0,0.0,3.0909,3.0608,3.0382,3.0382,3.0005,2.9804,2.9804,3.0306,3.0588,3.0588,0.0,0.0,0.0,0.0,0.0,0.0,0.0,0.0,0.0,3.6584,3.6984,3.6658,3.721,0.0,0.0,3.8316,3.8843,0.0,0.0,0.0,0.0,0.0,3.9948,0.0,0.0,4.0524,4.0775,0.0,0.0,0.0,0.0,0.0,0.0,4.075,0.0,0.0,0.0,0.0,0.0,4.5497,4.7004,4.8385,4.9321,5.0577,5.1674,5.2226,5.2619,5.2945,5.3096,5.2995,5.2895,5.2895,5.2895,5.2895,5.2895,5.2421,5.1548,5.0162,4.7686,4.5611,4.4209,4.2311,4.1211,4.1211,4.1211,4.1035,4.0703,4.1016,4.1016,4.0703,4.1016,4.1211,4.1211,4.1211,4.1211,4.1211,4.1211,4.1211,4.123,4.1621,4.2031,4.2421,4.2891,4.3398,4.3926,4.4121,4.4609,4.5234,4.543,4.5918,4.6523,0.0,0.0,0.0,0.0,0.0,0.0,0.0,0.0,0.0,0.0,0.0,0.0,0.0,0.0,0.0,0.0,3.1235,3.0934,3.0934,3.0432,3.0231,3.0477,3.0758,3.116,3.1637,0.0,0.0,0.0,0.0,0.0,0.0,0.0,0.0,0.0,0.0,0.0,0.0,0.0,0.0,0.0,3.8668,0.0,0.0,3.9697,3.9697,0.0,0.0,0.0,4.0524,4.075,4.1051,0.0,0.0,0.0,0.0,0.0,0.0,0.0,0.0,0.0,0.0,0.0,0.0,0.0,4.4744,4.5974,4.7129,4.7933,4.927,5.0469,5.1247,5.185,5.2327,5.2519,5.2744,5.2895,5.2895,5.2895,5.2895,5.2895,5.2895,5.2154,5.0198,4.818,4.6182,4.4247,4.2311,4.1211,4.1211,4.1211,4.1055,4.0801,4.1035,4.1093,4.0801,4.1055,4.1211,4.1211,4.1211,4.1211,4.1211,4.1211,4.1211,4.123,4.1426,4.1777,4.2207,4.2637,4.3281,4.4004,4.4082,4.459,4.5332,4.5586,4.6055,4.6621,0.0,0.0,0.0,0.0,0.0,0.0,0.0,0.0,0.0,0.0,0.0,0.0,0.0,0.0,0.0,0.0,3.1863,3.1532,3.1562,3.1035,0.0,3.1361,3.1482,3.1938,3.2989,3.2541,3.2817,3.3796,3.2792,3.2867,0.0,0.0,0.0,0.0,0.0,0.0,0.0,0.0,0.0,3.814,3.8743,3.9271,0.0,0.0,3.9697,0.0,4.0325,4.0524,4.0675,4.1277,4.1503,0.0,0.0,0.0,0.0,0.0,4.1403,0.0,0.0,0.0,0.0,0.0,0.0,0.0,4.4924,4.5296,4.5698,4.6697,4.7883,4.8987,5.0042,5.072,5.1272,5.1825,5.2377,5.2744,5.287,5.2895,5.2895,5.2895,5.2895,5.2154,5.0198,4.818,4.6182,4.4247,4.2311,4.1211,4.1211,4.1211,4.1191,4.1094,4.1191,4.1191,4.1094,4.1094,4.1172,4.1211,4.1172,4.1172,4.1211,4.1211,4.1211,4.1211,4.1211,4.1406,4.1836,4.2207,4.3105,4.4219,4.3848,4.4473,4.5605,4.5605,4.6133,4.6933,0.0,0.0,0.0,0.0,0.0,0.0,0.0,0.0,0.0,0.0,0.0,0.0,0.0,0.0,0.0,0.0,0.0,3.224,0.0,0.0,3.1286,3.1406,3.1813,3.2164,3.2365,3.2742,3.304,3.3266,3.304,3.3266,3.3897,3.4452,0.0,0.0,0.0,0.0,0.0,0.0,0.0,3.8768,3.9321,0.0,3.9697,3.9697,3.9697,3.9772,4.0325,4.0775,4.1302,0.0,4.266,4.2585,0.0,0.0,0.0,0.0,0.0,0.0,0.0,0.0,0.0,0.0,0.0,0.0,4.3517,4.4166,4.4995,4.5673,4.7029,4.8284,4.8962,4.954,5.0117,5.0645,5.1222,5.1925,5.277,5.2895,5.2895,5.2895,5.2895,5.2154,5.0198,4.818,4.6182,4.4247,4.2311,4.1211,4.1211,4.1211,4.1016,4.0664,4.0996,4.0996,4.0644,4.0644,4.082,4.1211,4.082,4.084,4.1211,4.1211,4.1211,4.1211,4.1211,4.1406,4.1816,4.1894,4.248,4.3359,4.3613,4.4297,4.5156,4.5156,4.5683,4.6543,0.0,0.0,0.0,0.0,0.0,0.0,0.0,0.0,0.0,0.0,0.0,0.0,0.0,0.0,0.0,0.0,0.0,0.0,0.0,0.0,3.2261,3.2261,3.2215,3.2595,3.3423,3.3219,3.3366,3.3897,3.3621,3.3771,3.4324,3.4853,3.5406,0.0,0.0,0.0,0.0,0.0,3.8793,3.9321,3.9572,0.0,4.0099,4.0099,4.0275,4.0549,4.1128,4.1681,4.2233,4.2813,4.3014,0.0,0.0,4.3014,4.3014,0.0,4.319,4.3388,0.0,0.0,0.0,4.3865,0.0,0.0,0.0,4.4443,4.5121,4.5422,4.6351,4.728,4.7857,4.8385,4.9038,4.9866,5.0469,5.1147,5.1975,5.2544,5.2895,5.2895,5.2895,5.2154,5.0198,4.818,4.5797,4.2846,4.1753,4.1211,4.1211,4.1211,4.1074,4.0859,4.1055,4.1113,4.084,4.084,4.0957,4.1211,4.0957,4.0957,4.1211,4.1211,4.1211,4.1211,4.1211,4.1406,4.1816,4.2031,4.2617,4.3437,4.3887,4.4453,4.5035,4.5508,4.6074,4.6719,0.0,0.0,0.0,0.0,0.0,0.0,0.0,0.0,0.0,0.0,0.0,0.0,0.0,0.0,0.0,0.0,0.0,0.0,0.0,0.0,0.0,3.3416,3.2943,3.3273,3.4502,3.3796,3.3771,3.4552,3.4223,3.4327,3.4853,3.5282,3.5882,0.0,0.0,0.0,0.0,0.0,0.0,3.9697,0.0,3.9948,4.0375,4.0449,4.0775,4.1227,4.1959,4.2537,4.3014,4.3014,0.0,4.309,4.3514,4.3714,0.0,0.0,0.0,0.0,0.0,0.0,0.0,0.0,0.0,4.474,0.0,0.0,0.0,4.5497,4.5924,4.6421,4.6873,4.7299,4.7933,4.8962,4.9665,5.0293,5.087,5.1925,5.2569,5.2569,5.2569,5.1832,4.9852,4.7558,4.489,4.1807,4.1267,4.1074,4.1211,4.1211,4.1211,4.1211,4.1211,4.1211,4.1211,4.1094,4.1094,4.1211,4.1094,4.1094,4.1211,4.1211,4.1211,4.1211,4.1211,4.1406,4.1836,4.2206,4.2891,4.3633,4.418,4.4707,4.5234,4.5918,4.6504,4.6948,3.3922,3.4226,0.0,0.0,0.0,0.0,0.0,0.0,0.0,0.0,0.0,0.0,0.0,0.0,0.0,0.0,0.0,0.0,3.6759,0.0,0.0,0.0,3.4452,0.0,3.3997,3.4327,3.4327,3.3997,3.4424,3.4879,3.5408,3.5458,3.6083,0.0,3.7185,0.0,0.0,0.0,3.922,0.0,3.9697,3.9747,0.0,4.0325,4.0524,4.0725,4.1808,4.2537,4.3014,0.0,4.3014,4.3014,0.0,4.3413,0.0,0.0,0.0,0.0,0.0,0.0,0.0,0.0,4.502,0.0,0.0,0.0,4.5497,4.5497,0.0,4.6326,4.6401,0.0,0.0,4.7274,4.8284,4.9195,4.9715,5.0745,5.1473,5.1473,5.1473,5.0693,4.8696,4.5207,4.3099,4.3056,4.1539,4.0762,4.1191,4.1211,4.1211,4.1211,4.1211,4.1211,4.1211,4.0781,4.0781,4.1211,4.0781,4.0801,4.1211,4.1211,4.1211,4.1211,4.1211,4.1406,4.1836,4.2206,4.2715,4.3223,4.4062,4.4883,4.5625,4.5703,4.625,4.6948,0.0,0.0,0.0,0.0,0.0,0.0,0.0,0.0,0.0,0.0,0.0,0.0,0.0,0.0,0.0,0.0,0.0,0.0,0.0,0.0,0.0,0.0,0.0,0.0,0.0,3.4926,3.4753,3.4828,3.5054,3.5282,3.5508,3.5857,3.6433,0.0,3.7513,0.0,3.8919,0.0,0.0,0.0,0.0,0.0,0.0,4.075,4.1352,4.2007,4.2487,4.2813,4.3014,0.0,4.3014,0.0,0.0,0.0,0.0,0.0,0.0,0.0,0.0,0.0,0.0,0.0,0.0,0.0,0.0,0.0,4.6878,0.0,0.0,0.0,0.0,0.0,0.0,0.0,4.8184,4.846,4.9038,4.9238,4.9816,5.1122,5.1306,5.0091,4.7016,4.6222,4.4639,4.1583,4.1826,4.1728,4.0858,4.1035,4.1211,4.1211,4.1211,4.1211,4.1211,4.0996,4.0996,4.1211,4.0996,4.0996,4.1211,4.1211,4.1211,4.1211,4.1211,4.1543,4.2168,4.2304,4.2988,4.3906,4.4512,4.498,4.5332,4.5586,4.6055,4.666,0.0,0.0,0.0,0.0,0.0,0.0,0.0,0.0,0.0,0.0,0.0,0.0,3.9296,3.9622,0.0,0.0,0.0,3.9371,0.0,0.0,3.696,0.0,0.0,0.0,0.0,0.0,3.5431,3.5508,3.5682,3.5832,3.5983,3.6256,3.6833,3.7688,0.0,3.8417,3.9145,0.0,0.0,3.9697,3.9697,4.0124,4.0775,4.1327,4.2158,4.3014,4.3014,4.3014,4.3014,4.3014,4.3014,0.0,4.3438,0.0,0.0,0.0,0.0,0.0,4.5171,0.0,0.0,0.0,0.0,0.0,0.0,0.0,0.0,0.0,0.0,0.0,0.0,0.0,0.0,0.0,0.0,4.8058,4.8485,4.8184,4.851,5.0167,5.0494,4.9601,4.6969,4.698,4.5495,4.1502,4.1809,4.1704,4.0546,4.082,4.1093,4.1211,4.1211,4.1211,4.1211,4.1211,4.1211,4.1211,4.1211,4.1211,4.1211,4.1211,4.1211,4.1211,4.1211,4.166,4.2382,4.2382,4.3125,4.4258,4.4687,4.4879,4.5098,4.5644,4.6191,4.6719,3.623,3.638,0.0,0.0,0.0,0.0,0.0,0.0,0.0,0.0,0.0,0.0,0.0,0.0,0.0,0.0,0.0,4.2384,4.1227,0.0,3.9094,0.0,0.0,0.0,0.0,0.0,0.0,3.5508,3.6081,3.6632,3.7111,3.6632,3.7261,3.8818,3.8241,3.8617,3.9672,3.9697,3.9697,3.9697,3.9697,4.035,4.1352,0.0,4.2512,4.3014,4.3014,0.0,0.0,4.3014,4.3014,0.0,0.0,0.0,0.0,0.0,0.0,0.0,0.0,0.0,0.0,4.6973,0.0,0.0,0.0,0.0,4.7908,0.0,0.0,0.0,0.0,0.0,0.0,0.0,0.0,0.0,0.0,4.7908,4.7933,4.8008,4.851,4.9031,4.9429,4.6325,4.4306,4.4531,4.1322,3.9684,4.0469,4.0489,4.0742,4.1211,4.1211,4.1211,4.1211,4.1211,4.1211,4.1211,4.1211,4.1211,4.1211,4.1211,4.1211,4.1211,4.1211,4.166,4.2382,4.2382,4.293,4.3769,4.4238,4.4668,4.5094,4.5976,4.6816,4.748,0.0,0.0,0.0,0.0,0.0,0.0,0.0,3.7235,0.0,0.0,0.0,0.0,0.0,0.0,4.4472,0.0,0.0,4.4016,4.2509,4.1404,0.0,0.0,0.0,3.8191,0.0,0.0,0.0,0.0,0.0,3.7386,3.721,3.7386,3.7989,3.8894,0.0,3.9019,0.0,0.0,0.0,0.0,0.0,4.1783,4.2409,0.0,0.0,4.3014,4.3014,4.3014,0.0,4.3014,4.3014,4.3014,4.3014,4.3112,4.3363,4.3915,4.4468,0.0,0.0,0.0,4.6496,4.7431,0.0,0.0,0.0,0.0,0.0,0.0,0.0,0.0,0.0,0.0,0.0,0.0,0.0,0.0,0.0,4.7575,4.75,4.7857,4.8736,4.8764,4.7345,4.6158,4.44,4.1727,4.0938,4.0218,3.9293,4.0059,4.0586,4.0742,4.1035,4.1211,4.1211,4.1211,4.1211,4.1211,4.1211,4.1211,4.1211,4.1211,4.1211,4.123,4.1465,4.1914,4.244,4.3027,4.3437,4.3808,4.4844,4.5156,4.5055,4.5683,4.6426,4.7207,3.721,0.0,0.0,0.0,0.0,0.0,0.0,0.0,0.0,0.0,4.2311,0.0,4.5824,0.0,4.615,0.0,4.6527,4.5728,4.3413,4.3134,0.0,4.1352,4.0299,0.0,0.0,0.0,0.0,0.0,0.0,3.814,3.7813,3.7939,3.8417,3.9195,0.0,3.9195,3.9697,0.0,4.0199,0.0,0.0,4.2386,0.0,0.0,4.2813,4.3266,0.0,4.3014,4.3014,4.3014,4.3014,4.3014,4.3014,4.3014,4.314,4.3865,4.4313,4.4765,4.5573,4.605,0.0,4.7405,4.7782,0.0,4.9088,0.0,0.0,0.0,0.0,0.0,0.0,0.0,0.0,0.0,0.0,0.0,0.0,4.7475,4.75,4.7857,4.8736,4.8471,4.6273,4.5569,4.3756,4.0243,4.0067,3.9656,3.8627,3.9668,4.0371,4.0527,4.0957,4.1211,4.1211,4.1211,4.1211,4.1211,4.1211,4.1211,4.1211,4.1211,4.1211,4.123,4.1621,4.2031,4.246,4.3359,4.3808,4.4062,4.5215,4.5508,4.5332,4.5898,4.6465,4.7026,0.0,0.0,0.0,0.0,3.7235,0.0,0.0,0.0,4.0953,0.0,4.3341,4.4844,4.7074,4.7299,4.75,4.8033,4.8592,0.0,4.4342,4.5522,0.0,0.0,4.2534,4.2534,4.1503,0.0,0.0,0.0,0.0,0.0,3.8919,3.8341,3.8668,3.9672,3.917,0.0,3.9722,4.0248,4.0524,4.0701,4.1783,4.2263,4.2338,4.2813,4.3313,4.374,4.319,4.3014,4.3014,4.3014,4.3014,4.3014,4.3014,4.3014,4.3266,4.4288,4.4614,4.4865,4.5999,4.6301,4.6451,4.6973,4.75,0.0,0.0,0.0,4.959,0.0,0.0,0.0,0.0,0.0,0.0,0.0,0.0,0.0,0.0,0.0,4.7958,4.7958,4.8435,4.8139,4.6438,4.4572,4.2501,4.0316,3.8708,3.8047,3.8532,3.9375,4.0059,4.0469,4.0937,4.1211,4.1211,4.1211,4.1211,4.1211,4.1211,4.1211,4.1211,4.1211,4.1211,4.123,4.1641,4.2051,4.246,4.3398,4.4023,4.4492,4.5371,4.5723,4.584,4.666,4.6909,4.7104,3.8391,3.8467,3.8316,0.0,3.7462,3.7487,0.0,0.0,0.0,0.0,4.5924,4.7707,4.9967,5.0218,5.0268,5.0419,5.0167,0.0,0.0,0.0,0.0,4.625,4.4518,4.3639,4.3761,4.2005,0.0,4.0675,0.0,0.0,3.9471,3.9346,3.9421,3.9697,3.9546,3.9572,3.9722,4.0248,4.0978,4.1808,4.2512,4.3039,0.0,0.0,4.3313,4.374,4.319,4.3014,4.3014,4.3014,4.3014,4.3014,4.3014,4.3263,4.374,4.4389,4.492,4.5422,4.6125,4.6301,4.6451,4.6973,4.75,4.8058,0.0,0.0,0.0,0.0,0.0,0.0,0.0,0.0,0.0,0.0,0.0,0.0,0.0,0.0,0.0,4.8592,0.0,0.0,4.7568,4.4369,4.2001,4.0989,3.8501,3.7187,3.7598,3.873,3.959,4.0039,4.0781,4.1211,4.1211,4.1211,4.1211,4.1211,4.1211,4.1211,4.1211,4.1211,4.1211,4.125,4.1953,4.2284,4.2499,4.4021,4.457,4.4512,4.5683,4.6328,4.668,4.7207,4.7422,4.7558,3.8843,0.0,0.0,3.8843,0.0,0.0,4.0276,0.0,0.0,4.5447,4.7054,0.0,5.0343,5.0996,5.1373,5.1624,5.1122,0.0,0.0,0.0,0.0,4.7575,4.6552,4.5773,4.5342,4.341,0.0,4.1681,0.0,0.0,3.9697,3.9697,3.9697,3.9697,3.9697,3.9697,3.9747,4.0524,4.1505,4.2562,4.2889,4.319,0.0,4.3115,4.319,4.3388,4.3115,4.3014,4.3014,4.3014,4.3014,4.3014,4.3014,4.3215,4.3589,4.4364,4.4815,4.5271,4.61,4.6301,4.6376,4.6672,4.7149,4.7707,4.8259,4.8837,4.9314,0.0,4.959,4.959,0.0,0.0,0.0,0.0,0.0,0.0,0.0,0.0,0.0,0.0,4.8592,4.8259,4.7933,4.4322,4.1458,4.0159,3.797,3.689,3.7266,3.8516,3.9414,3.9883,4.0898,4.1367,4.1211,4.1348,4.1348,4.1211,4.1211,4.1211,4.1211,4.1211,4.1308,4.1484,4.2148,4.2596,4.3045,4.4453,4.5,4.5039,4.5957,4.6562,4.6909,4.7207,4.7285,4.7441,0.0,0.0,0.0,0.0,0.0,0.0,0.0,4.2889,0.0,4.6401,0.0,4.8862,4.9916,5.0896,5.1699,5.2176,0.0,5.0828,4.9446,5.0577,5.0218,4.7751,4.846,4.8134,4.6552,4.4794,0.0,0.0,0.0,0.0,3.9798,3.9722,3.9697,3.9697,3.9697,3.9772,0.0,4.0901,4.1955,4.3014,4.309,4.3115,4.3115,4.3115,4.3115,4.3115,4.3039,4.3014,4.3014,4.3014,4.3014,4.3014,4.3014,4.3115,4.3388,4.4313,4.469,4.5041,4.605,4.6301,4.6301,4.6301,4.6697,4.7249,4.7782,4.836,4.8969,4.949,4.959,4.959,0.0,0.0,0.0,0.0,0.0,0.0,0.0,0.0,0.0,0.0,0.0,0.0,4.8033,4.449,4.1402,3.9408,3.7902,3.7218,3.7617,3.8602,3.9355,3.9883,4.1016,4.1504,4.1289,4.1562,4.1562,4.1289,4.125,4.1211,4.1211,4.1211,4.1406,4.1816,4.2246,4.2871,4.3691,4.4629,4.5312,4.5801,4.6152,4.6523,4.6811,4.687,4.6889,4.7065,0.0,0.0,0.0,0.0,0.0,4.3714,4.5924,4.6627,4.7405,4.8837,5.0393,5.1624,5.2243,5.2494,5.2644,5.2744,5.2277,0.0,0.0,0.0,0.0,5.0569,4.9841,4.8887,4.7657,4.5518,4.4166,0.0,0.0,0.0,4.035,3.9898,3.9697,3.9697,3.9697,4.0199,4.1051,4.1227,0.0,4.3039,4.3463,4.3664,4.3664,4.3664,4.3664,4.3589,4.3165,4.3014,4.3014,4.3014,4.3014,4.3014,4.3014,4.3614,4.4338,4.4539,4.5296,4.605,4.625,4.6301,4.6301,4.6301,4.6697,4.7249,4.7782,4.836,4.8969,4.949,4.959,4.959,4.959,0.0,0.0,0.0,0.0,0.0,0.0,0.0,0.0,0.0,0.0,4.8642,0.0,4.5465,4.324,4.2832,4.0289,3.8957,3.9413,3.897,3.9062,3.9863,4.0449,4.1055,4.168,4.1465,4.1465,4.168,4.1387,4.1211,4.1211,4.1211,4.1406,4.1816,4.2246,4.2715,4.3281,4.4512,4.5488,4.6191,4.6269,4.6348,4.6465,4.6753,4.6889,4.7026,0.0,0.0,0.0,0.0,0.0,0.0,0.0,4.9615,0.0,4.9665,5.0293,5.0896,5.1172,5.2192,5.2895,5.2895,5.2644,5.2619,5.287,5.2427,5.1875,5.1297,5.0745,0.0,4.8385,4.62,4.4644,4.379,0.0,0.0,4.0074,3.9823,3.9697,3.9697,3.9697,4.03,0.0,0.0,0.0,4.3463,4.4016,4.4188,4.4188,4.4188,4.4188,4.4192,4.3915,4.384,4.379,4.3514,4.3589,4.384,4.384,4.4192,4.4665,4.4995,4.5472,4.5949,4.6225,4.6301,4.6301,4.6301,4.6471,4.6823,4.735,4.7933,4.8485,4.9095,4.9389,4.959,4.959,4.9389,0.0,0.0,0.0,0.0,0.0,0.0,0.0,0.0,0.0,0.0,0.0,0.0,4.4787,4.3248,4.0954,3.9446,3.8878,3.8707,3.8984,3.9863,4.0527,4.1055,4.1465,4.1484,4.1484,4.1484,4.1308,4.1328,4.1504,4.1504,4.1855,4.248,4.2676,4.3262,4.418,4.5254,4.5937,4.6328,4.6543,4.6758,4.6992,4.7187,4.7402,4.7656,0.0,4.203,0.0,0.0,4.622,0.0,4.9565,5.154,5.2268,5.0544,5.0293,5.0293,5.0293,5.1841,5.2895,5.2895,5.2895,5.2895,5.2895,5.2895,5.2443,5.1498,5.1348,5.0577,4.9019,4.6903,4.5171,0.0,0.0,0.0,0.0,3.9697,3.9697,3.9697,3.9823,0.0,0.0,0.0,4.2914,4.3865,4.4514,4.4765,4.4765,4.4765,4.4765,4.4765,4.464,4.4665,4.4744,4.4292,4.4367,4.4589,4.4589,4.469,4.4865,4.5347,4.5573,4.5748,4.62,4.6301,4.6301,4.6301,4.6301,4.6421,4.6973,4.75,4.8083,4.8693,4.9245,4.959,4.959,4.959,0.0,0.0,0.0,0.0,0.0,0.0,0.0,0.0,0.0,0.0,4.8159,4.7575,4.613,4.3375,4.1481,3.9948,3.8778,3.8556,3.8848,3.9726,4.0508,4.1035,4.1308,0.0,4.1543,4.1348,4.1348,4.1484,4.1797,4.1894,4.2402,4.3203,4.3203,4.3965,4.5215,4.5898,4.6269,4.6465,4.6699,4.7109,4.7578,4.748,4.7773,4.8203,0.0,0.0,0.0,0.0,0.0,0.0,5.0243,5.1791,5.282,5.2619,5.2594,5.2594,5.2594,5.277,5.2895,5.2895,5.2895,5.2895,5.2895,5.2895,5.2619,5.2051,5.1548,5.072,4.954,4.7826,4.5919,0.0,0.0,0.0,0.0,3.9697,3.9697,0.0,0.0,0.0,0.0,4.2459,4.3237,4.389,4.497,4.5422,4.5422,4.5422,4.5422,4.5347,4.4819,4.497,4.5397,4.5347,4.502,4.4589,4.4589,4.4995,4.5422,4.5472,4.5849,4.625,4.6301,4.6301,4.6301,4.6301,4.6301,4.6421,4.6973,4.75,4.8083,4.8693,4.9245,4.959,4.959,4.959,4.9766,0.0,0.0,0.0,0.0,0.0,0.0,0.0,0.0,0.0,0.0,4.8184,4.7026,4.5083,4.2899,4.1594,4.1441,3.9216,3.8379,3.9238,3.9746,4.0566,4.1738,4.1406,4.1406,4.1738,4.1738,4.1758,4.1816,4.2187,4.2832,4.3652,4.3652,4.4394,4.5625,4.5703,4.6191,4.6792,4.6504,4.6855,4.7539,4.7129,4.75,4.8203,0.0,0.0,0.0,0.0,0.0,0.0,0.0,5.2468,5.2895,5.2895,5.2895,5.2895,5.2895,5.2895,5.2895,5.2895,5.2895,5.2895,5.2895,5.2895,5.2644,5.2126,5.1574,5.0896,5.0117,4.846,4.6853,0.0,0.0,0.0,0.0,0.0,0.0,0.0,0.0,4.1478,4.2384,4.3489,4.4292,4.4869,4.5673,4.5974,4.5974,4.5974,4.5974,4.5949,4.5723,4.5773,4.5974,4.5974,4.5824,4.5618,4.5618,4.5799,4.5974,4.5974,4.6125,4.6301,4.6301,4.6301,4.6301,4.6301,4.6522,4.6823,4.7048,4.7807,4.8485,4.8743,4.9245,4.959,4.959,4.959,4.9766,5.0318,0.0,0.0,0.0,0.0,0.0,0.0,0.0,0.0,0.0,4.7757,0.0,0.0,4.4082,4.2203,4.1078,3.9318,3.8711,3.959,0.0,4.0391,4.1406,4.1289,4.1289,4.1426,4.168,4.1933,4.2207,4.2891,4.3672,4.4512,4.4766,4.5195,4.5746,4.5957,4.625,4.6562,4.6641,4.7051,4.7598,4.7676,4.8086,4.8594,4.8002,0.0,4.8905,0.0,5.082,5.1096,5.2644,5.2895,5.2895,5.2895,5.2895,5.2895,5.2895,5.2895,5.2895,5.2895,5.2895,5.2895,5.2895,5.2895,5.2719,5.2352,5.1825,0.0,5.0695,4.9339,4.7958,4.6552,4.5196,0.0,0.0,0.0,0.0,0.0,4.1955,4.2707,4.3539,4.479,4.5568,4.6024,4.6552,4.6778,4.6753,4.6602,4.6552,4.6496,4.6376,4.6301,4.6326,4.6471,4.6552,4.6496,4.6351,4.6396,4.6552,4.6552,4.6652,4.6778,4.6778,4.6778,4.6778,4.6778,4.7079,4.7324,4.7324,4.8083,4.8843,4.9019,4.9314,4.959,4.959,4.959,4.9766,5.0318,0.0,0.0,0.0,0.0,0.0,0.0,4.9974,4.8818,4.8209,4.7682,0.0,0.0,0.0,4.2666,4.1203,3.9515,3.8962,0.0,0.0,0.0,4.1211,4.1211,4.1269,4.1367,4.1777,4.2266,4.2832,4.3828,4.4629,4.5234,4.5664,4.5859,4.5879,4.6191,4.6445,4.6699,4.6855,4.7344,4.8014,4.8144,4.8476,4.8913,5.0167,5.0845,5.1574,5.2669,5.2845,5.287,5.2895,5.2895,5.2895,5.2895,5.2895,5.2895,5.2895,5.2895,5.2895,5.2895,5.2895,5.2895,5.2895,5.2895,5.2895,0.0,0.0,5.1825,5.1306,5.0695,4.9282,4.7099,0.0,0.0,4.2989,0.0,4.2462,4.3014,4.4091,4.4564,4.469,4.6371,4.7074,4.7124,4.7682,4.7883,4.7832,4.7274,4.7099,4.7023,4.6471,4.6301,4.6401,4.6898,4.7099,4.6998,4.6476,4.6647,4.7099,4.7099,4.745,4.7883,4.7883,4.7883,4.7883,4.7883,4.7883,4.7908,4.7908,4.836,4.8969,4.9464,4.959,4.959,4.959,4.959,4.9766,5.0318,0.0,0.0,0.0,0.0,0.0,0.0,5.0268,4.9364,4.8843,4.8234,0.0,0.0,0.0,4.3085,0.0,0.0,0.0,3.9199,4.0059,0.0,4.1211,4.1211,4.1387,4.1797,4.2207,4.2871,4.373,4.5058,4.5707,4.5683,4.6113,4.6289,4.6289,4.6308,4.6797,4.7519,4.709,4.7715,4.8835,4.8359,4.8476,4.8913,5.1498,5.2026,5.2528,5.2845,5.2895,5.2895,5.2895,5.2895,5.2895,5.2895,5.2895,5.2895,5.2895,5.2895,5.2895,0.0,5.2895,5.2895,0.0,5.2895,5.2895,5.2895,5.2402,5.2026,5.185,5.1297,5.0469,4.9332,0.0,0.0,0.0,4.4116,4.4141,4.4723,4.5045,4.5623,4.6371,4.7249,4.7657,4.7682,4.7832,4.7908,4.7883,4.7732,4.7657,4.76,4.7456,4.7179,4.6923,4.745,4.74,4.7124,4.733,4.7531,4.7657,4.7657,4.7782,4.7908,4.7908,4.7908,4.7908,4.7908,4.8209,4.8485,4.8485,4.8969,4.9389,4.9565,4.959,4.959,4.959,4.959,4.9916,5.0845,5.082,0.0,0.0,0.0,0.0,0.0,4.9715,4.8994,4.8818,4.8234,0.0,0.0,0.0,0.0,0.0,0.0,0.0,0.0,4.0234,0.0,4.1211,4.1211,4.1387,4.1816,4.2519,4.3633,4.5058,4.5531,4.584,4.6113,4.625,4.6308,4.6308,4.6308,4.6641,4.7129,4.6948,4.7539,4.8398,4.8262,4.8476,4.8913,5.2427,5.2644,5.2895,5.2895,5.2895,5.2895,5.2895,5.2895,5.2895,5.2895,5.2895,5.2895,5.2895,5.2895,0.0,5.2895,5.2895,5.2895,5.2895,5.2895,5.2895,5.2895,5.2569,5.2327,5.2101,5.1975,0.0,5.0745,4.9446,4.7989,4.6376,4.5794,4.5874,4.6401,4.6657,4.7104,4.7782,4.8309,4.8535,4.8535,4.8535,4.8535,4.851,4.8309,4.8234,4.8209,4.7983,4.7676,4.7475,4.8058,4.8033,4.7832,4.8385,4.8535,4.851,4.8284,4.8385,4.8535,4.8535,4.8535,4.8535,4.8535,4.8812,4.912,4.912,4.9339,4.959,4.959,4.959,4.959,4.959,4.959,4.9816,5.0544,5.0519,5.067,5.1373,0.0,0.0,0.0,0.0,0.0,0.0,4.9063,4.8226,0.0,0.0,0.0,0.0,0.0,3.9668,4.0117,4.0547,4.0898,4.1211,4.1367,4.1621,4.2051,4.3242,4.4473,4.5727,4.584,4.6055,4.6308,4.6308,4.6308,4.6308,4.6308,4.6543,4.6909,4.7109,4.7598,4.8223,4.8398,4.8659,4.8913,5.2895,5.2895,5.2895,5.2895,5.2895,5.2895,5.2895,5.2895,5.2895,5.2895,5.2895,5.2895,5.2895,5.2895,5.2895,5.2895,0.0,0.0,5.2895,5.2895,5.2895,5.2895,5.2895,5.2644,5.2176,5.2619,5.2377,5.1306,4.9773,4.8686,4.8083,4.755,4.76,4.8159,4.8642,4.8894,4.8944,4.9389,4.959,4.959,4.959,4.959,4.954,4.9069,4.8868,4.8793,4.8209,4.8033,4.8109,4.8718,4.8894,4.8969,4.9515,4.9665,4.949,4.9019,4.922,4.959,4.959,4.959,4.959,4.959,4.959,4.959,4.959,4.959,4.959,4.959,4.959,4.959,4.959,4.959,4.9615,4.964,5.0042,5.0336,5.0386,0.0,0.0,0.0,0.0,0.0,5.0386,5.0444,4.9719,0.0,0.0,0.0,0.0,0.0,4.0269,4.0469,4.0957,4.1211,4.1211,4.1582,4.2051,4.2538,4.4235,4.5293,4.5723,4.6133,4.6308,4.6308,4.6308,4.6308,4.6308,4.6328,4.6582,4.6928,4.7441,4.7871,4.8262,4.8737,4.8913,4.8913,0.0,0.0,5.2895,5.2895,5.2895,5.2895,5.2895,5.2895,5.2895,5.2895,5.2895,5.2895,5.2895,5.2895,5.2895,5.2895,5.2895,5.2895,5.2895,5.2895,5.2895,5.2895,5.2895,5.2845,5.2694,5.282,5.2377,5.1306,5.1297,5.0795,4.9816,4.9658,4.9941,5.0444,4.9715,4.964,5.0017,4.9715,4.959,4.959,4.959,4.959,4.959,4.9439,4.9389,4.9389,4.9238,4.9188,4.9289,4.9841,4.9741,4.9565,5.0569,5.0293,4.9565,4.9439,4.949,4.959,4.959,4.959,4.959,4.959,4.959,4.959,4.959,4.959,4.959,4.959,4.959,4.959,4.959,4.959,4.9741,5.0142,4.9967,4.9941,5.0336,5.0067,4.9791,0.0,5.0167,5.0386,5.0386,5.082,5.0321,0.0,0.0,4.6292,4.3289,4.2844,4.1979,4.0566,4.0957,4.1211,4.1211,4.1582,4.2519,4.3945,4.5019,4.5742,4.6152,4.625,4.6308,4.6308,4.6308,4.6308,4.6328,4.6641,4.6792,4.6967,4.7754,4.8125,4.8262,4.8737,4.8913,4.8913,5.2895,5.2895,5.2895,5.2895,5.2895,5.2895,5.2895,5.2895,5.2895,5.2895,5.2895,5.2895,5.2895,5.2895,5.2895,5.2895,5.2895,5.2895,5.2895,5.2895,5.2895,5.2895,5.2895,5.2895,5.2895,5.2895,5.2468,5.1649,5.195,5.1674,5.082,5.082,5.0971,5.1247,5.0645,5.0393,5.0361,5.0092,4.9816,4.959,4.959,4.9741,4.9967,4.9967,5.0142,5.0368,5.0368,5.0368,5.0419,5.072,5.0619,5.0469,5.1096,5.0904,5.0368,5.0368,4.9992,4.964,4.9891,4.9967,5.0042,5.0293,5.0368,5.0368,5.0368,5.0167,4.9967,4.9967,4.9967,4.9967,4.9967,4.9967,5.0067,5.0336,4.9967,4.969,4.9992,4.9791,4.969,4.9941,5.0469,5.0921,5.1172,5.1473,5.0891,4.9014,4.7994,0.0,4.3626,4.283,4.1949,4.0859,4.1093,4.1308,4.1465,4.2266,4.334,4.4687,4.5351,4.5898,4.6308,4.6308,4.6308,4.6308,4.6308,4.6308,4.6328,4.6714,4.6889,4.6967,4.7871,4.8203,4.8262,4.8737,4.8913,4.8913,5.2895,5.2895,5.2895,5.2895,5.2895,5.2895,5.2895,5.2895,5.2895,5.2895,5.2895,5.2895,5.2895,5.2895,5.2895,5.2895,5.2895,5.2895,5.2895,5.2895,5.2895,5.2895,5.2895,5.2895,5.2895,5.2895,5.2619,5.2101,5.2176,5.195,5.1398,5.1498,5.1523,5.1523,5.1448,5.1122,5.0637,5.0569,5.0268,4.9841,4.9841,5.0117,5.0544,5.0544,5.0845,5.1306,5.1306,5.1348,5.1398,5.1398,5.1398,5.1423,5.1498,5.1423,5.1322,5.1473,5.072,4.9967,5.0419,5.0544,5.067,5.1147,5.1306,5.1306,5.1306,5.0896,5.0544,5.0544,5.0544,5.0544,5.0544,5.0436,5.0386,5.0386,4.9967,4.959,4.959,0.0,4.9791,5.0343,5.0921,5.1498,5.2051,5.2176,5.1563,4.9948,4.793,4.5989,4.414,4.251,4.1541,4.1308,4.1308,4.1543,4.209,4.3223,4.4258,4.5117,4.5566,4.5957,4.6308,4.6308,4.6308,4.6308,4.6308,4.6308,4.6328,4.6714,4.685,4.6914,4.7773,4.8105,4.8164,4.864,4.8855,4.8913,5.2895,5.2895,5.2895,5.2895,5.2895,5.2895,5.2895,5.2895,5.2895,5.2895,5.2895,5.2895,5.2895,5.2895,5.2895,5.2895,5.2895,5.2895,5.2895,5.2895,5.2895,5.2895,5.2895,5.2895,5.2895,5.2895,5.2619,5.2101,5.2544,5.2528,5.2,5.2452,5.2644,5.2619,5.2176,5.1925,5.1825,5.1348,5.1096,5.1054,5.1054,5.1105,5.1147,5.1147,5.1197,5.1306,5.1306,5.1574,5.1975,5.1975,5.1975,5.2051,5.2528,5.2026,5.1473,5.2402,5.1875,5.1046,5.1122,5.1147,5.1172,5.128,5.1306,5.1306,5.1306,5.1222,5.1147,5.1147,5.1147,5.1147,5.1147,5.0745,5.0386,5.0386,4.9967,4.959,4.959,0.0,4.9791,5.0343,5.0921,5.1498,5.2051,5.2528,5.2666,5.2341,5.0502,4.8534,4.6551,4.4672,4.3068,4.1758,4.1699,4.2246,4.3398,4.3984,4.4726,4.5586,4.5996,4.623,4.6308,4.6308,4.6308,4.6308,4.6308,4.6308,4.6328,4.6714,4.6719,4.6484,4.7344,4.7676,4.7734,4.8144,4.8535,4.8913,5.2895,5.3121,5.3256,5.2945,5.3121,5.3221,5.2945,5.2895,5.2895,5.2895,5.2895,5.2895,5.2895,5.2895,5.2895,5.2895,5.2895,5.2895,5.2895,5.2895,5.2895,5.2895,5.2895,5.2895,5.2895,5.2895,5.277,5.2519,5.277,5.277,5.2519,5.277,5.2895,5.2895,5.2619,5.2377,5.2076,5.1825,5.1548,5.1306,5.1306,5.1448,5.1724,5.1724,5.19,5.2176,5.2176,5.2327,5.2519,5.2519,5.2519,5.2544,5.282,5.2544,5.2277,5.2744,5.2352,5.1724,5.1724,5.1724,5.18,5.2101,5.2176,5.2176,5.2176,5.195,5.1724,5.1724,5.1724,5.1724,5.1724,5.1272,5.0971,5.1272,5.0343,4.969,4.9992,5.0042,5.0243,5.082,5.1373,5.195,5.2503,5.2744,5.2895,5.2895,5.0318,4.8237,4.7051,4.4365,4.262,4.2129,4.2363,4.2891,4.3691,4.4394,4.5058,4.5683,4.6113,4.6308,4.6308,4.6308,4.6308,4.6308,4.6308,4.6308,4.6328,4.6714,4.6772,4.6699,4.7324,4.7715,4.7949,4.8125,4.8476,4.8913,5.2895,5.3356,5.3532,5.2995,5.3356,5.3532,5.297,5.2895,5.2895,5.2895,5.2995,5.3071,5.3071,5.3196,5.3256,5.3096,5.3071,5.302,5.2895,5.2895,5.2895,5.2895,5.2895,5.2895,5.2895,5.2895,5.2895,5.2895,5.2895,5.2895,5.2895,5.2895,5.2895,5.2895,5.2895,5.2644,5.2302,5.2302,5.2051,5.1649,5.1649,5.1925,5.2302,5.2302,5.2519,5.2895,5.2895,5.2895,5.2895,5.2895,5.2895,5.2895,5.2895,5.2895,5.2895,5.2895,5.2594,5.2302,5.2302,5.2302,5.2368,5.2795,5.2895,5.2895,5.2895,5.2569,5.2302,5.2302,5.2302,5.2302,5.2302,5.185,5.1574,5.1875,0.0,5.0092,5.0336,5.0519,5.082,5.1398,5.185,5.2327,5.2845,5.2895,5.2748,5.2397,4.9461,4.7418,4.6668,4.3633,4.2129,4.2558,4.3105,4.3594,4.4004,4.4785,4.5391,4.582,4.6152,4.6308,4.6308,4.6308,4.6308,4.6308,4.6308,4.6308,4.6328,4.6714,4.6831,4.6836,4.7383,4.7715,4.793,4.8125,4.8418,4.8776,5.2895,5.3356,5.3532,5.2995,5.3356,5.3532,5.297,5.2895,5.2895,5.2895,5.3356,5.3632,5.3632,5.4135,5.427,5.3683,5.3632,5.3432,5.292,5.2895,5.2895,5.2895,5.2895,5.2895,5.2895,5.2895,5.2895,5.2895,5.2895,5.2895,5.2895,5.2895,5.2895,5.2895,5.2895,5.287,5.2845,5.2845,5.282,5.277,5.277,5.2795,5.2845,5.2845,5.287,5.2895,5.2895,5.2895,5.2895,5.2895,5.2895,5.2895,5.2895,5.2895,5.2895,5.2895,5.287,5.2845,5.2845,5.2845,5.2845,5.2895,5.2895,5.2895,5.2895,5.287,5.2845,5.2845,5.2845,5.2845,5.2845,5.2427,5.19,5.1423,0.0,0.0,5.0494,5.087,5.1423,5.1975,5.2076,5.2327,5.2845,5.2895,5.2317,5.0866,4.8878,4.7069,4.5609,4.3518,4.2578,4.3008,4.3867,4.4492,4.4879,4.5391,4.584,4.625,4.6289,4.6308,4.6308,4.6308,4.6308,4.6308,4.6308,4.6308,4.6328,4.6714,4.6699,4.6426,4.7266,4.7344,4.7084,4.791,4.8223,4.832,5.2945,5.3632,5.3959,5.3046,5.3356,5.3532,5.297,5.3171,5.3406,5.3406,5.3884,5.4145,5.3733,5.3909,5.3808,5.3246,5.3196,5.313,5.2895,5.2895,5.2895,5.2895,5.2895,5.2895,5.2895,5.2895,5.2895,5.2895,5.2895,5.2895,5.2895,5.2895,5.2895,5.2895,5.2895,5.2895,5.2895,5.2895,5.2895,5.2895,5.2895,5.2895,5.2895,5.2895,5.2895,5.2895,5.2895,5.2895,5.2895,5.2895,5.2895,5.2945,5.3306,5.3406,5.3406,5.3406,5.3406,5.3406,5.3406,5.3146,5.2895,5.2895,5.2895,5.2895,5.2895,5.2895,5.2895,5.2895,5.2895,5.2895,5.2895,5.2477,5.2151,5.2277,0.0,5.1322,5.1448,5.1649,5.1875,5.2076,5.2402,5.2669,5.287,5.2895,5.2247,5.0734,4.9028,4.7307,4.5502,4.3779,4.291,4.3066,4.3945,4.459,4.5019,4.5195,4.5625,4.6308,4.6308,4.6308,4.6308,4.6308,4.6308,4.6308,4.6308,4.6308,4.6308,4.6465,4.6445,4.6367,4.6953,4.7246,4.7402,4.7988,4.8379,4.8679,5.297,5.3658,5.4009,5.3046,5.3507,5.3783,5.3256,5.3457,5.3758,5.3959,5.4346,5.4522,5.426,5.4386,5.4285,5.3723,5.3708,5.3632,5.3457,5.3281,5.3071,5.2895,5.2895,5.2895,5.2895,5.2895,5.2895,5.2895,5.2895,5.2895,5.2895,5.2895,5.2895,5.2895,5.2895,5.2895,5.2895,5.2895,5.2895,5.2895,5.2895,5.2895,5.2895,5.2895,5.2895,5.2895,5.2895,5.2895,5.2895,5.2895,5.2995,5.3231,5.3582,5.3833,5.3959,5.3959,5.3959,5.3959,5.3959,5.3708,5.3432,5.3432,5.3306,5.3146,5.3146,5.3306,5.3381,5.3171,5.3306,5.3432,5.3432,5.313,5.2879,5.2895,5.2427,5.2051,5.2101,5.2251,5.2427,5.2578,5.2929,5.3256,5.3432,5.2814,5.1797,5.0236,4.853,4.6785,4.4956,4.3857,4.3281,4.3281,4.3867,4.4394,4.4824,4.5098,4.5586,4.6308,4.6308,4.6308,4.6308,4.6308,4.6308,4.6308,4.6308,4.6308,4.6308,4.6445,4.6426,4.6367,4.7051,4.7344,4.7461,4.8144,4.8516,4.8718,5.2895,5.3356,5.3557,5.2995,5.3833,5.4421,5.3808,5.3708,5.3909,5.4522,5.4622,5.4823,5.534,5.5867,5.5993,5.544,5.539,5.5175,5.4622,5.4034,5.3482,5.292,5.2895,5.2895,5.2895,5.2895,5.2895,5.2895,5.2895,5.2895,5.2895,5.2895,5.2895,5.2895,5.2895,5.2895,5.2895,5.2895,5.2895,5.2895,5.2895,5.2895,5.2895,5.2895,5.2895,5.2895,5.2895,5.2895,5.2895,5.2895,5.3281,5.3708,5.3708,5.411,5.4622,5.4622,5.4622,5.4622,5.4622,5.4622,5.4597,5.4597,5.4135,5.3708,5.3708,5.4195,5.4446,5.3833,5.4195,5.4597,5.4597,5.4597,5.4245,5.3096,5.3381,5.3331,5.2277,5.2569,5.3096,5.3658,5.3708,5.3934,5.4547,5.2647,5.0774,4.924,4.7176,4.5327,4.3815,4.3711,4.3711,4.3711,4.3711,4.3926,4.4394,4.5254,4.5879,4.6289,4.6308,4.6308,4.6308,4.6308,4.6308,4.6308,4.6308,4.6308,4.6328,4.6714,4.668,4.6426,4.7695,4.7676,4.7045,4.8424,4.864,4.8281,5.3457,5.3934,5.4295,5.4145,5.4371,5.4547,5.4371,5.4637,5.4938,5.5114,5.5491,5.5641,5.5415,5.5541,5.5415,5.4898,5.4848,5.4773,5.4622,5.4446,5.427,5.4084,5.3331,5.2895,5.2895,5.2895,5.2895,5.2895,5.2895,5.2895,5.2895,5.2895,5.2895,5.2895,5.2895,5.2895,5.2895,5.2895,5.2895,5.2895,5.2895,5.2895,5.2895,5.2895,5.2895,5.2895,5.2895,5.2895,5.2945,5.3356,5.3582,5.3833,5.4637,5.5265,5.5717,5.5717,5.544,5.5315,5.6093,5.544,5.4597,5.4597,5.4471,5.4346,5.4346,5.4471,5.4547,5.4371,5.4773,5.5074,5.4672,5.4924,5.4949,5.4185,5.4245,5.422,5.3919,5.3984,5.4135,5.4321,5.4346,5.4421,5.4572,5.2647,5.09,4.9695,4.6901,4.4963,4.4241,4.4473,4.4492,4.4199,4.4199,4.4394,4.4824,4.5098,4.543,4.5859,4.6152,4.6308,4.6308,4.6308,4.6308,4.6308,4.6308,4.6308,4.6308,4.6445,4.6426,4.6406,4.7383,4.7617,4.75,4.8542,4.8815,4.8718,5.3708,5.4195,5.4597,5.4597,5.4773,5.4999,5.5189,5.5315,5.5541,5.5993,5.5942,5.5842,5.5717,5.5717,5.5591,5.5239,5.5214,5.5114,5.4949,5.4924,5.4823,5.4622,5.3934,5.3457,5.3231,5.2995,5.2895,5.2895,5.2895,5.2995,5.3196,5.2995,5.2995,5.3196,5.2995,5.2895,5.2895,5.2895,5.2895,5.2895,5.2895,5.2895,5.2895,5.2895,5.2895,5.292,5.3121,5.3231,5.3306,5.3858,5.4185,5.4536,5.544,5.5942,5.6244,5.6433,5.6294,5.6244,5.7123,5.6646,5.5929,5.5929,5.5426,5.4924,5.4924,5.5239,5.5491,5.5265,5.5842,5.6219,5.5641,5.5993,5.6043,5.5099,5.5064,5.5064,5.4672,5.4798,5.4999,5.5225,5.5214,5.539,5.5878,5.2987,5.0197,4.8055,4.6095,4.4879,4.4668,4.4883,4.4902,4.4648,4.4648,4.4766,4.4977,4.5195,4.541,4.5683,4.5937,4.6152,4.6308,4.6308,4.6308,4.6308,4.6308,4.6308,4.6308,4.6308,4.6308,4.6367,4.7051,4.7422,4.7656,4.834,4.8757,4.8913,5.3683,5.4195,5.4622,5.4672,5.5125,5.5641,5.6143,5.5792,5.5817,5.6784,5.6093,5.5666,5.6219,5.6294,5.6294,5.6369,5.6369,5.6143,5.5641,5.5616,5.5365,5.4848,5.4773,5.4471,5.3858,5.3331,5.3046,5.3046,5.3046,5.3306,5.3758,5.3306,5.3331,5.3758,5.3196,5.297,5.297,5.292,5.2895,5.2895,5.2895,5.2895,5.2895,5.2895,5.2895,5.297,5.3507,5.3708,5.3808,5.4471,5.5074,5.5616,5.6118,5.6319,5.647,5.6985,5.7111,5.7211,5.7876,5.7976,5.7901,5.7951,5.6796,5.5616,5.5616,5.6394,5.6935,5.647,5.7223,5.7801,5.7186,5.7575,5.7449,5.5867,5.6043,5.6018,5.5049,5.5326,5.5792,5.6294,5.6369,5.6771,5.7801,5.3568,4.9235,4.5614,4.5202,4.5074,4.5035,4.5035,4.5035,4.5035,4.4996,4.4996,4.5035,4.543,4.5688,4.5727,4.5766,4.5937,4.6308,4.6308,4.6308,4.6308,4.6308,4.6308,4.6308,4.6308,4.6308,4.6348,4.6714,4.7168,4.7578,4.8027,4.8437,4.8796,5.3632,5.4195,5.4748,5.5139,5.5666,5.6068,5.6194,5.6118,5.6118,5.6369,5.6168,5.6244,5.6759,5.6809,5.7047,5.7499,5.7524,5.7474,5.7374,5.7349,5.7097,5.652,5.6093,5.5591,5.5039,5.4522,5.4245,5.4245,5.4245,5.4295,5.4421,5.4295,5.4295,5.4396,5.3783,5.3532,5.3507,5.3071,5.2895,5.2895,5.2895,5.2895,5.2895,5.2895,5.2895,5.297,5.3507,5.3708,5.3858,5.4863,5.5867,5.6659,5.6784,5.7173,5.765,5.8164,5.8052,5.7926,5.888,5.8529,5.8001,5.8428,5.7951,5.7349,5.7349,5.7549,5.7675,5.7549,5.8077,5.8378,5.7826,5.8177,5.8278,5.7499,5.7449,5.7449,5.7198,5.7273,5.7399,5.7524,5.7524,5.7625,5.7876,5.4163,5.0756,4.8295,4.6835,4.5879,4.5547,4.5527,4.5527,4.5527,4.5195,4.5195,4.5527,4.5293,4.5332,4.5683,4.6016,4.6211,4.6308,4.6308,4.6308,4.6308,4.6308,4.6308,4.6308,4.6308,4.6308,4.6348,4.6714,4.6948,4.7168,4.793,4.8066,4.7955,5.3658,5.4386,5.5074,5.534,5.5842,5.6394,5.6947,5.6771,5.6759,5.7311,5.7173,5.7123,5.7424,5.7161,5.7111,5.7449,5.775,5.7901,5.7901,5.7901,5.775,5.7449,5.7173,5.6872,5.6595,5.6043,5.5365,5.4597,5.4597,5.4723,5.4999,5.4723,5.4748,5.4949,5.4084,5.3858,5.4084,5.3532,5.3457,5.3708,5.3708,5.3708,5.3708,5.3708,5.3708,5.3783,5.431,5.4687,5.5064,5.6194,5.6771,5.7035,5.7336,5.765,5.8001,5.8554,5.8504,5.8478,5.9282,5.9081,5.873,5.9006,5.888,5.8529,5.8027,5.8102,5.8303,5.8303,5.8704,5.893,5.8378,5.873,5.883,5.8027,5.8127,5.8202,5.7951,5.8127,5.8303,5.8303,5.8303,5.7429,5.5323,5.3526,5.1162,4.7943,4.6848,4.6211,4.5996,4.5976,4.5976,4.5976,4.5762,4.5742,4.5976,4.5742,4.5742,4.5976,4.5996,4.6113,4.6308,4.6308,4.6308,4.6308,4.6308,4.6308,4.6308,4.6308,4.6308,4.6328,4.6543,4.6714,4.6948,4.7396,4.7598,4.7637,5.3708,5.4612,5.539,5.539,5.5917,5.6671,5.76,5.7424,5.7487,5.8453,5.8177,5.7926,5.8027,5.7663,5.7412,5.7412,5.7901,5.8177,5.8177,5.8177,5.8127,5.8052,5.8052,5.8001,5.7901,5.7387,5.652,5.5175,5.4974,5.5175,5.5666,5.5114,5.5125,5.5491,5.4461,5.426,5.4697,5.411,5.4135,5.4597,5.4597,5.4597,5.4597,5.4597,5.4597,5.4672,5.5225,5.5792,5.652,5.7549,5.765,5.7361,5.7901,5.8102,5.8252,5.873,5.8855,5.8956,5.9382,5.9558,5.9633,5.9633,5.9709,5.9533,5.8529,5.8604,5.8855,5.8855,5.9207,5.9382,5.9056,5.9257,5.9257,5.8579,5.8679,5.873,5.8353,5.8629,5.8855,5.8855,5.8855,5.7407,5.3733,5.3084,5.1407,4.7707,4.6726,4.6308,4.6308,4.623,4.623,4.6308,4.623,4.623,4.6308,4.6308,4.6308,4.6289,4.5957,4.5976,4.6308,4.6308,4.6308,4.6308,4.6308,4.6308,4.6308,4.6308,4.6308,4.6308,4.6308,4.6504,4.6816,4.6816,4.7148,4.7617,5.3708,5.4612,5.539,5.539,5.6244,5.6935,5.7085,5.7499,5.7826,5.8001,5.7951,5.8077,5.8554,5.893,5.9156,5.9156,5.9232,5.9282,5.9282,5.9282,5.9081,5.8591,5.8604,5.8378,5.7901,5.7826,5.7675,5.7449,5.647,5.6269,5.6759,5.6244,5.6018,5.6068,5.544,5.5214,5.5239,5.4723,5.4522,5.4597,5.4597,5.4597,5.4597,5.4597,5.4597,5.4672,5.5225,5.6043,5.6985,5.7675,5.8152,5.8466,5.8541,5.8905,5.9282,5.9357,5.9382,5.9408,5.9483,5.9834,6.0211,6.0211,6.0588,6.0788,6.0136,5.9684,5.9382,5.9382,5.9433,5.9608,6.0035,5.9759,5.9759,6.0613,5.9985,5.9533,5.9935,5.9659,5.9382,5.9382,5.9382,5.915,5.8557,5.5101,5.2632,5.2052,4.8462,4.6308,4.6308,4.5957,4.5918,4.6289,4.5957,4.5937,4.6289,4.6308,4.6308,4.6308,4.625,4.625,4.6308,4.6308,4.6308,4.6308,4.6308,4.6308,4.6308,4.6308,4.6308,4.6308,4.6308,4.6328,4.6387,4.6387,4.6894,4.7539,5.3632,5.4361,5.5114,5.5742,5.6483,5.7211,5.7838,5.8202,5.8453,5.8755,5.878,5.888,5.9131,5.9357,5.9382,5.9081,5.9332,5.9483,5.9483,5.9483,5.9382,5.9156,5.9156,5.9031,5.8805,5.8504,5.8504,5.878,5.77,5.7123,5.6985,5.6759,5.6483,5.6194,5.5641,5.5566,5.5817,5.5265,5.5225,5.5491,5.5491,5.5491,5.5516,5.5817,5.5942,5.6068,5.6947,5.7374,5.765,5.8504,5.8755,5.8792,5.9394,5.9759,6.001,6.0337,6.0437,6.0437,6.0437,6.0613,6.0788,6.0788,6.0989,6.1115,6.0864,6.0613,6.0337,6.0035,6.0211,6.0512,6.0763,6.0613,6.0588,6.109,6.0487,6.0035,6.0286,5.9834,5.9483,5.9483,5.9483,5.8993,5.777,5.5895,5.3702,5.124,4.9254,4.7598,4.6376,4.6133,4.6113,4.6289,4.6113,4.6113,4.6308,4.6074,4.5957,4.5957,4.5703,4.584,4.6308,4.6308,4.6308,4.6308,4.6308,4.6308,4.6308,4.6308,4.6308,4.6308,4.6308,4.6308,4.6308,4.6308,4.6543,4.6875]},{"header":{"parameterUnit":"m.s-1","parameterCategory":1,"la1":30.6,"la2":28.766,"lo1":-90.7593,"lo2":-88.6598,"dy":0.0162,"dx":0.0183,"nx":116,"ny":114,"refTime":"2023-11-14T06:00:00:Z","depth":0,"parameterNumber":3,"parameterNumberName":"V-component_of_WINDS"},"data":[0.0,0.0,0.0,0.0,0.0,0.0,0.0,0.0,0.0,0.0,0.0,0.0,0.0,0.0,0.0,0.0,0.0,0.0,0.0,0.0,0.0,0.0,0.0,0.0,0.0,0.0,0.0,0.0,0.0,0.0,0.0,0.0,0.0,0.0,0.0,0.0,0.0,0.0,0.0,0.0,0.0,0.0,0.0,0.0,0.0,0.0,0.0,0.0,0.0,0.0,0.0,0.0,0.0,0.0,0.0,0.0,0.0,0.0,0.0,0.0,0.0,0.0,0.0,0.0,0.0,0.0,0.0,0.0,0.0,0.0,0.0,0.0,0.0,0.0,0.0,0.0,0.0,0.0,0.0,0.0,0.0,0.0,0.0,0.0,0.0,0.0,0.0,0.0,0.0,0.0,0.0,0.0,0.0,0.0,0.0,0.0,0.0,0.0,0.0,0.0,0.0,0.0,0.0,0.0,0.0,0.0,0.0,0.0,0.0,0.0,0.0,0.0,0.0,0.0,0.0,0.0,0.0,0.0,0.0,0.0,0.0,0.0,0.0,0.0,0.0,0.0,0.0,0.0,0.0,0.0,0.0,0.0,0.0,0.0,0.0,0.0,0.0,0.0,0.0,0.0,0.0,0.0,0.0,0.0,0.0,0.0,0.0,0.0,0.0,0.0,0.0,0.0,0.0,0.0,0.0,0.0,0.0,0.0,0.0,0.0,0.0,0.0,0.0,0.0,0.0,0.0,0.0,0.0,0.0,0.0,0.0,0.0,0.0,0.0,0.0,0.0,0.0,0.0,0.0,0.0,0.0,0.0,0.0,0.0,0.0,0.0,0.0,0.0,0.0,0.0,0.0,0.0,0.0,0.0,0.0,0.0,0.0,0.0,0.0,0.0,0.0,0.0,0.0,0.0,0.0,0.0,0.0,0.0,0.0,0.0,0.0,0.0,0.0,0.0,0.0,0.0,0.0,0.0,0.0,0.0,0.0,0.0,0.0,0.0,0.0,0.0,0.0,0.0,0.0,0.0,0.0,0.0,0.0,0.0,0.0,0.0,0.0,0.0,0.0,0.0,0.0,0.0,0.0,0.0,0.0,0.0,0.0,0.0,0.0,0.0,0.0,0.0,0.0,0.0,0.0,0.0,0.0,0.0,0.0,0.0,0.0,0.0,0.0,0.0,0.0,0.0,0.0,0.0,0.0,0.0,0.0,0.0,0.0,0.0,0.0,0.0,0.0,0.0,0.0,0.0,0.0,0.0,0.0,0.0,0.0,0.0,0.0,0.0,0.0,0.0,0.0,0.0,0.0,0.0,0.0,0.0,0.0,0.0,0.0,0.0,0.0,0.0,0.0,0.0,0.0,0.0,0.0,0.0,0.0,0.0,0.0,0.0,0.0,0.0,0.0,0.0,0.0,0.0,0.0,0.0,0.0,0.0,0.0,0.0,0.0,0.0,0.0,0.0,0.0,0.0,0.0,0.0,0.0,0.0,0.0,0.0,0.0,0.0,0.0,0.0,0.0,0.0,0.0,0.0,0.0,0.0,0.0,0.0,0.0,0.0,0.0,0.0,0.0,0.0,0.0,0.0,0.0,0.0,0.0,0.0,0.0,0.0,0.0,0.0,0.0,0.0,0.0,0.0,0.0,0.0,0.0,0.0,0.0,0.0,0.0,0.0,0.0,0.0,0.0,0.0,0.0,0.0,0.0,0.0,0.0,0.0,0.0,0.0,0.0,0.0,0.0,0.0,0.0,0.0,0.0,0.0,0.0,0.0,0.0,0.0,0.0,0.0,0.0,0.0,0.0,0.0,0.0,0.0,0.0,0.0,0.0,0.0,0.0,0.0,0.0,0.0,0.0,0.0,0.0,0.0,0.0,0.0,0.0,0.0,0.0,0.0,0.0,0.0,0.0,0.0,0.0,0.0,0.0,0.0,0.0,0.0,0.0,0.0,0.0,0.0,0.0,0.0,0.0,0.0,0.0,0.0,0.0,0.0,0.0,0.0,0.0,0.0,0.0,0.0,0.0,0.0,0.0,0.0,0.0,0.0,0.0,0.0,0.0,0.0,0.0,0.0,0.0,0.0,0.0,0.0,0.0,0.0,0.0,0.0,0.0,0.0,0.0,0.0,0.0,0.0,0.0,0.0,0.0,0.0,0.0,0.0,0.0,0.0,0.0,0.0,0.0,0.0,0.0,0.0,0.0,0.0,0.0,0.0,0.0,0.0,0.0,0.0,0.0,0.0,0.0,0.0,0.0,0.0,0.0,0.0,0.0,0.0,0.0,0.0,0.0,0.0,0.0,0.0,0.0,0.0,0.0,0.0,0.0,0.0,0.0,0.0,0.0,0.0,0.0,0.0,0.0,0.0,0.0,0.0,0.0,0.0,0.0,0.0,0.0,0.0,0.0,0.0,0.0,0.0,0.0,0.0,0.0,0.0,0.0,0.0,0.0,0.0,0.0,0.0,0.0,0.0,0.0,0.0,0.0,0.0,0.0,0.0,0.0,0.0,0.0,0.0,0.0,0.0,0.0,0.0,0.0,0.0,0.0,0.0,0.0,0.0,0.0,0.0,0.0,0.0,0.0,0.0,0.0,0.0,0.0,0.0,0.0,0.0,0.0,0.0,0.0,0.0,0.0,0.0,0.0,0.0,0.0,0.0,0.0,0.0,0.0,0.0,0.0,0.0,0.0,0.0,0.0,0.0,0.0,0.0,0.0,0.0,0.0,0.0,0.0,0.0,0.0,0.0,0.0,0.0,0.0,0.0,0.0,0.0,0.0,0.0,0.0,0.0,0.0,0.0,0.0,0.0,0.0,0.0,0.0,0.0,0.0,0.0,0.0,0.0,0.0,0.0,0.0,0.0,0.0,0.0,0.0,0.0,0.0,0.0,0.0,0.0,0.0,0.0,0.0,0.0,0.0,0.0,0.0,0.0,0.0,0.0,0.0,0.0,0.0,0.0,0.0,0.0,0.0,0.0,0.0,0.0,0.0,0.0,0.0,0.0,0.0,0.0,0.0,0.0,0.0,0.0,0.0,0.0,0.0,0.0,0.0,0.0,0.0,0.0,0.0,0.0,0.0,0.0,0.0,0.0,0.0,0.0,0.0,0.0,0.0,0.0,0.0,0.0,0.0,0.0,0.0,0.0,0.0,0.0,0.0,0.0,0.0,0.0,0.0,0.0,0.0,0.0,0.0,0.0,0.0,0.0,0.0,0.0,0.0,0.0,0.0,0.0,0.0,0.0,0.0,0.0,0.0,0.0,0.0,0.0,0.0,0.0,0.0,0.0,0.0,0.0,0.0,0.0,0.0,0.0,0.0,0.0,0.0,0.0,0.0,0.0,0.0,0.0,0.0,0.0,0.0,0.0,0.0,0.0,0.0,0.0,0.0,0.0,0.0,0.0,0.0,0.0,0.0,0.0,0.0,0.0,0.0,0.0,0.0,0.0,0.0,0.0,0.0,0.0,0.0,0.0,0.0,0.0,0.0,0.0,0.0,0.0,0.0,0.0,0.0,0.0,0.0,0.0,0.0,0.0,0.0,0.0,0.0,0.0,0.0,0.0,0.0,0.0,0.0,0.0,0.0,0.0,0.0,0.0,0.0,0.0,0.0,0.0,0.0,0.0,0.0,0.0,0.0,0.0,0.0,0.0,0.0,0.0,0.0,0.0,0.0,0.0,0.0,0.0,0.0,0.0,0.0,0.0,0.0,0.0,0.0,0.0,0.0,0.0,0.0,0.0,0.0,0.0,0.0,0.0,0.0,0.0,0.0,0.0,0.0,0.0,0.0,0.0,0.0,0.0,0.0,0.0,0.0,0.0,0.0,0.0,0.0,0.0,0.0,0.0,0.0,0.0,0.0,0.0,0.0,0.0,0.0,0.0,0.0,0.0,0.0,0.0,0.0,0.0,0.0,0.0,0.0,0.0,0.0,0.0,0.0,0.0,0.0,0.0,0.0,0.0,0.0,0.0,0.0,0.0,0.0,0.0,0.0,0.0,0.0,0.0,0.0,0.0,0.0,0.0,0.0,0.0,0.0,0.0,0.0,0.0,0.0,0.0,0.0,0.0,0.0,0.0,0.0,0.0,0.0,0.0,0.0,0.0,0.0,0.0,0.0,0.0,0.0,0.0,0.0,0.0,0.0,0.0,0.0,0.0,0.0,0.0,0.0,0.0,0.0,0.0,0.0,0.0,0.0,0.0,0.0,0.0,0.0,0.0,0.0,0.0,0.0,0.0,0.0,0.0,0.0,0.0,0.0,0.0,0.0,0.0,0.0,0.0,0.0,0.0,0.0,0.0,0.0,0.0,0.0,0.0,0.0,0.0,0.0,0.0,0.0,0.0,0.0,0.0,0.0,0.0,0.0,0.0,0.0,0.0,0.0,0.0,0.0,0.0,0.0,0.0,0.0,0.0,0.0,0.0,0.0,0.0,0.0,0.0,0.0,0.0,0.0,0.0,0.0,0.0,0.0,0.0,0.0,0.0,0.0,0.0,0.0,0.0,0.0,0.0,0.0,0.0,0.0,0.0,0.0,0.0,0.0,0.0,0.0,0.0,0.0,0.0,0.0,0.0,0.0,0.0,0.0,0.0,0.0,0.0,0.0,0.0,0.0,0.0,0.0,0.0,0.0,0.0,0.0,0.0,0.0,0.0,0.0,0.0,0.0,0.0,0.0,0.0,0.0,0.0,0.0,0.0,0.0,0.0,0.0,0.0,0.0,0.0,0.0,0.0,0.0,0.0,0.0,0.0,0.0,0.0,0.0,0.0,0.0,0.0,0.0,0.0,0.0,0.0,0.0,0.0,0.0,0.0,0.0,0.0,0.0,0.0,0.0,0.0,0.0,0.0,0.0,0.0,0.0,0.0,0.0,0.0,0.0,0.0,0.0,0.0,0.0,0.0,0.0,0.0,0.0,0.0,0.0,0.0,0.0,0.0,0.0,0.0,0.0,0.0,0.0,0.0,0.0,0.0,0.0,0.0,0.0,0.0,0.0,0.0,0.0,0.0,0.0,0.0,0.0,0.0,0.0,0.0,0.0,0.0,0.0,0.0,0.0,0.0,0.0,0.0,0.0,0.0,0.0,0.0,0.0,0.0,0.0,0.0,0.0,0.0,0.0,0.0,0.0,0.0,0.0,0.0,0.0,0.0,0.0,0.0,0.0,0.0,0.0,0.0,0.0,0.0,0.0,0.0,0.0,0.0,0.0,0.0,0.0,0.0,0.0,0.0,0.0,0.0,0.0,0.0,0.0,0.0,0.0,0.0,0.0,0.0,0.0,0.0,0.0,0.0,0.0,0.0,0.0,0.0,0.0,0.0,0.0,0.0,0.0,0.0,0.0,0.0,0.0,0.0,0.0,0.0,0.0,0.0,0.0,0.0,0.0,0.0,0.0,0.0,0.0,0.0,0.0,0.0,0.0,0.0,0.0,0.0,0.0,0.0,0.0,0.0,0.0,0.0,0.0,0.0,0.0,0.0,0.0,0.0,0.0,0.0,0.0,0.0,0.0,0.0,0.0,0.0,0.0,0.0,0.0,0.0,0.0,0.0,0.0,0.0,0.0,0.0,0.0,0.0,0.0,0.0,0.0,0.0,0.0,0.0,0.0,0.0,0.0,0.0,0.0,0.0,0.0,0.0,0.0,0.0,0.0,0.0,0.0,0.0,0.0,0.0,0.0,0.0,0.0,0.0,0.0,0.0,0.0,0.0,0.0,0.0,0.0,0.0,0.0,0.0,0.0,0.0,0.0,0.0,0.0,0.0,0.0,0.0,0.0,0.0,0.0,0.0,0.0,0.0,0.0,0.0,0.0,0.0,0.0,0.0,0.0,0.0,0.0,0.0,0.0,0.0,0.0,0.0,0.0,0.0,0.0,0.0,0.0,0.0,0.0,0.0,0.0,0.0,0.0,0.0,0.0,0.0,0.0,0.0,0.0,0.0,0.0,0.0,0.0,0.0,0.0,0.0,0.0,0.0,0.0,0.0,0.0,0.0,0.0,0.0,0.0,0.0,0.0,0.0,0.0,0.0,0.0,0.0,0.0,0.0,0.0,0.0,0.0,0.0,0.0,0.0,0.0,0.0,0.0,0.0,0.0,0.0,0.0,0.0,0.0,0.0,0.0,0.0,4.458,4.2783,0.0,0.0,0.0,0.0,0.0,0.0,0.0,0.0,0.0,0.0,0.0,0.0,0.0,0.0,0.0,0.0,0.0,0.0,0.0,0.0,0.0,0.0,0.0,0.0,0.0,0.0,0.0,0.0,0.0,0.0,0.0,0.0,0.0,0.0,0.0,0.0,0.0,3.5611,3.5994,3.6738,3.7867,3.7775,3.7391,3.6693,0.0,0.0,0.0,0.0,0.0,0.0,0.0,0.0,0.0,0.0,0.0,0.0,0.0,0.0,0.0,0.0,0.0,0.0,0.0,0.0,0.0,0.0,0.0,0.0,0.0,0.0,0.0,0.0,0.0,0.0,0.0,0.0,0.0,0.0,0.0,0.0,0.0,0.0,0.0,0.0,0.0,0.0,0.0,0.0,0.0,0.0,0.0,0.0,0.0,0.0,0.0,0.0,0.0,0.0,0.0,0.0,0.0,0.0,0.0,0.0,0.0,0.0,0.0,0.0,0.0,0.0,0.0,0.0,0.0,0.0,4.7706,4.642,0.0,0.0,0.0,0.0,0.0,0.0,0.0,0.0,0.0,0.0,0.0,0.0,0.0,0.0,0.0,0.0,0.0,0.0,0.0,0.0,0.0,0.0,0.0,3.3413,3.4055,3.5678,3.5667,3.5667,0.0,0.0,0.0,0.0,0.0,0.0,3.5814,3.5814,3.6197,3.6987,3.7506,3.8577,4.0189,4.092,4.0616,3.9411,3.8633,0.0,0.0,0.0,0.0,0.0,0.0,0.0,0.0,0.0,0.0,0.0,0.0,0.0,0.0,0.0,0.0,0.0,0.0,0.0,0.0,0.0,0.0,0.0,0.0,0.0,0.0,0.0,0.0,0.0,0.0,0.0,0.0,0.0,0.0,0.0,0.0,0.0,0.0,0.0,0.0,0.0,0.0,0.0,0.0,0.0,0.0,0.0,0.0,0.0,0.0,0.0,0.0,0.0,0.0,0.0,0.0,0.0,0.0,0.0,0.0,0.0,0.0,0.0,5.3556,5.3856,5.2659,5.4008,5.4357,5.3766,5.1901,5.1296,5.1439,4.9604,0.0,0.0,0.0,0.0,0.0,0.0,0.0,0.0,0.0,0.0,0.0,0.0,0.0,0.0,0.0,0.0,0.0,0.0,0.0,3.1765,3.3254,3.3413,3.4269,3.6445,3.5983,3.5915,3.6615,0.0,0.0,0.0,0.0,3.5915,3.6615,3.6648,3.7021,3.7753,4.0324,4.2706,4.4823,4.5568,4.5805,4.5466,4.1555,4.0168,4.0629,0.0,0.0,0.0,0.0,0.0,0.0,0.0,0.0,0.0,0.0,0.0,0.0,0.0,0.0,0.0,0.0,0.0,0.0,0.0,0.0,0.0,0.0,0.0,0.0,0.0,0.0,0.0,0.0,0.0,0.0,0.0,0.0,0.0,0.0,0.0,0.0,0.0,0.0,0.0,0.0,0.0,4.1825,4.1096,0.0,0.0,0.0,0.0,0.0,0.0,0.0,0.0,0.0,0.0,0.0,0.0,0.0,4.7649,4.9396,5.2679,5.4162,5.3912,5.8463,5.976,5.8191,5.9567,6.0336,6.0548,6.0572,0.0,5.3597,5.3656,0.0,0.0,0.0,0.0,0.0,0.0,0.0,0.0,0.0,0.0,0.0,0.0,0.0,0.0,0.0,0.0,0.0,0.0,0.0,0.0,0.0,3.4539,3.5701,3.6728,3.7596,3.7765,3.6863,3.6874,0.0,0.0,3.6017,3.6445,3.6795,3.7224,3.8193,3.9737,4.3166,4.5345,4.6346,4.7496,4.8037,4.7936,4.5974,4.4364,4.301,4.1136,0.0,0.0,0.0,0.0,0.0,0.0,0.0,0.0,0.0,0.0,0.0,0.0,0.0,0.0,0.0,0.0,0.0,0.0,0.0,0.0,0.0,0.0,0.0,0.0,0.0,0.0,0.0,0.0,0.0,0.0,0.0,0.0,0.0,0.0,0.0,0.0,0.0,0.0,0.0,4.1194,4.2508,4.1022,4.1324,4.0786,0.0,0.0,0.0,0.0,0.0,0.0,0.0,0.0,0.0,4.9874,4.9664,5.1432,5.5472,5.7079,5.8626,6.0135,6.274,6.3423,6.2427,6.304,6.3389,6.3562,6.3753,6.2561,6.0436,5.8496,5.6111,5.3608,0.0,0.0,0.0,0.0,5.1319,5.1725,0.0,0.0,0.0,0.0,0.0,0.0,0.0,0.0,0.0,0.0,0.0,0.0,3.3592,3.5566,3.7021,3.7596,3.8983,3.9131,3.7472,3.7516,3.6997,3.5667,3.6366,3.6885,3.7088,3.8531,4.0379,4.2625,4.5805,4.7462,4.768,4.8951,4.956,4.956,4.956,4.824,4.5853,4.3789,4.1927,4.0303,0.0,0.0,0.0,0.0,0.0,0.0,0.0,0.0,0.0,0.0,0.0,0.0,0.0,0.0,0.0,0.0,0.0,0.0,0.0,0.0,0.0,0.0,0.0,0.0,0.0,0.0,0.0,0.0,0.0,0.0,0.0,0.0,0.0,0.0,0.0,0.0,0.0,4.2789,4.4471,4.194,4.4291,4.4594,0.0,0.0,0.0,0.0,0.0,0.0,4.7022,4.8923,5.1348,5.4295,5.3637,5.574,6.0976,6.1184,6.2619,6.5257,6.6348,6.6455,6.5692,6.5692,6.557,6.5404,6.5404,6.5619,6.5696,6.2144,5.9607,5.778,5.5886,5.4837,5.4363,5.4363,5.4566,5.4905,0.0,0.0,0.0,0.0,0.0,0.0,0.0,0.0,0.0,0.0,0.0,3.2835,3.428,3.5836,3.7664,3.977,3.9411,3.9017,3.8916,3.7596,3.6468,3.5633,3.6366,3.7122,3.7843,4.1326,4.4234,4.653,4.8105,4.9255,4.9947,5.0728,5.11,5.11,5.11,5.0642,4.9609,4.5988,4.4398,4.3992,4.0405,0.0,0.0,0.0,0.0,0.0,0.0,0.0,0.0,0.0,0.0,0.0,0.0,0.0,0.0,0.0,0.0,0.0,0.0,0.0,0.0,0.0,0.0,0.0,0.0,0.0,0.0,0.0,0.0,0.0,0.0,0.0,0.0,0.0,0.0,0.0,0.0,0.0,0.0,4.5533,5.0034,0.0,0.0,0.0,0.0,4.6749,4.9038,5.0893,5.1785,5.4179,5.7006,6.0253,5.9283,6.0614,6.4605,6.4818,6.561,6.7007,6.901,6.9192,6.7742,6.7742,6.737,6.6707,6.6707,6.6715,6.6487,6.3531,6.1806,6.0791,5.7848,5.6664,5.663,5.663,5.6206,5.5733,0.0,0.0,0.0,0.0,0.0,0.0,0.0,0.0,3.12,3.12,3.2655,3.3907,3.4449,3.7156,3.9051,3.9377,4.046,4.0506,3.9085,3.8058,3.7381,3.7099,3.6885,3.8036,4.0663,4.347,4.55,4.68,4.8748,4.983,5.0117,5.0829,5.1201,5.1201,5.1201,5.1066,5.0676,4.8376,4.6041,4.3673,4.1847,3.9965,0.0,0.0,0.0,0.0,0.0,0.0,0.0,0.0,0.0,0.0,0.0,0.0,0.0,0.0,0.0,0.0,0.0,0.0,0.0,0.0,0.0,0.0,0.0,0.0,0.0,0.0,0.0,0.0,0.0,0.0,0.0,0.0,0.0,0.0,0.0,0.0,0.0,4.8276,5.198,0.0,4.8554,4.9475,5.0364,5.0362,5.3448,5.5324,5.5345,5.8052,6.0228,6.152,6.1191,6.2622,6.6072,6.5373,6.5659,6.692,6.7668,6.7726,6.7184,6.6711,6.6609,6.6757,6.5797,6.5662,6.5933,6.3937,6.2936,6.2496,6.0486,5.937,5.8863,5.8389,5.8337,5.8423,0.0,0.0,0.0,0.0,0.0,0.0,0.0,3.12,3.1302,3.1539,3.3264,3.4686,3.5227,3.8149,3.9999,3.9749,4.1068,4.1115,3.9119,3.8294,3.7787,3.755,3.8002,3.9795,4.301,4.5297,4.6805,4.753,4.9018,4.9729,4.9729,4.9984,5.022,5.0457,5.0744,5.0845,5.0761,5.0051,4.7887,4.4843,4.3842,4.2252,4.0324,0.0,0.0,0.0,0.0,0.0,0.0,0.0,0.0,0.0,0.0,0.0,0.0,0.0,0.0,0.0,0.0,0.0,0.0,0.0,0.0,0.0,0.0,0.0,0.0,0.0,0.0,0.0,0.0,0.0,0.0,0.0,0.0,0.0,0.0,5.0136,5.3401,5.0321,5.5147,5.7027,5.2628,5.4113,5.5395,5.5462,5.8345,5.9897,5.9467,6.1969,6.3605,6.3976,6.3344,6.4326,6.7163,6.5902,6.5902,6.7184,6.7455,6.732,6.6791,6.6542,6.6576,6.6724,6.5493,6.5392,6.5933,6.4187,6.3646,6.3714,6.2245,6.1501,6.1163,6.0419,6.0317,6.0283,0.0,0.0,0.0,0.0,0.0,0.0,3.12,3.1234,3.1505,3.2226,3.3637,3.5159,3.666,3.8792,4.0371,4.1102,4.1123,4.0527,3.9073,3.8261,3.7516,3.6863,3.9681,4.232,4.4581,4.6752,4.8225,4.8951,4.8917,4.8917,4.8883,4.8157,4.8225,4.9018,4.9695,5.0049,5.0117,5.0829,4.9882,4.7819,4.6365,4.4877,4.3389,0.0,0.0,0.0,0.0,0.0,0.0,0.0,0.0,0.0,0.0,0.0,0.0,0.0,0.0,0.0,0.0,0.0,0.0,0.0,0.0,0.0,0.0,0.0,0.0,0.0,0.0,0.0,0.0,0.0,0.0,0.0,0.0,0.0,4.7666,5.2543,5.5099,5.1927,5.9923,6.3675,5.858,6.1372,6.3106,6.2049,6.3658,6.4547,6.42,6.588,6.7163,6.7818,6.6002,6.5924,6.7861,6.6645,6.6645,6.7895,6.8673,6.8267,6.6825,6.7523,6.7455,6.6757,6.6,6.6068,6.6588,6.4424,6.3917,6.441,6.2956,6.2854,6.3376,6.2618,6.1907,6.1061,0.0,0.0,0.0,0.0,0.0,0.0,3.12,3.164,3.2249,3.2983,3.4889,3.6513,3.7483,3.9085,4.018,4.0371,3.9918,3.9445,3.9039,3.7268,3.6625,3.755,4.092,4.3592,4.5365,4.6515,4.7192,4.7394,4.6887,4.6616,4.6616,4.6399,4.6974,4.8225,4.8394,4.8815,4.9323,4.9526,4.924,4.868,4.8274,4.7515,4.65,0.0,0.0,0.0,0.0,0.0,0.0,0.0,0.0,0.0,0.0,0.0,0.0,0.0,0.0,0.0,0.0,0.0,0.0,0.0,0.0,0.0,0.0,0.0,0.0,0.0,0.0,0.0,0.0,0.0,0.0,0.0,4.8211,5.0133,5.1199,5.6315,5.9762,5.9222,6.2785,6.4312,6.1897,6.3533,6.4403,6.3549,6.5315,6.6372,6.6284,6.7681,6.7877,6.6566,6.6889,6.7067,6.7096,6.6764,6.6764,6.7117,6.7332,6.7197,6.6791,6.644,6.6474,6.6724,6.5459,6.5324,6.5899,6.4783,6.4106,6.3714,6.2753,6.2516,6.2618,6.1873,6.1095,6.0283,0.0,0.0,0.0,0.0,0.0,0.0,3.12,3.1572,3.2317,3.3694,3.5284,3.6705,3.7775,3.8937,3.9389,3.8759,3.8611,3.8125,3.719,3.6772,3.7234,3.8768,4.1766,4.3829,4.4708,4.55,4.5887,4.5887,4.5128,4.4925,4.5229,4.4891,4.5553,4.6974,4.7278,4.8037,4.9018,4.9323,4.9627,4.9916,4.9916,4.9476,4.8698,4.753,4.7075,4.6955,4.5887,4.5819,4.5974,4.4776,0.0,0.0,0.0,0.0,0.0,0.0,0.0,0.0,0.0,0.0,0.0,0.0,0.0,0.0,0.0,0.0,0.0,0.0,0.0,0.0,0.0,0.0,0.0,0.0,5.1753,5.4126,5.5889,5.9075,6.1154,6.0931,6.4097,6.5666,6.4145,6.5699,6.6662,6.6274,6.7578,6.8273,6.8003,6.8674,6.8537,6.7313,6.7382,6.7231,6.6791,6.6791,6.6791,6.6791,6.6791,6.6791,6.6791,6.6373,6.6406,6.6724,6.5561,6.5493,6.6068,6.5019,6.4546,6.4343,0.0,0.0,0.0,0.0,6.1467,6.096,0.0,0.0,0.0,0.0,0.0,0.0,3.12,3.1336,3.2205,3.4336,3.534,3.6389,3.7741,3.8565,3.8374,3.6784,3.7359,3.6907,3.4889,3.6738,3.8599,4.018,4.2185,4.3355,4.3524,4.4161,4.4432,4.4344,4.3538,4.3538,4.4195,4.3504,4.3964,4.5452,4.621,4.7327,4.868,4.9492,5.0236,5.0829,5.0998,5.0744,5.015,4.939,4.9187,4.9086,4.7665,4.7259,4.7293,4.6481,0.0,0.0,0.0,0.0,0.0,0.0,0.0,0.0,0.0,0.0,0.0,0.0,0.0,0.0,0.0,0.0,0.0,0.0,0.0,0.0,0.0,0.0,0.0,0.0,5.6233,5.9317,6.077,6.1288,6.1201,6.011,6.4843,6.748,6.5812,6.7882,6.9312,6.9214,6.9824,6.9962,6.9447,6.9312,0.0,0.0,0.0,6.7129,6.7062,6.696,6.6927,6.6927,6.6927,6.6859,6.6791,6.6893,6.6859,6.6757,6.6203,6.6305,6.6825,6.5527,6.529,6.5751,6.4918,6.3802,6.2651,6.2651,6.2651,6.2516,0.0,0.0,0.0,0.0,0.0,0.0,3.12,3.2205,3.3548,3.5171,3.6591,3.7572,3.7877,3.8565,3.8125,3.6017,3.6569,3.6818,3.6378,3.7313,3.8824,4.0899,4.1982,4.3112,4.433,4.3876,4.3335,4.274,4.1982,4.1711,4.1847,4.1711,4.2408,4.3896,4.4668,4.55,4.6447,4.7752,4.8394,4.8631,4.983,5.0574,5.0913,5.0168,5.027,5.066,4.9763,5.0252,5.1014,4.9695,4.9255,4.8883,4.6786,4.5549,0.0,0.0,0.0,0.0,0.0,0.0,0.0,0.0,0.0,0.0,0.0,0.0,0.0,0.0,0.0,0.0,0.0,0.0,0.0,5.4737,5.7982,6.062,6.2314,6.3993,6.5166,6.5487,6.8055,6.9401,6.8531,6.9931,7.0387,6.928,6.9824,7.0411,7.0849,7.0299,7.0014,7.0014,6.9688,6.9248,6.8673,6.7996,6.7692,6.7692,6.7692,0.0,6.6825,6.7421,6.7354,6.6825,6.7286,6.7557,6.7658,6.7387,6.7015,6.6453,6.5121,6.4444,6.4174,6.4174,6.4174,6.3971,0.0,0.0,0.0,0.0,0.0,0.0,3.12,3.1833,3.2949,3.481,3.5723,3.6332,3.6693,3.7065,3.64,3.4134,3.4641,3.5566,3.6728,3.7833,3.9276,4.1136,4.1542,4.2117,4.2875,4.2151,4.1589,4.1183,4.0844,4.0641,4.0641,4.0641,4.1238,4.2341,4.3098,4.3842,4.464,4.6162,4.6805,4.6906,4.8003,4.8883,4.9645,5.0356,5.1116,5.1708,5.1319,5.1928,5.2739,5.1589,5.1183,5.0879,4.9018,4.7936,4.6853,0.0,0.0,0.0,0.0,0.0,0.0,0.0,0.0,0.0,0.0,0.0,0.0,0.0,0.0,4.7019,5.0109,0.0,5.4849,5.771,6.063,6.2972,6.43,6.6248,6.7219,6.627,6.8557,6.9816,6.88,7.027,7.1007,7.0309,7.0568,7.0906,7.1289,7.0601,7.0217,7.0217,6.9823,6.9451,6.9113,6.8707,6.8504,6.8504,6.8504,6.8301,6.7963,6.8335,6.8301,6.7963,6.8335,6.8504,6.8504,6.8504,6.8064,6.732,6.6981,6.6136,6.5121,6.4749,6.4613,6.4444,0.0,0.0,0.0,0.0,0.0,0.0,3.12,3.1437,3.2273,3.4032,3.4539,3.4844,3.5137,3.5295,3.4596,3.2689,3.3197,3.4506,3.666,3.8171,3.9648,4.1136,4.1068,4.1068,4.1204,4.0472,4.0113,4.0113,4.0113,4.0113,4.0113,4.0113,4.0405,4.1035,4.1745,4.2489,4.3288,4.4823,4.5568,4.5756,4.6481,4.7259,4.809,4.9882,5.11,5.186,5.186,5.23,5.2773,5.2266,5.2097,5.1894,5.0676,4.9999,4.9018,4.5954,4.5785,0.0,0.0,0.0,0.0,0.0,0.0,0.0,0.0,4.4268,4.4982,4.8663,4.9245,5.0433,5.4661,5.6393,5.8018,6.0633,6.3179,6.5199,6.6271,6.7982,6.8428,6.6597,6.8765,7.0007,6.8912,7.0307,7.1289,7.1289,7.1154,7.1142,7.1289,7.0601,7.0285,7.0398,6.9823,6.9519,6.9519,6.9383,6.9316,6.9316,6.9316,6.9248,6.9113,6.9248,6.9248,6.9113,6.9248,6.9316,6.9316,6.9485,6.8977,6.8199,6.9011,6.8098,6.6271,6.5527,6.5155,6.4918,0.0,0.0,0.0,0.0,0.0,0.0,0.0,0.0,3.3243,3.348,3.4664,3.5002,3.3785,3.4235,3.4269,3.3355,3.3964,3.5058,3.6694,3.8171,3.9648,4.1136,4.0574,4.054,4.1204,4.0472,4.0113,4.0113,4.0113,4.0113,4.0113,4.0113,4.0146,4.0282,4.1001,4.1745,4.2523,4.4059,4.5108,4.5756,4.6481,4.7259,4.7921,4.8191,4.912,5.0353,5.0353,5.0421,5.0574,5.1133,5.1336,5.1302,5.1133,5.1472,5.1217,4.7612,4.621,4.5128,4.1948,4.1321,4.2273,4.5335,4.5193,4.5904,0.0,5.1663,5.1057,5.4192,5.4497,5.5066,5.7965,5.8864,6.0112,6.2969,6.4626,6.6106,6.7738,6.8618,6.9499,7.0512,7.0951,7.1109,7.0963,7.1154,7.1289,7.1289,7.0703,7.0601,7.1255,7.0601,7.05,7.1176,7.1086,7.1052,7.1052,7.0398,7.0082,7.0082,7.0082,6.9722,6.9113,6.9755,6.9722,6.9147,6.9789,7.0082,7.0128,7.077,7.0229,6.9045,6.9789,6.9519,6.8605,6.7827,6.7117,6.6453,0.0,0.0,0.0,0.0,0.0,0.0,0.0,0.0,3.2757,3.2757,3.366,3.392,3.2858,3.2655,3.2442,3.2138,3.3964,3.5408,3.6062,3.8734,4.0561,4.117,4.0899,4.1068,4.1813,4.1102,4.0946,4.1386,4.1386,4.1386,4.1386,4.1386,4.1386,4.1386,4.169,4.2252,4.3017,4.4127,4.5041,4.5756,4.6481,4.6989,4.7259,4.7259,4.7394,4.7665,4.8511,4.9086,0.0,4.8815,4.8901,4.9273,4.9273,4.9476,4.9273,4.6853,4.6549,4.6805,4.5974,4.5418,4.5583,4.7551,4.8565,4.9812,5.2604,5.3213,5.389,5.6461,5.7532,5.8571,6.0613,6.1789,6.2994,6.4635,6.6078,6.7386,6.8551,6.9311,6.9958,7.0601,7.1041,7.1289,7.1289,7.1289,7.1289,7.1289,7.1007,7.0973,7.1289,7.1007,7.0973,7.1289,7.1289,7.1289,7.1289,7.1007,7.0838,7.0838,7.0838,7.0669,7.0398,7.0703,7.0669,7.0398,7.0703,7.0838,7.0872,7.1154,7.0669,6.9789,7.0567,7.0128,6.9079,6.8707,6.8402,6.7963,0.0,0.0,0.0,0.0,0.0,0.0,0.0,0.0,0.0,0.0,3.2655,3.2814,3.209,3.1505,3.12,3.12,3.3717,3.5374,3.56,3.8722,4.0764,4.117,4.1204,4.1542,4.23,4.1779,4.1779,4.23,4.23,4.23,4.23,4.2489,4.2591,4.2625,4.2841,4.3335,4.4065,4.4654,4.5432,4.6346,4.665,4.6921,4.7056,4.665,4.6177,4.5838,4.6906,4.7346,4.7327,4.6481,4.6549,4.7008,4.7244,4.7447,4.7346,4.6061,4.6162,4.6872,4.7834,4.7684,4.765,4.9206,5.098,5.2469,5.3112,5.4262,5.5818,5.8051,5.9077,6.0241,6.2322,6.3458,6.4588,6.606,6.7184,6.8335,6.9553,6.9823,7.0026,7.0466,7.0804,7.1075,7.1289,7.1289,7.1289,7.1289,7.1515,7.1594,7.1594,7.1819,7.1819,7.1616,7.1594,7.1515,7.1289,7.1289,7.1289,7.1289,7.1289,7.1289,7.1289,7.1289,7.1289,7.1289,7.1289,7.1289,7.1289,7.1289,7.1007,7.0567,7.1086,7.0669,6.9722,6.9722,6.9451,6.8944,0.0,0.0,0.0,0.0,0.0,0.0,0.0,0.0,0.0,0.0,0.0,3.2046,3.1302,3.119,3.12,3.12,3.322,3.4844,3.5532,3.7787,3.9715,4.1136,4.1204,4.1542,4.23,4.23,4.23,4.23,4.23,4.23,4.2333,4.3017,4.3389,4.3389,4.4195,4.4939,4.5635,4.5669,4.65,4.7785,4.709,4.7225,4.7718,4.6264,4.5737,4.5703,4.5771,4.4809,4.3693,4.4432,4.4668,4.4838,4.5534,4.6244,4.6684,4.594,4.4674,4.3862,4.5399,4.579,4.6636,5.022,5.1708,5.2875,5.509,5.619,5.7374,5.9573,5.915,5.9396,6.2824,6.3141,6.3966,6.7285,6.7861,6.8673,7.0917,7.0026,6.9654,7.1086,7.0669,7.05,7.1222,7.1289,7.1289,7.1289,7.1954,7.236,7.236,7.3037,7.3128,7.2394,7.236,7.2022,7.1289,7.1289,7.1289,7.1289,7.1289,7.1289,7.1289,7.1289,7.1289,7.1289,7.1289,7.1289,7.1289,7.1289,7.1289,7.1255,7.1289,7.1255,7.1222,7.1222,7.0331,6.9079,0.0,0.0,0.0,0.0,0.0,0.0,0.0,0.0,0.0,0.0,0.0,0.0,0.0,0.0,0.0,0.0,3.278,3.4066,3.481,3.7449,3.9445,4.0447,4.1407,4.2536,4.3789,4.3822,4.4296,4.5311,4.5311,4.5311,4.5311,4.5534,4.5669,4.5669,4.5954,4.6718,4.7902,4.7902,4.8477,4.9323,4.9101,4.824,4.7056,4.6075,4.4756,4.3369,0.0,4.2692,4.2557,4.186,4.1927,4.2388,4.2658,4.2895,4.3132,4.3369,4.4485,4.5872,4.6872,4.8225,4.9882,5.2148,5.3636,5.4887,5.6156,5.7356,5.8472,5.9235,5.865,5.8327,5.937,6.0364,6.1386,6.2486,6.5611,6.8188,6.9054,6.9984,7.0567,7.0567,7.077,7.0838,7.0601,7.1007,7.1289,7.1289,7.1988,7.2394,7.2394,7.3105,7.3398,7.3161,7.2665,7.2293,7.2022,7.1526,7.1548,7.2056,7.2529,7.2259,7.1323,7.1819,7.1751,7.1289,7.1289,7.1289,7.1289,7.1289,7.1289,7.1289,7.1289,7.1289,7.1289,7.1289,7.1007,7.05,0.0,0.0,0.0,0.0,0.0,0.0,0.0,0.0,0.0,0.0,0.0,0.0,0.0,0.0,0.0,0.0,0.0,3.3423,3.4449,3.6569,3.8362,3.9635,4.0865,4.2083,4.3349,4.3382,4.3992,4.521,4.521,4.5331,4.5602,4.6413,4.68,4.6834,4.7361,4.8105,4.9018,4.9018,4.912,4.9289,4.9018,4.7748,4.5887,4.4891,4.3403,0.0,4.1068,4.1102,4.1352,4.0417,4.0405,4.0798,4.0798,4.117,4.1779,4.2807,4.4871,4.709,4.8342,5.0119,5.1945,5.3518,5.5006,5.6206,5.6697,5.7746,5.8499,5.8148,5.7488,5.6842,5.6336,5.7651,5.8773,5.8647,6.2719,6.6229,6.7,6.8607,6.9925,7.0534,7.1007,7.1244,7.1007,7.1413,7.1582,7.1323,7.2462,7.3071,7.28,7.3713,7.4153,7.3883,7.3443,7.3071,7.28,7.2326,7.2326,7.28,7.3003,7.2597,7.1718,7.1921,7.1751,7.1289,7.1289,7.1289,7.1289,7.1289,7.1289,7.1289,7.1289,7.1289,7.1289,7.1289,7.1289,7.1222,0.0,0.0,0.0,0.0,0.0,0.0,0.0,0.0,0.0,0.0,0.0,0.0,0.0,0.0,0.0,0.0,0.0,0.0,3.4415,3.5205,3.6591,3.8848,3.9703,4.0447,4.1238,4.1305,4.1677,4.2435,4.2435,4.276,4.3524,4.5669,4.6699,4.6766,4.8139,4.8815,4.8849,4.8849,4.8428,4.7718,4.7022,4.5853,4.4364,4.2875,4.1847,4.1102,4.0371,4.0113,4.0113,4.0113,4.0146,4.0214,4.0248,4.1284,4.2773,4.4262,4.5785,4.7443,4.9575,5.1251,5.2773,5.4262,5.575,5.6799,5.6867,5.7374,5.7542,5.652,5.5704,5.4824,5.3668,5.511,5.635,5.6023,5.9735,6.3343,6.5149,6.6373,6.8144,7.1019,7.1424,7.1729,7.2428,7.2563,7.2259,7.1526,7.3386,7.4289,7.3601,7.4965,7.5439,7.4695,7.4603,7.4255,7.3567,7.3567,7.3534,7.35,7.2834,7.2462,7.2394,7.1684,7.1323,7.1289,7.1289,7.1289,7.1289,7.1289,7.1289,7.1289,7.1289,7.1289,7.1289,7.1289,7.1289,7.1289,0.0,0.0,0.0,0.0,0.0,0.0,0.0,0.0,0.0,0.0,0.0,0.0,0.0,0.0,0.0,0.0,0.0,0.0,3.4449,3.5205,3.6389,3.8091,3.9411,4.0709,4.1982,4.2544,4.322,4.3992,4.3992,4.4093,4.4296,4.4871,4.5142,4.5176,4.5548,4.6007,4.6549,4.6549,4.6433,4.623,4.6075,4.506,4.3592,4.2658,4.1847,4.1102,4.0371,4.0113,4.0113,4.0113,4.0811,4.1826,4.2388,4.3606,4.5026,4.594,4.768,4.9507,5.0642,5.2435,5.4228,5.5158,5.6122,5.6934,5.7476,5.734,5.6666,5.5146,5.3353,5.1361,4.9136,5.2527,5.5315,5.4144,6.0988,6.6542,6.668,6.9167,7.1278,7.2022,7.3105,7.3826,7.4018,7.4525,7.4559,7.3792,7.4265,7.4525,7.4322,7.5777,7.6217,7.5439,7.4897,7.4525,7.4322,7.4322,7.4052,7.35,7.3883,7.3477,7.2394,7.2225,7.1819,7.1289,7.1289,7.1289,7.1289,7.1289,7.1289,7.1289,7.1289,7.1289,7.1289,7.1289,7.1289,7.1289,0.0,0.0,0.0,0.0,0.0,0.0,0.0,0.0,0.0,0.0,0.0,0.0,0.0,0.0,0.0,0.0,0.0,0.0,0.0,3.4878,3.5825,3.7359,3.851,3.9525,4.0358,4.1102,4.1542,4.1657,4.1995,4.23,4.2651,4.3281,4.3755,4.4079,4.4432,4.4838,4.521,4.521,4.4823,0.0,0.0,4.3301,4.1914,4.1487,4.1081,4.0675,4.0248,4.0519,4.1217,4.2232,4.2909,4.3484,4.4553,4.5689,4.6872,4.7951,4.9357,5.0811,5.1911,5.3619,5.5277,5.6021,5.6731,5.7115,5.6481,5.602,5.49,5.2105,5.0295,4.8507,4.6231,4.9706,5.282,5.2418,5.9261,6.5138,6.6661,6.9487,7.1921,7.3206,7.4695,7.5608,7.5608,7.598,7.6183,7.6115,7.5811,7.5473,7.51,7.6555,7.7164,7.6724,7.6318,7.6082,7.6082,7.5777,7.5574,7.5496,7.4897,7.4356,7.3815,7.3172,7.2665,7.2259,7.1921,7.1785,7.1751,7.1424,7.1289,7.1289,7.1289,7.1289,7.1289,7.1289,7.1289,7.1289,0.0,0.0,0.0,0.0,0.0,0.0,0.0,0.0,0.0,0.0,0.0,0.0,0.0,0.0,0.0,0.0,0.0,0.0,0.0,0.0,3.5329,3.6897,3.755,3.7956,3.8046,3.8667,3.8633,3.791,3.8531,3.922,3.9965,4.1149,4.2151,4.2983,4.3586,4.3904,4.4005,4.4005,4.3213,4.2029,4.2029,4.1251,4.0113,0.0,4.0113,4.0113,4.0214,4.1115,4.2672,4.5026,4.55,4.5311,4.6766,4.7733,4.8631,5.0101,5.1014,5.1844,5.3365,5.4786,5.5952,5.6469,5.7182,5.7104,5.4632,5.4039,5.2833,4.8702,4.7333,4.6298,4.4509,4.7262,5.0278,5.1632,5.6958,6.232,6.6341,6.9077,7.165,7.4424,7.6014,7.6995,7.7164,7.7096,7.7333,7.8077,7.7536,7.6826,7.6048,7.7367,7.8102,7.8,7.8077,7.8102,7.8,7.7367,7.7367,7.8,7.5912,7.5236,7.5811,7.4424,7.3737,7.3635,7.2969,7.2631,7.2496,7.1853,7.1526,7.1481,7.1526,7.1458,7.1289,7.1391,7.1391,7.1289,0.0,0.0,0.0,0.0,0.0,0.0,0.0,0.0,0.0,0.0,0.0,0.0,0.0,0.0,0.0,0.0,0.0,0.0,0.0,0.0,0.0,3.7652,3.7843,3.8193,3.8802,3.8949,3.8633,3.791,3.8024,3.8464,3.9186,3.8836,3.9377,4.0641,4.0168,4.0303,4.0891,4.0891,4.0722,4.0472,4.0472,4.0316,4.0113,4.0113,0.0,0.0,4.0798,4.1576,4.274,4.565,4.6921,4.7582,4.9052,5.0033,5.093,5.2469,5.301,5.345,5.4921,5.5936,5.6399,5.5586,5.6181,5.6264,5.3532,5.2655,5.139,4.7905,4.6598,4.5561,4.3797,4.7119,5.112,5.4126,5.9628,6.4961,6.904,7.1543,7.3544,7.5303,7.6318,7.7367,7.8619,7.8179,7.8111,7.8855,7.8788,7.8382,7.7638,7.845,7.8619,7.8034,7.8585,7.8619,7.8034,7.7874,7.7874,7.8,7.6961,7.6555,7.6657,7.5743,7.4999,7.439,7.4289,7.3883,7.3297,7.3172,7.2766,7.2259,7.2868,7.236,7.1357,7.1988,7.1819,7.1289,0.0,0.0,0.0,0.0,0.0,0.0,0.0,0.0,0.0,0.0,0.0,0.0,0.0,0.0,0.0,0.0,0.0,0.0,0.0,0.0,0.0,3.7313,3.7686,3.7889,3.7867,3.8227,3.8058,3.7313,0.0,3.8294,3.8971,3.8633,3.9051,4.0079,3.9728,3.9762,4.0113,4.0113,4.0113,4.0113,4.0113,4.0113,4.0113,4.0113,0.0,0.0,4.1508,4.2536,4.3767,4.5533,4.7179,4.88,5.0676,5.1792,5.2621,5.3754,5.4363,5.4887,5.5987,5.6386,5.65,5.6556,5.5828,5.4506,5.2101,5.0724,4.9019,4.5744,4.4791,4.4291,4.3449,4.6263,4.9698,5.272,5.7546,6.2626,6.7602,7.0953,7.3781,7.6048,7.7671,7.8889,7.96,7.9363,7.9295,7.9667,7.9667,7.9363,7.8619,7.9634,7.9904,7.916,7.987,7.9904,7.9126,7.9126,7.9126,7.9126,7.8416,7.8044,7.801,7.7232,7.669,7.6318,7.554,7.5202,7.5168,7.4007,7.351,7.3544,7.351,7.3094,7.2428,7.2428,7.2191,7.1819,0.0,0.0,0.0,0.0,0.0,0.0,0.0,0.0,0.0,0.0,0.0,0.0,0.0,0.0,0.0,0.0,0.0,0.0,0.0,0.0,0.0,0.0,0.0,0.0,3.6829,0.0,0.0,3.6795,3.755,0.0,0.0,0.0,0.0,0.0,3.9943,3.9943,4.0113,4.0113,4.0113,0.0,0.0,4.0235,4.0113,0.0,0.0,0.0,0.0,4.3301,4.4454,4.5244,4.6729,4.8586,5.0441,5.2034,5.3332,5.3795,5.47,5.5696,5.6367,5.6423,5.6395,5.689,5.5286,5.2928,5.0454,4.8808,4.6927,4.3908,4.329,4.3349,4.3489,4.5224,4.7713,5.0995,5.4558,5.9031,6.5082,6.9205,7.278,7.6066,7.8267,7.9667,8.0141,8.0209,8.0209,8.0209,8.0209,7.9938,7.9397,8.0581,8.0953,8.0209,8.0919,8.1021,8.0445,8.0276,8.0344,8.0648,7.9938,7.9566,7.9566,7.8957,7.8542,7.8145,7.6961,7.669,7.6995,7.5202,7.4593,7.4796,7.439,7.394,7.3466,7.3037,7.2766,7.2563,0.0,0.0,0.0,0.0,0.0,0.0,0.0,0.0,0.0,0.0,0.0,0.0,0.0,0.0,0.0,0.0,0.0,0.0,0.0,0.0,0.0,0.0,0.0,0.0,0.0,0.0,0.0,3.6795,3.755,0.0,0.0,0.0,0.0,0.0,0.0,3.9457,4.0113,4.0113,0.0,0.0,0.0,0.0,0.0,0.0,0.0,0.0,0.0,4.3389,4.3718,4.5063,4.5623,4.5972,4.6722,4.9473,5.232,5.1899,5.3356,5.5168,5.5589,5.6082,5.6122,5.4646,5.3903,5.2489,4.8487,4.7293,4.6301,4.3817,4.329,4.3489,4.4087,4.4416,4.6252,5.1368,5.3052,5.6239,6.35,6.7001,7.0376,7.4492,7.6298,7.7976,8.0006,8.0209,8.0209,8.0209,8.0209,8.0175,8.0107,8.0851,8.0953,8.0209,8.0919,8.1283,8.1215,8.0513,8.0885,8.2205,8.1426,8.1114,8.1114,8.1046,8.0276,7.8991,7.8855,7.845,7.7874,7.7696,7.6792,7.5676,7.6318,7.5303,7.3544,7.4187,7.3984,7.3398,0.0,0.0,0.0,0.0,0.0,0.0,0.0,0.0,0.0,0.0,0.0,0.0,0.0,0.0,0.0,0.0,0.0,0.0,0.0,0.0,0.0,0.0,0.0,0.0,0.0,0.0,0.0,0.0,0.0,0.0,0.0,0.0,0.0,0.0,0.0,3.9842,4.0113,4.0113,0.0,0.0,0.0,0.0,0.0,0.0,0.0,0.0,0.0,0.0,4.326,4.2768,4.3233,4.3912,4.3055,4.5497,4.9046,5.0736,5.2915,5.4936,5.569,5.6656,5.708,5.578,5.3467,5.1072,4.9264,4.7017,4.495,4.3569,4.329,4.3519,4.4177,4.4296,4.525,4.8222,4.9839,5.2352,5.7019,6.0673,6.5082,7.1035,7.3382,7.603,7.982,8.0209,8.0209,8.0209,8.0615,8.0648,8.0209,8.0885,8.0953,8.0209,8.0919,8.1317,8.1317,8.1012,8.1393,8.2408,8.1629,8.1317,8.1283,8.0818,8.031,7.9735,7.927,7.9194,7.9261,7.8348,7.7908,7.7739,7.7604,7.7019,7.6207,7.6048,7.5811,7.5473,0.0,0.0,0.0,0.0,0.0,0.0,0.0,0.0,0.0,0.0,0.0,0.0,0.0,0.0,0.0,0.0,0.0,0.0,0.0,0.0,0.0,0.0,0.0,0.0,0.0,0.0,0.0,0.0,0.0,0.0,0.0,0.0,0.0,0.0,0.0,0.0,0.0,0.0,0.0,0.0,0.0,0.0,0.0,0.0,0.0,0.0,0.0,0.0,0.0,0.0,0.0,4.2153,4.0807,4.2456,4.5394,4.8272,5.1158,5.365,5.4461,5.5731,5.673,5.6013,5.3147,5.0298,4.9598,4.6921,4.4356,4.3489,4.3439,4.3818,4.4476,4.4616,4.5014,4.636,4.7824,4.9783,5.258,5.6271,6.0803,6.6548,6.9654,7.31,7.7648,7.9584,8.0513,8.0513,8.1012,8.0978,8.0242,8.0682,8.0716,8.0209,8.0682,8.108,8.1317,8.1317,8.1663,8.2382,8.1866,8.152,8.1283,8.075,8.0412,8.0175,7.9667,7.9735,8.0107,7.9058,7.8822,7.9034,7.8517,7.8179,7.7967,7.7401,7.7232,7.713,0.0,0.0,0.0,0.0,0.0,0.0,0.0,0.0,0.0,0.0,0.0,0.0,0.0,0.0,0.0,0.0,0.0,0.0,0.0,0.0,0.0,0.0,0.0,0.0,0.0,0.0,0.0,0.0,0.0,0.0,0.0,0.0,0.0,0.0,0.0,0.0,0.0,0.0,0.0,0.0,0.0,0.0,4.2104,0.0,0.0,0.0,0.0,0.0,0.0,0.0,0.0,0.0,0.0,4.0864,4.1831,4.3788,4.7433,5.0916,5.1187,5.2719,5.4246,5.4216,5.2695,5.069,4.8768,4.6762,4.4915,4.3579,4.3818,4.4476,4.5155,4.5274,4.5723,4.707,4.787,4.9217,5.1851,5.5204,5.8448,6.1139,6.5012,6.8923,7.2697,7.8068,8.1283,8.1283,8.1317,8.0978,8.0242,8.0209,8.0209,8.0209,8.0209,8.0547,8.1317,8.1317,8.1663,8.2408,8.2382,8.2002,8.1317,8.1317,8.0885,8.0209,8.0175,8.0175,8.0209,8.0175,7.9769,7.9101,7.9092,7.8653,7.8,7.7976,7.8,7.8,0.0,0.0,0.0,0.0,0.0,0.0,0.0,0.0,0.0,0.0,0.0,0.0,0.0,0.0,0.0,0.0,0.0,0.0,0.0,0.0,0.0,0.0,0.0,0.0,0.0,0.0,0.0,0.0,0.0,0.0,0.0,0.0,0.0,0.0,0.0,0.0,0.0,0.0,0.0,0.0,0.0,4.0231,4.0589,0.0,0.0,0.0,0.0,0.0,0.0,0.0,0.0,0.0,0.0,0.0,0.0,4.281,4.5874,4.9144,4.9472,5.15,5.3174,5.1804,5.0308,4.9045,4.8438,4.6381,4.4646,4.4676,4.4855,4.5185,4.5852,4.5971,4.6591,4.8379,4.8828,4.9426,5.0667,5.4151,5.8342,6.3107,7.1061,7.6799,7.8506,8.0268,8.152,8.2002,8.2069,8.1731,8.1012,8.0953,8.0716,8.0209,8.0209,8.0547,8.1317,8.0784,8.1156,8.2408,8.1393,8.1021,8.1283,8.0784,8.0412,8.0209,8.0209,8.0209,8.0209,8.0209,8.0073,7.987,7.987,7.9701,7.9498,7.9498,7.9498,7.9498,0.0,0.0,0.0,0.0,0.0,0.0,0.0,0.0,0.0,0.0,0.0,0.0,0.0,0.0,0.0,0.0,0.0,0.0,0.0,0.0,0.0,0.0,0.0,0.0,0.0,0.0,0.0,0.0,0.0,0.0,0.0,0.0,0.0,0.0,0.0,0.0,0.0,0.0,0.0,0.0,3.9329,3.9616,3.9787,0.0,0.0,0.0,0.0,0.0,0.0,0.0,0.0,0.0,0.0,0.0,0.0,0.0,4.4487,4.695,4.7646,4.9579,5.1133,5.0122,4.9075,4.8207,4.7967,4.6441,4.5104,4.5274,4.5514,4.5813,4.6211,4.651,4.71,4.8349,4.8977,4.987,5.1509,5.4584,5.9009,6.5393,7.3093,7.8455,7.9913,8.1291,8.2205,8.2408,8.2408,8.2069,8.1351,8.1021,8.0648,8.0209,8.0209,8.0412,8.0885,8.0716,8.0919,8.1562,8.0919,8.0716,8.0851,8.0412,8.0209,8.0209,8.0209,8.0209,0.0,8.0209,8.0209,8.0209,8.0209,8.0209,8.0209,8.0209,8.0209,8.0209,0.0,0.0,0.0,0.0,0.0,0.0,0.0,0.0,0.0,0.0,0.0,0.0,0.0,0.0,0.0,0.0,0.0,0.0,0.0,0.0,0.0,0.0,0.0,0.0,0.0,0.0,0.0,0.0,3.8997,3.9694,3.9711,0.0,0.0,0.0,0.0,0.0,0.0,0.0,0.0,0.0,3.8745,3.9062,0.0,0.0,0.0,0.0,0.0,0.0,0.0,0.0,0.0,0.0,0.0,0.0,0.0,0.0,0.0,0.0,0.0,4.707,4.8229,4.8858,4.8498,4.7878,4.7429,4.6719,0.0,4.5544,4.5942,4.639,4.642,4.6899,4.7369,4.7549,4.8618,5.0585,5.3822,5.6512,6.082,6.8055,7.2231,7.5481,7.7936,8.1359,8.3152,8.2543,8.2441,8.2069,8.1351,8.0581,8.0209,8.0209,8.0209,8.0209,8.0209,8.0885,8.0885,8.0209,8.0885,8.0851,8.0209,8.0209,8.0209,8.0209,8.0209,8.0209,8.0209,8.0209,8.0209,8.0209,8.0209,8.0209,8.0209,8.0209,8.0209,8.0209,0.0,0.0,0.0,0.0,0.0,0.0,0.0,0.0,0.0,0.0,0.0,0.0,0.0,0.0,0.0,0.0,0.0,0.0,0.0,0.0,0.0,0.0,0.0,0.0,0.0,0.0,0.0,3.7439,3.8797,3.9461,3.9461,3.9824,0.0,0.0,0.0,0.0,0.0,0.0,0.0,0.0,3.821,3.8659,0.0,0.0,0.0,0.0,3.9391,3.981,0.0,0.0,0.0,0.0,0.0,0.0,0.0,0.0,4.3309,4.3589,4.3938,0.0,4.6022,4.6193,4.5723,4.5603,0.0,4.6381,4.5783,4.6651,4.695,4.7219,4.7728,4.7549,4.7967,4.9949,5.0548,5.1556,5.3899,6.0606,6.7232,7.2532,7.6485,7.9011,7.9608,8.1494,8.2813,8.3219,8.2712,8.2069,8.1351,8.0581,8.0209,8.0209,8.0209,8.0209,8.0209,8.0378,8.0378,8.0209,8.0378,8.0378,8.0209,8.0209,8.0209,8.0209,8.0209,8.0209,8.0209,8.0209,8.0209,8.0209,8.0209,8.0209,8.0209,8.0209,8.0209,8.0209,0.0,0.0,0.0,0.0,0.0,0.0,0.0,0.0,0.0,0.0,0.0,0.0,0.0,0.0,0.0,0.0,0.0,0.0,0.0,0.0,0.0,0.0,0.0,0.0,0.0,0.0,0.0,0.0,0.0,3.9391,0.0,0.0,0.0,0.0,0.0,0.0,0.0,0.0,0.0,3.7426,3.8216,0.0,0.0,0.0,0.0,0.0,3.975,4.0277,0.0,4.1643,4.2271,4.288,0.0,0.0,0.0,0.0,4.329,4.329,4.329,4.4057,4.4855,4.4855,4.5014,4.5493,4.66,4.6531,4.6411,4.716,4.7309,4.7429,4.7758,4.8499,4.933,5.0206,5.2074,5.4568,5.7927,6.3936,6.9939,7.5097,7.7789,7.9998,8.2018,8.2644,8.3084,8.3456,8.2509,8.1731,8.1317,8.0581,8.0209,8.0209,8.0209,8.0209,8.0209,8.0209,8.0209,8.0209,8.0209,8.0209,8.0209,8.0209,8.0209,8.0209,8.0209,8.0209,8.0209,8.0209,8.0209,8.0209,8.0209,8.0209,8.0209,8.0209,8.0209,8.0209,0.0,0.0,0.0,0.0,0.0,0.0,0.0,0.0,0.0,0.0,0.0,0.0,0.0,0.0,0.0,0.0,0.0,0.0,0.0,0.0,0.0,0.0,0.0,0.0,0.0,0.0,0.0,0.0,0.0,0.0,0.0,0.0,0.0,0.0,0.0,0.0,0.0,0.0,0.0,3.8409,3.8409,0.0,0.0,0.0,0.0,0.0,0.0,0.0,0.0,4.2171,4.2791,4.329,4.329,0.0,0.0,0.0,0.0,0.0,4.3409,4.4087,4.4715,4.4506,4.5313,4.6211,4.642,4.6809,4.7189,4.7279,4.7399,4.7519,4.7728,4.9517,5.0773,5.0148,5.3858,5.8518,6.3402,6.7141,7.1318,7.6544,7.812,8.0142,8.3756,8.3727,8.3456,8.3321,8.2171,8.1359,8.1122,8.0547,8.0209,8.0209,8.0209,8.0209,8.0209,8.0209,8.0209,8.0209,8.0209,8.0209,8.0209,8.0209,8.0209,8.0209,8.0209,8.0209,8.0209,8.0209,8.0209,8.0175,8.0073,8.0107,8.0175,8.0073,8.0107,8.0209,0.0,0.0,0.0,0.0,0.0,0.0,0.0,0.0,0.0,0.0,0.0,0.0,0.0,0.0,0.0,0.0,0.0,0.0,0.0,0.0,0.0,0.0,0.0,0.0,0.0,0.0,0.0,0.0,0.0,0.0,4.0247,4.0337,3.9379,0.0,0.0,0.0,0.0,0.0,0.0,3.8409,3.8409,0.0,0.0,0.0,0.0,0.0,0.0,0.0,0.0,4.2171,4.2791,4.329,4.329,0.0,0.0,0.0,0.0,0.0,4.3997,4.5463,4.6561,4.5424,4.5304,4.5753,4.689,4.6779,4.66,4.7189,4.7758,4.8476,4.9561,5.0079,5.1019,5.3109,5.7419,6.2173,6.7042,7.1285,7.4892,7.7546,8.0132,8.176,8.1799,8.2813,8.3253,8.2644,8.2374,8.1697,8.0445,8.0242,8.0209,8.0209,8.0209,8.0209,8.0209,8.0209,8.0209,8.0209,8.0209,8.0209,8.0209,8.0209,8.0209,8.0209,8.0209,8.0209,8.0209,8.0209,8.0209,8.0141,7.9532,7.9667,8.0107,7.9498,7.9667,8.0209,0.0,0.0,0.0,0.0,0.0,0.0,0.0,0.0,0.0,0.0,0.0,0.0,0.0,0.0,0.0,0.0,0.0,0.0,0.0,0.0,0.0,0.0,0.0,0.0,0.0,0.0,0.0,0.0,0.0,4.0277,4.0924,3.9828,3.8811,3.7913,0.0,0.0,0.0,0.0,0.0,3.896,0.0,0.0,0.0,0.0,0.0,0.0,0.0,0.0,0.0,0.0,4.307,4.329,4.329,0.0,0.0,0.0,0.0,0.0,4.4117,4.5244,4.6322,4.68,4.7698,4.8566,4.8813,4.8903,4.8933,4.8873,4.9112,4.962,5.0578,5.215,5.4687,5.8761,6.1725,6.4657,6.7913,7.1183,7.4406,7.7674,7.9265,8.0867,8.287,8.2611,8.234,8.2408,8.1663,8.0919,8.0242,8.0209,8.0209,8.0209,8.0209,8.0209,8.0209,8.0209,8.0209,8.0209,8.0209,8.0209,8.0209,8.0209,8.0209,8.0209,8.0209,8.0209,8.0209,8.0209,8.0209,8.0175,7.9837,7.9904,8.0175,7.9837,7.9904,8.0209,0.0,0.0,0.0,0.0,0.0,0.0,0.0,0.0,0.0,0.0,0.0,0.0,0.0,0.0,0.0,0.0,0.0,0.0,0.0,0.0,0.0,0.0,0.0,0.0,0.0,0.0,3.8392,4.0397,4.0247,4.0516,4.1134,3.9607,3.8691,0.0,0.0,0.0,0.0,0.0,0.0,3.9391,0.0,0.0,0.0,0.0,0.0,0.0,0.0,0.0,0.0,0.0,0.0,0.0,0.0,0.0,0.0,4.329,4.3409,4.3698,4.4356,4.5244,4.6352,4.793,4.9314,5.0398,5.0817,5.1056,5.1236,5.1355,5.1385,5.1535,5.2043,5.4509,5.7924,6.2304,6.4576,6.6647,6.8955,7.157,7.468,7.8644,7.9109,8.0575,8.4263,8.2915,8.1968,8.2374,8.1359,8.0547,8.0209,8.0209,8.0209,8.0209,8.0209,8.0107,7.9938,8.0107,8.0209,8.0209,8.0209,8.0209,8.0209,8.0209,8.0209,8.0209,8.0209,8.0209,8.0209,8.0209,8.0209,8.0175,8.0006,7.9938,7.9972,8.0141,8.0209,8.0209,0.0,0.0,0.0,0.0,0.0,0.0,0.0,0.0,0.0,0.0,0.0,0.0,0.0,0.0,0.0,0.0,0.0,0.0,0.0,0.0,0.0,0.0,0.0,0.0,0.0,3.7734,3.8392,4.0397,3.978,3.9828,4.0457,4.0307,3.9589,3.8439,0.0,0.0,0.0,0.0,0.0,3.9391,3.9391,0.0,0.0,0.0,0.0,0.0,0.0,0.0,0.0,0.0,0.0,0.0,0.0,0.0,4.329,4.329,4.3758,4.4356,4.5035,4.6621,4.8139,4.8259,4.7938,4.8536,5.2181,5.2067,5.1894,5.4341,5.482,5.485,5.491,5.6573,5.8484,6.0131,6.4159,6.827,7.1826,7.5261,7.861,8.1716,8.2109,8.2743,8.4444,8.3862,8.3084,8.2475,8.2306,8.1629,8.0276,8.0209,8.0209,8.0209,8.0209,7.987,7.9169,7.987,8.0209,8.0209,8.0209,8.0209,8.0209,8.0209,8.0209,8.0209,8.0209,8.0209,8.0209,8.0209,8.0209,8.0141,7.9464,7.9194,7.9236,7.9938,8.0209,8.0209,0.0,0.0,0.0,0.0,0.0,0.0,0.0,0.0,0.0,0.0,0.0,0.0,0.0,0.0,0.0,0.0,0.0,0.0,0.0,0.0,0.0,0.0,0.0,3.8409,3.8409,3.8153,3.8811,4.0397,4.0546,4.0756,4.1014,4.0157,0.0,0.0,0.0,0.0,0.0,0.0,0.0,0.0,3.984,4.0187,0.0,0.0,0.0,0.0,0.0,0.0,0.0,0.0,4.329,4.3349,4.3788,4.3938,4.3997,4.4416,4.4736,4.5065,4.5753,4.71,4.8409,4.8828,4.9015,4.992,5.3114,5.4072,5.47,5.6077,5.7034,5.7513,5.7094,5.8979,6.0894,6.182,6.5663,6.9114,7.0931,7.5104,7.841,7.9509,8.0868,8.2103,8.3126,8.2171,8.1528,8.1697,8.1291,8.0784,8.0242,8.0209,8.0209,8.0209,8.0209,8.0073,7.9803,8.0073,8.0209,8.0175,7.9735,7.9532,7.9532,7.9532,7.9532,7.9532,8.0006,8.0209,8.0209,8.0209,8.0209,8.0175,7.9904,7.9769,7.9837,8.0107,8.0209,8.0209,0.0,0.0,0.0,0.0,0.0,0.0,0.0,0.0,0.0,0.0,0.0,0.0,0.0,0.0,0.0,0.0,0.0,0.0,0.0,0.0,0.0,0.0,0.0,3.8182,3.8409,3.8182,3.8841,4.0397,4.1074,4.1283,4.1074,0.0,0.0,0.0,0.0,0.0,0.0,0.0,0.0,0.0,0.0,4.0636,0.0,0.0,0.0,0.0,0.0,0.0,0.0,0.0,4.329,4.3429,4.4087,4.4296,4.4416,4.5095,4.5454,4.5723,4.6181,4.713,4.8199,4.9067,4.9763,5.1056,5.4346,5.5683,5.6791,5.883,5.9338,5.9338,5.9072,6.0206,6.1583,6.2898,6.5994,6.8972,7.1046,7.4373,7.6916,7.7897,7.9541,8.08,8.1327,8.0891,8.075,8.1283,8.0818,8.0445,8.0209,8.0209,8.0209,8.0209,8.0209,8.0073,7.987,8.0073,8.0073,7.9837,7.9126,7.8991,7.9464,7.9228,7.9228,7.9498,7.9972,8.0209,8.0209,8.0209,8.0209,8.0209,8.0209,8.0209,8.0209,8.0209,8.0209,8.0209,0.0,0.0,0.0,0.0,0.0,0.0,0.0,0.0,0.0,0.0,0.0,0.0,0.0,0.0,0.0,0.0,0.0,0.0,0.0,0.0,0.0,0.0,0.0,3.7704,3.838,3.7764,3.8392,4.0367,4.1044,4.1044,4.0397,4.0397,0.0,0.0,0.0,0.0,0.0,0.0,0.0,0.0,0.0,4.1224,4.2321,0.0,0.0,0.0,0.0,0.0,0.0,0.0,4.329,4.3429,4.4117,4.4326,4.4446,4.5125,4.5813,4.63,4.63,4.6779,4.7638,4.8977,4.9793,5.1445,5.6047,5.6671,5.7719,6.2929,6.1942,6.0326,6.1014,6.0027,5.9997,6.2689,6.4725,6.7753,7.2843,7.3496,7.4596,7.7597,7.8618,7.9068,7.9077,8.0405,8.1283,8.1283,8.1283,8.0978,8.0242,8.0175,8.0175,8.0175,8.0209,7.987,7.9126,7.9837,7.9837,7.9101,7.8348,7.8754,8.0141,7.9431,7.9498,8.0175,8.0175,8.0175,8.0209,8.0209,8.0209,8.0175,8.0209,8.0209,8.0175,8.0209,8.0209,8.0209,0.0,0.0,0.0,0.0,0.0,0.0,0.0,0.0,0.0,0.0,0.0,0.0,0.0,0.0,0.0,0.0,0.0,0.0,0.0,0.0,0.0,0.0,0.0,0.0,0.0,0.0,3.8871,3.899,3.9188,3.9649,0.0,0.0,0.0,4.0397,0.0,0.0,0.0,0.0,0.0,0.0,0.0,4.2051,4.244,0.0,0.0,0.0,0.0,0.0,0.0,0.0,0.0,0.0,4.5343,4.5702,4.5822,4.6531,4.686,4.6988,4.6988,4.7848,4.8917,4.9733,5.1475,5.3838,5.7068,5.8022,5.9458,6.3798,6.3378,6.215,6.1852,6.2211,0.0,6.3048,6.4725,6.6703,6.8664,7.0281,7.1961,7.3891,7.6141,7.7755,7.8286,7.9205,7.9769,7.9769,7.9261,7.9329,8.0141,7.9701,7.9431,7.9431,7.9938,7.987,7.9126,7.9837,8.0073,7.987,7.8585,7.8213,7.8619,7.7874,7.7942,7.8653,7.9194,7.9735,8.0209,8.0209,7.9904,7.9498,8.0006,7.987,7.9498,8.0006,8.0209,8.0209,0.0,0.0,0.0,0.0,0.0,0.0,0.0,0.0,0.0,0.0,0.0,0.0,0.0,0.0,0.0,0.0,0.0,0.0,0.0,0.0,0.0,0.0,0.0,0.0,0.0,3.8703,3.908,0.0,0.0,0.0,0.0,0.0,0.0,4.0816,0.0,4.0816,0.0,0.0,0.0,4.0894,4.1961,4.2541,4.2791,0.0,0.0,0.0,0.0,0.0,0.0,0.0,0.0,0.0,4.5971,4.63,4.642,4.71,4.7309,4.7369,4.7608,4.8498,4.9696,5.1355,5.3414,5.5807,5.8979,6.0597,6.2033,6.4157,6.3797,6.3138,6.3228,6.3049,6.3169,6.4096,6.5024,6.6252,6.8061,6.9697,7.1175,7.2352,7.5121,7.6858,7.6676,7.7882,7.8653,7.8653,7.8247,7.8407,7.9261,7.8889,7.8653,7.8653,7.9397,7.9566,7.9101,7.9532,7.9769,7.9769,7.828,7.7536,7.7536,7.7096,7.7299,7.8044,7.8788,7.9363,7.9769,7.9769,7.9498,7.916,7.96,7.9667,7.96,8.004,8.0209,8.0209,0.0,0.0,0.0,0.0,0.0,0.0,0.0,0.0,0.0,0.0,0.0,0.0,0.0,0.0,0.0,0.0,0.0,0.0,0.0,0.0,0.0,0.0,0.0,0.0,0.0,0.0,0.0,0.0,0.0,0.0,0.0,0.0,4.1313,4.1343,0.0,4.1991,0.0,4.1433,4.1463,4.1463,4.2201,4.2791,4.329,4.329,0.0,0.0,0.0,0.0,0.0,0.0,0.0,0.0,4.6181,4.639,4.651,4.713,4.7309,4.7459,4.8199,4.8917,5.0265,5.3563,5.5568,5.7689,6.1343,6.3617,6.4755,6.4216,6.3677,6.3677,6.4785,6.311,6.2482,6.5443,6.5503,6.6311,6.9559,7.0576,7.1369,7.2279,7.4827,7.6048,7.4897,7.6701,7.7874,7.7797,7.7797,7.7831,7.7899,7.7874,7.7874,7.7874,7.8619,7.8991,7.8923,7.8991,7.9,7.8966,7.757,7.6893,7.6893,7.6826,7.7198,7.7967,7.8686,7.9,7.9,7.9,7.9,7.9025,7.9067,7.9532,8.0107,8.0175,8.0209,8.0209,0.0,0.0,0.0,0.0,0.0,0.0,0.0,0.0,0.0,0.0,0.0,0.0,0.0,0.0,0.0,0.0,0.0,0.0,0.0,0.0,0.0,0.0,0.0,0.0,0.0,0.0,0.0,0.0,0.0,0.0,0.0,0.0,0.0,4.0666,0.0,4.1733,4.0666,4.1733,4.1901,4.1493,4.2671,4.319,4.329,4.329,4.329,0.0,0.0,0.0,0.0,0.0,0.0,0.0,4.689,4.7078,4.713,4.7279,4.7309,4.7549,4.8768,4.9912,5.1588,5.4965,5.8321,6.1164,6.2569,6.3558,6.4336,6.4695,6.5114,6.5293,6.5054,6.4964,6.5024,6.5174,6.5981,6.6822,6.7608,6.785,6.8855,7.1337,7.2724,7.3973,7.5366,7.6511,7.686,7.6251,7.6183,7.6454,7.7096,7.713,7.713,7.713,7.7841,7.7942,7.7367,7.7942,7.8247,7.8213,7.7333,7.6893,7.6893,7.6251,7.6386,7.7164,7.7908,7.8247,7.8247,7.8247,7.8247,7.828,7.8889,7.9194,7.9431,8.0006,8.0209,8.0209,0.0,0.0,0.0,0.0,0.0,0.0,0.0,0.0,0.0,0.0,0.0,0.0,0.0,0.0,0.0,0.0,0.0,0.0,0.0,0.0,0.0,0.0,0.0,0.0,0.0,0.0,0.0,0.0,0.0,0.0,0.0,0.0,0.0,4.1403,0.0,4.2021,4.1403,4.2111,4.2201,4.1942,4.2921,4.329,4.329,4.329,4.3519,4.3878,4.4556,0.0,0.0,0.0,0.0,0.0,0.0,0.0,4.7309,4.7309,4.7309,4.7578,4.8947,5.0714,5.3174,5.7483,6.0565,6.266,6.3018,6.3587,6.4096,6.4455,6.4814,6.4934,6.4605,6.4575,6.4784,6.5383,6.5802,6.6161,6.649,6.7993,6.9563,7.0772,7.2776,7.4479,7.559,7.6082,7.6149,7.5743,7.5709,7.5743,7.5811,7.6149,7.598,7.527,7.6318,7.6521,7.5811,7.6183,7.6352,7.6352,7.5608,7.5473,7.5811,7.5743,7.6149,7.6927,7.7299,7.7468,7.7468,7.7468,7.7468,7.7536,7.828,7.8788,7.9169,7.9938,8.0209,8.0209,0.0,0.0,0.0,0.0,0.0,0.0,0.0,0.0,0.0,0.0,0.0,0.0,0.0,0.0,0.0,0.0,0.0,0.0,0.0,0.0,0.0,0.0,0.0,0.0,0.0,0.0,0.0,0.0,0.0,0.0,0.0,0.0,0.0,4.241,0.0,0.0,4.241,4.253,4.25,4.244,4.304,4.329,4.329,0.0,0.0,4.4386,4.5185,4.5822,4.639,4.7048,0.0,0.0,0.0,0.0,4.7309,4.7309,4.7309,4.7578,4.8947,5.1462,5.4905,5.9877,6.2032,6.2958,6.3078,6.3497,6.3827,6.3827,6.3917,6.4006,6.4006,6.3677,6.3947,6.5592,6.5443,6.5353,6.5922,6.8495,7.0184,6.988,7.2445,7.4475,7.508,7.5162,7.5258,7.5483,7.5642,7.5337,7.4458,7.51,7.4897,7.3567,7.4661,7.5033,7.4424,7.4424,7.4424,7.439,7.3781,7.3815,7.4458,7.5168,7.5879,7.6521,7.6657,7.6623,7.6521,7.6657,7.6758,7.6961,7.757,7.8348,7.9169,7.9803,8.0073,8.0209,0.0,0.0,0.0,0.0,0.0,0.0,0.0,0.0,0.0,0.0,0.0,0.0,0.0,0.0,0.0,0.0,0.0,0.0,3.5519,0.0,0.0,3.7375,3.8033,0.0,0.0,0.0,0.0,0.0,0.0,0.0,0.0,0.0,0.0,4.241,0.0,0.0,0.0,4.297,4.288,4.244,4.304,4.329,0.0,0.0,0.0,0.0,0.0,4.6211,4.639,4.7048,4.7309,0.0,0.0,0.0,4.7309,4.7309,4.7309,4.7578,4.8947,5.248,5.6671,6.0206,6.1672,6.2391,6.2988,6.3168,6.3227,6.3227,6.3617,6.4006,6.4006,6.4425,6.4815,6.5084,6.5532,6.5922,6.6011,6.5921,6.6291,6.7505,6.8064,6.9542,7.2729,7.302,7.3498,7.4668,7.5337,7.51,7.3713,7.4356,7.4356,7.3534,7.3703,7.3771,7.3669,7.3669,7.3669,7.3669,7.3567,7.3567,7.3646,7.4424,7.483,7.4965,7.5574,7.5506,7.4965,7.5608,7.6284,7.6927,7.6995,7.7908,7.9101,7.9228,7.9667,8.0276,0.0,0.0,0.0,0.0,0.0,0.0,0.0,0.0,0.0,0.0,0.0,0.0,0.0,0.0,0.0,3.5519,3.5519,3.5519,3.5519,3.5789,3.6237,3.6866,3.7182,3.7614,0.0,0.0,0.0,0.0,0.0,0.0,0.0,4.2111,4.2481,0.0,0.0,0.0,0.0,0.0,0.0,4.294,4.319,0.0,0.0,0.0,0.0,0.0,0.0,0.0,0.0,4.7219,4.7309,4.7309,4.7309,0.0,0.0,0.0,4.7309,4.7908,5.0714,5.3258,5.6047,6.0089,6.1343,6.1822,6.2868,6.3108,6.3108,6.3108,6.3317,6.3527,6.3527,6.3737,6.4186,6.4874,6.4934,6.5024,6.5383,6.5882,6.6324,6.6598,6.7676,6.9345,7.1753,7.1986,7.2703,7.4465,7.4525,7.4177,7.3534,7.3815,7.3443,7.2293,7.2665,7.2699,7.2259,7.2259,7.2259,7.2259,7.2259,7.2496,7.2868,7.3206,7.3578,7.4018,7.4762,7.4897,7.4627,7.4965,7.554,7.6284,7.6724,7.7536,7.8517,7.8957,7.9566,8.031,0.0,0.0,0.0,0.0,0.0,0.0,0.0,0.0,0.0,0.0,0.0,0.0,0.0,0.0,0.0,0.0,3.5519,3.5519,3.5519,3.5519,3.5789,3.6464,3.6493,3.6776,3.7404,0.0,0.0,0.0,0.0,0.0,4.241,4.2541,4.3299,0.0,4.4077,0.0,0.0,0.0,0.0,0.0,0.0,0.0,0.0,0.0,0.0,0.0,0.0,0.0,0.0,0.0,0.0,4.7309,4.7309,4.7309,0.0,0.0,0.0,4.8027,5.1312,5.2815,5.4406,5.859,5.9969,6.0717,6.2241,6.272,6.2898,6.3078,6.3108,6.3108,6.3108,6.3227,6.3677,6.4815,6.4455,6.4186,6.4665,6.5566,6.597,6.5475,6.7139,6.8927,7.0521,7.1004,7.2047,7.4161,7.3815,7.3432,7.3229,7.3206,7.2631,7.1323,7.1853,7.1853,7.1289,7.1289,7.1289,7.1289,7.1289,7.1594,7.2124,7.2326,7.2597,7.2969,7.3916,7.4322,7.4322,7.4525,7.5033,7.5743,7.6352,7.7164,7.8068,7.8619,7.9532,8.0547,0.0,0.0,0.0,0.0,0.0,0.0,0.0,0.0,0.0,0.0,0.0,0.0,0.0,0.0,3.5519,3.5519,3.5519,3.5519,3.5519,3.5519,3.5789,3.6464,3.6493,0.0,3.7404,0.0,0.0,0.0,0.0,0.0,4.241,4.3,4.3967,4.5244,4.5214,4.4855,4.4237,0.0,0.0,0.0,0.0,0.0,0.0,0.0,0.0,0.0,0.0,0.0,0.0,0.0,0.0,0.0,0.0,0.0,4.7309,0.0,0.0,0.0,4.9097,5.0391,5.2013,5.482,5.6885,5.8773,6.0747,6.1702,6.2331,6.2988,6.3108,6.3108,6.3108,6.3558,6.4186,6.4874,6.4455,6.4006,6.4036,6.3615,6.3283,6.3253,6.4493,6.6157,6.8246,6.9612,7.125,7.3407,7.3534,7.3172,7.2496,7.2462,7.209,7.1323,7.1323,7.1323,7.1289,7.1289,7.1289,7.1289,7.1289,7.1323,7.1357,7.209,7.2056,7.1492,7.2935,7.3567,7.3635,7.4322,7.5033,7.5709,7.5743,7.6657,7.8,7.8044,7.9422,8.1249,0.0,0.0,0.0,0.0,0.0,0.0,0.0,0.0,0.0,0.0,0.0,0.0,0.0,3.5519,3.5519,3.5519,3.5519,3.5519,3.5519,3.5519,3.5609,3.5848,3.5848,3.5968,3.6178,0.0,0.0,0.0,0.0,3.9547,4.1762,4.2421,4.318,4.4057,4.4915,4.4915,4.4267,4.3848,0.0,0.0,0.0,0.0,0.0,0.0,0.0,0.0,0.0,0.0,0.0,0.0,0.0,0.0,0.0,0.0,0.0,4.7309,4.7309,4.7578,4.8947,4.9636,5.0744,5.3803,5.5718,5.7393,5.9368,6.1014,6.2151,6.2391,6.2808,6.3227,6.3588,6.3528,6.3617,6.4276,6.3827,6.3558,6.3947,6.3468,6.3108,6.3108,6.3507,6.4826,6.7367,6.8034,6.9559,7.2561,7.236,7.2191,7.2394,7.1954,7.156,7.1289,7.1289,7.1289,7.1289,7.1289,7.1289,7.1289,7.1289,7.1289,7.1289,7.156,7.1526,7.1357,7.236,7.3037,7.3567,7.4289,7.5033,7.5743,7.6284,7.7096,7.8044,7.8517,7.9498,8.0648,0.0,0.0,0.0,0.0,0.0,0.0,0.0,0.0,0.0,0.0,0.0,0.0,0.0,0.0,3.5519,3.5519,3.5519,3.5519,3.5519,3.5519,3.5519,3.5519,3.5729,3.5848,3.5848,0.0,0.0,0.0,0.0,0.0,0.0,4.1991,4.272,4.3349,4.4466,4.4736,0.0,0.0,0.0,4.4616,0.0,0.0,4.63,0.0,0.0,0.0,0.0,0.0,0.0,0.0,0.0,0.0,0.0,0.0,0.0,0.0,0.0,4.7489,4.8409,4.8947,4.9965,5.2815,5.4371,5.5833,5.8231,5.9817,6.0954,6.1642,6.2301,6.2988,6.3558,6.3377,6.3317,6.3887,6.3468,6.3257,6.3617,6.3347,6.3108,6.3108,6.3478,6.4485,6.6338,6.7317,6.8822,7.1151,7.1299,7.1492,7.1988,7.156,7.1289,7.1289,7.1289,7.1289,7.1289,7.1289,7.1289,7.1289,7.1289,7.1289,7.1289,7.1289,7.1289,7.1323,7.209,7.28,7.3567,7.4289,7.5202,7.6115,7.6386,7.7266,7.8382,7.8653,7.9498,8.0648,0.0,0.0,0.0,0.0,0.0,0.0,0.0,0.0,0.0,0.0,0.0,0.0,0.0,0.0,0.0,3.5533,3.5549,3.5519,3.5519,3.5519,3.5519,3.5519,3.6118,3.6493,3.6493,0.0,0.0,0.0,0.0,0.0,0.0,0.0,4.269,4.326,4.3997,4.4296,4.4296,0.0,4.5274,4.5244,0.0,4.5134,4.633,0.0,0.0,0.0,4.7309,4.7309,0.0,0.0,0.0,0.0,0.0,0.0,0.0,0.0,0.0,0.0,0.0,0.0,0.0,5.1648,5.2665,5.4012,5.7218,5.8025,5.8623,6.0597,6.1583,6.2271,6.2958,6.3108,6.3287,6.3887,6.3468,6.3108,6.3108,6.3108,6.3108,6.3108,6.4265,6.5087,6.5114,6.7546,6.9169,6.9217,7.0505,7.1289,7.1289,7.1289,7.1289,7.1255,7.1289,7.1289,7.1255,7.1289,7.1289,7.1289,7.1289,7.1289,7.1289,7.1289,7.1289,7.1323,7.209,7.28,7.3567,7.4289,7.5506,7.6792,7.6014,7.7096,7.8966,7.828,7.9422,8.1283,0.0,0.0,0.0,0.0,0.0,0.0,0.0,0.0,0.0,0.0,0.0,0.0,0.0,0.0,0.0,3.6836,3.6477,3.6207,3.6207,3.5759,3.5519,3.5519,3.6118,3.6493,3.6493,0.0,0.0,0.0,0.0,0.0,0.0,0.0,0.0,0.0,4.3599,4.4027,4.3638,4.4296,0.0,0.0,4.5613,4.6241,0.0,0.0,0.0,0.0,0.0,4.7608,0.0,0.0,4.8349,4.8648,0.0,0.0,0.0,0.0,0.0,0.0,4.8618,0.0,0.0,0.0,0.0,0.0,5.4221,5.6017,5.7663,5.8713,6.0209,6.1583,6.2241,6.2778,6.3168,6.3347,6.3227,6.3108,6.3108,6.3108,6.3108,6.3108,6.3451,6.4012,6.5005,6.6699,6.8181,6.9145,7.0505,7.1289,7.1289,7.1289,7.1075,7.05,7.1041,7.1041,7.05,7.1041,7.1289,7.1289,7.1289,7.1289,7.1289,7.1289,7.1289,7.1323,7.209,7.28,7.3567,7.4289,7.5168,7.6082,7.642,7.7266,7.8348,7.8686,7.9532,8.0581,0.0,0.0,0.0,0.0,0.0,0.0,0.0,0.0,0.0,0.0,0.0,0.0,0.0,0.0,0.0,0.0,3.7225,3.6866,3.6866,3.6267,3.6028,3.6281,3.6656,3.7135,3.7704,0.0,0.0,0.0,0.0,0.0,0.0,0.0,0.0,0.0,0.0,0.0,0.0,0.0,0.0,0.0,4.6031,0.0,0.0,4.7309,4.7309,0.0,0.0,0.0,4.8349,4.8618,4.8977,0.0,0.0,0.0,0.0,0.0,0.0,0.0,0.0,0.0,0.0,0.0,0.0,0.0,5.3324,5.479,5.6166,5.7124,5.8653,6.0146,6.1074,6.1792,6.2361,6.2659,6.2928,6.3108,6.3108,6.3108,6.3108,6.3108,6.3108,6.362,6.4978,6.6391,6.7749,6.9121,7.0505,7.1289,7.1289,7.1289,7.1109,7.0669,7.1075,7.1086,7.0669,7.1109,7.1289,7.1289,7.1289,7.1289,7.1289,7.1289,7.1289,7.1323,7.1751,7.236,7.3105,7.3849,7.4965,7.6217,7.6352,7.7232,7.8517,7.8957,7.9769,8.075,0.0,0.0,0.0,0.0,0.0,0.0,0.0,0.0,0.0,0.0,0.0,0.0,0.0,0.0,0.0,0.0,3.7973,3.7537,3.7614,3.6985,0.0,3.7375,3.7477,3.8063,3.9272,3.8781,3.911,4.0277,3.908,3.917,0.0,0.0,0.0,0.0,0.0,0.0,0.0,0.0,0.0,4.5454,4.6121,4.6749,0.0,0.0,4.7309,0.0,4.8057,4.8349,4.8528,4.9247,4.9516,0.0,0.0,0.0,0.0,0.0,4.9396,0.0,0.0,0.0,0.0,0.0,0.0,0.0,5.3479,5.3982,5.4461,5.5713,5.7064,5.8381,5.9638,6.0446,6.1104,6.1762,6.2421,6.2928,6.3078,6.3108,6.3108,6.3108,6.3108,6.362,6.4978,6.6391,6.7749,6.9121,7.0505,7.1289,7.1289,7.1289,7.1255,7.1176,7.1255,7.1255,7.1176,7.1176,7.1222,7.1289,7.1222,7.1222,7.1289,7.1289,7.1289,7.1289,7.1289,7.1718,7.2462,7.3105,7.4661,7.6589,7.5946,7.7029,7.8991,7.8991,7.9904,8.1291,0.0,0.0,0.0,0.0,0.0,0.0,0.0,0.0,0.0,0.0,0.0,0.0,0.0,0.0,0.0,0.0,0.0,3.8422,0.0,0.0,3.7285,3.7387,3.7913,3.8332,3.8571,3.902,3.9331,3.9601,3.9331,3.9601,4.0397,4.1104,0.0,0.0,0.0,0.0,0.0,0.0,0.0,4.6151,4.6809,0.0,4.7309,4.7309,4.7309,4.7399,4.8057,4.8648,4.9277,0.0,5.084,5.075,0.0,0.0,0.0,0.0,0.0,0.0,0.0,0.0,0.0,0.0,0.0,0.0,5.1804,5.2636,5.3623,5.4431,5.6047,5.7543,5.8351,5.9039,5.9727,6.0356,6.1044,6.1882,6.2958,6.3108,6.3108,6.3108,6.3108,6.362,6.4978,6.6391,6.7749,6.9121,7.0505,7.1289,7.1289,7.1289,7.1041,7.0432,7.1007,7.1007,7.0398,7.0398,7.0703,7.1289,7.0703,7.0737,7.1289,7.1289,7.1289,7.1289,7.1289,7.1718,7.2428,7.2563,7.3578,7.51,7.554,7.6724,7.8213,7.8213,7.9126,8.0615,0.0,0.0,0.0,0.0,0.0,0.0,0.0,0.0,0.0,0.0,0.0,0.0,0.0,0.0,0.0,0.0,0.0,0.0,0.0,0.0,3.8404,3.8404,3.8392,3.8888,3.9876,3.9589,3.972,4.0397,4.0068,4.0247,4.0905,4.1583,4.2241,0.0,0.0,0.0,0.0,0.0,4.6181,4.6809,4.716,0.0,4.7788,4.7788,4.7997,4.8379,4.9015,4.9673,5.0331,5.0966,5.1206,0.0,0.0,5.1206,5.1206,0.0,5.1415,5.1708,0.0,0.0,0.0,5.2276,0.0,0.0,0.0,5.2965,5.3773,5.4132,5.5239,5.6346,5.7034,5.7663,5.8441,5.9428,6.0146,6.0954,6.1942,6.2689,6.3108,6.3108,6.3108,6.362,6.4978,6.6391,6.8057,7.009,7.0882,7.1289,7.1289,7.1289,7.1142,7.077,7.1109,7.112,7.0737,7.0737,7.0939,7.1289,7.0939,7.0939,7.1289,7.1289,7.1289,7.1289,7.1289,7.1718,7.2428,7.28,7.3815,7.5236,7.6014,7.6995,7.8102,7.8822,7.9803,8.0919,0.0,0.0,0.0,0.0,0.0,0.0,0.0,0.0,0.0,0.0,0.0,0.0,0.0,0.0,0.0,0.0,0.0,0.0,0.0,0.0,0.0,3.978,3.926,3.9697,4.1164,4.0277,4.0247,4.1224,4.0786,4.0954,4.1583,4.2141,4.281,0.0,0.0,0.0,0.0,0.0,0.0,4.7309,0.0,4.7608,4.8117,4.8259,4.8648,4.9187,4.9949,5.0637,5.1206,5.1206,0.0,5.1295,5.1858,5.2097,0.0,0.0,0.0,0.0,0.0,0.0,0.0,0.0,0.0,5.3378,0.0,0.0,0.0,5.4221,5.473,5.5384,5.5923,5.6432,5.7124,5.8351,5.9189,5.9937,6.0625,6.1882,6.2718,6.2718,6.2718,6.3228,6.4603,6.6214,6.8144,7.0533,7.094,7.1142,7.1289,7.1289,7.1289,7.1289,7.1289,7.1289,7.1289,7.1176,7.1176,7.1289,7.1176,7.1176,7.1289,7.1289,7.1289,7.1289,7.1289,7.1718,7.2462,7.3195,7.4289,7.5574,7.6521,7.7435,7.8348,7.9532,8.0547,8.1418,4.0427,4.0834,0.0,0.0,0.0,0.0,0.0,0.0,0.0,0.0,0.0,0.0,0.0,0.0,0.0,0.0,0.0,0.0,4.3808,0.0,0.0,0.0,4.1104,0.0,4.0516,4.0954,4.0954,4.0516,4.1025,4.1613,4.2291,4.2351,4.305,0.0,4.4267,0.0,0.0,0.0,4.6689,0.0,4.7309,4.7369,0.0,4.8057,4.8349,4.8588,4.977,5.0637,5.1206,0.0,5.1206,5.1206,0.0,5.1738,0.0,0.0,0.0,0.0,0.0,0.0,0.0,0.0,5.3653,0.0,0.0,0.0,5.4221,5.4221,0.0,5.5209,5.5299,0.0,0.0,5.6402,5.7543,5.8563,5.9249,6.0475,6.1343,6.1343,6.1343,6.1838,6.3176,6.5623,6.749,6.8488,6.9647,7.0601,7.1255,7.1289,7.1289,7.1289,7.1289,7.1289,7.1289,7.0635,7.0635,7.1289,7.0635,7.0669,7.1289,7.1289,7.1289,7.1289,7.1289,7.1718,7.2462,7.3195,7.3984,7.4864,7.6318,7.7739,7.9025,7.916,8.0107,8.1418,0.0,0.0,0.0,0.0,0.0,0.0,0.0,0.0,0.0,0.0,0.0,0.0,0.0,0.0,0.0,0.0,0.0,0.0,0.0,0.0,0.0,0.0,0.0,0.0,0.0,4.1624,4.1463,4.1553,4.1822,4.2141,4.241,4.278,4.3419,0.0,4.4706,0.0,4.633,0.0,0.0,0.0,0.0,0.0,0.0,4.8618,4.9337,5.0062,5.0578,5.0966,5.1206,0.0,5.1206,0.0,0.0,0.0,0.0,0.0,0.0,0.0,0.0,0.0,0.0,0.0,0.0,0.0,0.0,0.0,5.5867,0.0,0.0,0.0,0.0,0.0,0.0,0.0,5.7423,5.7752,5.8441,5.868,5.9368,6.0924,6.1076,6.1926,6.4049,6.4577,6.5869,6.8526,6.8927,6.9534,7.0591,7.1075,7.1289,7.1289,7.1289,7.1289,7.1289,7.1007,7.1007,7.1289,7.1007,7.1007,7.1289,7.1289,7.1289,7.1289,7.1289,7.1954,7.3037,7.3364,7.4458,7.6048,7.7096,7.7908,7.8517,7.8957,7.9769,8.0818,0.0,0.0,0.0,0.0,0.0,0.0,0.0,0.0,0.0,0.0,0.0,0.0,4.6779,4.7168,0.0,0.0,0.0,4.692,0.0,0.0,4.4047,0.0,0.0,0.0,0.0,0.0,4.2271,4.241,4.2571,4.275,4.293,4.316,4.3848,4.4865,0.0,4.5783,4.66,0.0,0.0,4.7309,4.7309,4.7818,4.8648,4.9307,5.0242,5.1206,5.1206,5.1206,5.1206,5.1206,5.1206,0.0,5.1768,0.0,0.0,0.0,0.0,0.0,5.3832,0.0,0.0,0.0,0.0,0.0,0.0,0.0,0.0,0.0,0.0,0.0,0.0,0.0,0.0,0.0,0.0,5.7274,5.7782,5.7423,5.7812,5.9787,6.0176,6.1116,6.3258,6.3201,6.4374,6.7477,6.7976,6.8727,7.0139,7.0703,7.1086,7.1289,7.1289,7.1289,7.1289,7.1289,7.1289,7.1289,7.1289,7.1289,7.1289,7.1289,7.1289,7.1289,7.1289,7.2157,7.35,7.35,7.4695,7.6657,7.7401,7.7831,7.8111,7.9058,8.0006,8.0919,4.313,4.326,0.0,0.0,0.0,0.0,0.0,0.0,0.0,0.0,0.0,0.0,0.0,0.0,0.0,0.0,0.0,5.0511,4.9187,0.0,4.6591,0.0,0.0,0.0,0.0,0.0,0.0,4.241,4.3,4.3609,4.4227,4.3609,4.4356,4.6211,4.5574,4.6022,4.7279,4.7309,4.7309,4.7309,4.7309,4.8087,4.9337,0.0,5.0607,5.1206,5.1206,0.0,0.0,5.1206,5.1206,0.0,0.0,0.0,0.0,0.0,0.0,0.0,0.0,0.0,0.0,5.6042,0.0,0.0,0.0,0.0,5.7094,0.0,0.0,0.0,0.0,0.0,0.0,0.0,0.0,0.0,0.0,5.7094,5.7124,5.7214,5.7812,5.8497,5.9234,6.1545,6.3348,6.4191,6.6532,6.8562,7.0094,7.0217,7.0567,7.1289,7.1289,7.1289,7.1289,7.1289,7.1289,7.1289,7.1289,7.1289,7.1289,7.1289,7.1289,7.1289,7.1289,7.2157,7.35,7.35,7.4356,7.5811,7.6623,7.7367,7.8204,7.9634,8.1088,8.2238,0.0,0.0,0.0,0.0,0.0,0.0,0.0,4.4326,0.0,0.0,0.0,0.0,0.0,0.0,5.294,0.0,0.0,5.2456,5.0661,4.9344,0.0,0.0,0.0,4.5514,0.0,0.0,0.0,0.0,0.0,4.4506,4.4296,4.4506,4.5224,4.63,0.0,4.645,0.0,0.0,0.0,0.0,0.0,4.974,5.0541,0.0,0.0,5.1206,5.1206,5.1206,0.0,5.1206,5.1206,5.1206,5.1206,5.1379,5.1678,5.2336,5.2995,0.0,0.0,0.0,5.5474,5.6526,0.0,0.0,0.0,0.0,0.0,0.0,0.0,0.0,0.0,0.0,0.0,0.0,0.0,0.0,0.0,5.6761,5.6671,5.7034,5.8082,5.9024,5.9721,6.0495,6.1605,6.3118,6.4883,6.6522,6.7886,6.9383,7.0297,7.0567,7.1075,7.1289,7.1289,7.1289,7.1289,7.1289,7.1289,7.1289,7.1289,7.1289,7.1289,7.1323,7.1819,7.2597,7.3601,7.4525,7.5236,7.5879,7.7671,7.8213,7.8136,7.9126,8.0412,8.1765,4.4296,0.0,0.0,0.0,0.0,0.0,0.0,0.0,0.0,0.0,5.0368,0.0,5.461,0.0,5.4999,0.0,5.5448,5.4436,5.1738,5.1462,0.0,4.9337,4.8079,0.0,0.0,0.0,0.0,0.0,0.0,4.5454,4.5014,4.5214,4.5783,4.6659,0.0,4.6659,4.7309,0.0,4.7908,0.0,0.0,5.0458,0.0,0.0,5.0966,5.1505,0.0,5.1206,5.1206,5.1206,5.1206,5.1206,5.1206,5.1206,5.1355,5.2276,5.2869,5.3408,5.4311,5.488,0.0,5.6496,5.6944,0.0,5.8501,0.0,0.0,0.0,0.0,0.0,0.0,0.0,0.0,0.0,0.0,0.0,0.0,5.6641,5.6671,5.7034,5.8082,5.9063,5.9964,6.0403,6.1202,6.264,6.4277,6.5674,6.6736,6.8707,6.9925,7.0195,7.0939,7.1289,7.1289,7.1289,7.1289,7.1289,7.1289,7.1289,7.1289,7.1289,7.1289,7.1323,7.209,7.28,7.3635,7.51,7.5879,7.6318,7.8314,7.8822,7.8517,7.9498,8.0479,8.1554,0.0,0.0,0.0,0.0,4.4326,0.0,0.0,0.0,4.8805,0.0,5.1594,5.3443,5.6162,5.6432,5.6671,5.7244,5.7846,0.0,5.2845,5.4251,0.0,0.0,5.069,5.069,4.9516,0.0,0.0,0.0,0.0,0.0,4.633,4.5693,4.6082,4.7279,4.6629,0.0,4.7339,4.8019,4.8349,4.8506,4.974,5.0255,5.0345,5.0966,5.1618,5.2127,5.1415,5.1206,5.1206,5.1206,5.1206,5.1206,5.1206,5.1206,5.1505,5.2839,5.3228,5.3528,5.482,5.5179,5.5359,5.6042,5.6671,0.0,0.0,0.0,5.9099,0.0,0.0,0.0,0.0,0.0,0.0,0.0,0.0,0.0,0.0,0.0,5.7154,5.7154,5.7723,5.8527,5.9638,6.0997,6.1984,6.2453,6.4421,6.5899,6.6656,6.8199,6.9383,7.0094,7.0906,7.1289,7.1289,7.1289,7.1289,7.1289,7.1289,7.1289,7.1289,7.1289,7.1289,7.1323,7.2124,7.2834,7.3635,7.5168,7.6251,7.7063,7.8585,7.9194,7.9397,8.0818,8.1351,8.1689,4.5702,4.5792,4.5613,0.0,4.4646,4.4625,0.0,0.0,0.0,0.0,5.473,5.6855,5.9548,5.9847,5.9907,6.0086,5.9787,0.0,0.0,0.0,0.0,5.5119,5.3054,5.2007,5.2211,5.0115,0.0,4.8528,0.0,0.0,4.704,4.689,4.698,4.7309,4.713,4.716,4.7339,4.8019,4.8835,4.977,5.0607,5.1236,0.0,0.0,5.1618,5.2127,5.1415,5.1206,5.1206,5.1206,5.1206,5.1206,5.1206,5.1558,5.2127,5.2959,5.3533,5.4132,5.497,5.5179,5.5359,5.6042,5.6671,5.7274,0.0,0.0,0.0,0.0,0.0,0.0,0.0,0.0,0.0,0.0,0.0,0.0,0.0,0.0,0.0,5.7846,0.0,0.0,5.7833,5.935,6.0193,5.9848,6.2444,6.441,6.5121,6.7083,6.8571,6.935,7.0635,7.1289,7.1289,7.1289,7.1289,7.1289,7.1289,7.1289,7.1289,7.1289,7.1289,7.1357,7.2665,7.3331,7.3703,7.6342,7.7198,7.7096,7.9126,8.0242,8.0851,8.1765,8.2137,8.2374,4.6241,0.0,0.0,4.6292,0.0,0.0,4.7945,0.0,0.0,5.4162,5.6077,0.0,5.9997,6.0775,6.1224,6.1523,6.0924,0.0,0.0,0.0,0.0,5.6761,5.5478,5.4551,5.4097,5.1791,0.0,4.9673,0.0,0.0,4.7309,4.7309,4.7309,4.7309,4.7309,4.7309,4.7369,4.8349,4.9464,5.0667,5.1056,5.1415,0.0,5.1325,5.1415,5.1708,5.1325,5.1206,5.1206,5.1206,5.1206,5.1206,5.1206,5.1445,5.1947,5.2929,5.3468,5.3952,5.494,5.5179,5.5269,5.5683,5.6252,5.6855,5.7513,5.8201,5.877,0.0,5.9099,5.9099,0.0,0.0,0.0,0.0,0.0,0.0,0.0,0.0,0.0,0.0,5.7846,5.7513,5.7124,5.875,5.9762,5.9609,6.2037,6.3815,6.4546,6.6711,6.8267,6.9079,7.0838,7.165,7.1289,7.1616,7.1616,7.1289,7.1289,7.1289,7.1289,7.1289,7.1458,7.1853,7.3003,7.3872,7.465,7.6995,7.7942,7.801,7.96,8.0648,8.1351,8.1765,8.19,8.2171,0.0,0.0,0.0,0.0,0.0,0.0,0.0,5.1056,0.0,5.5299,0.0,5.8231,5.9488,6.0655,6.1613,6.2181,0.0,6.0508,5.8863,6.0209,5.9847,5.6971,5.7752,5.7363,5.5478,5.3384,0.0,0.0,0.0,0.0,4.7429,4.7339,4.7309,4.7309,4.7309,4.7399,0.0,4.8798,5.0055,5.1206,5.1295,5.1325,5.1325,5.1325,5.1325,5.1325,5.1236,5.1206,5.1206,5.1206,5.1206,5.1206,5.1206,5.1325,5.1708,5.2869,5.3318,5.3737,5.488,5.5179,5.5179,5.5179,5.5713,5.6372,5.6944,5.7633,5.8294,5.8979,5.9099,5.9099,0.0,0.0,0.0,0.0,0.0,0.0,0.0,0.0,0.0,0.0,0.0,0.0,5.7244,5.8574,5.9611,6.0108,6.2078,6.3579,6.4342,6.6525,6.8166,6.9079,7.1041,7.1887,7.1424,7.1988,7.1988,7.1424,7.1357,7.1289,7.1289,7.1289,7.1718,7.2428,7.3172,7.4255,7.5676,7.7299,7.8483,7.9329,7.9938,8.0581,8.1181,8.1283,8.1317,8.1621,0.0,0.0,0.0,0.0,0.0,5.2097,5.473,5.5568,5.6496,5.8201,6.0057,6.1523,6.2329,6.2629,6.2808,6.2928,6.2301,0.0,0.0,0.0,0.0,6.0266,5.9398,5.8261,5.6795,5.4306,5.2636,0.0,0.0,0.0,4.8087,4.7549,4.7309,4.7309,4.7309,4.7908,4.8977,4.9187,0.0,5.1236,5.1798,5.2037,5.2037,5.2037,5.2037,5.1947,5.1385,5.1206,5.1206,5.1206,5.1206,5.1206,5.1206,5.1977,5.2899,5.3139,5.3982,5.488,5.5119,5.5179,5.5179,5.5179,5.5713,5.6372,5.6944,5.7633,5.8294,5.8979,5.9099,5.9099,5.9099,0.0,0.0,0.0,0.0,0.0,0.0,0.0,0.0,0.0,0.0,5.7905,0.0,5.7672,5.7511,5.7621,6.0368,6.2345,6.3073,6.5584,6.7658,6.9045,7.006,7.1109,7.2191,7.1729,7.1729,7.2191,7.1594,7.1289,7.1289,7.1289,7.1718,7.2428,7.3172,7.3984,7.4965,7.7096,7.8788,8.0006,8.0141,8.0276,8.0479,8.108,8.1317,8.1554,0.0,0.0,0.0,0.0,0.0,0.0,0.0,5.9129,0.0,5.9189,5.9937,6.0655,6.0984,6.2269,6.3108,6.3108,6.2808,6.2778,6.3078,6.248,6.1822,6.1134,6.0475,0.0,5.7663,5.5059,5.3204,5.2187,0.0,0.0,4.7758,4.7459,4.7309,4.7309,4.7309,4.8027,0.0,0.0,0.0,5.1798,5.2456,5.2719,5.2719,5.2719,5.2719,5.2665,5.2336,5.2247,5.2187,5.1858,5.1947,5.2247,5.2247,5.2665,5.3288,5.3623,5.4192,5.476,5.5089,5.5179,5.5179,5.5179,5.5444,5.5863,5.6492,5.7124,5.7782,5.8444,5.886,5.9099,5.9099,5.886,0.0,0.0,0.0,0.0,0.0,0.0,0.0,0.0,0.0,0.0,0.0,0.0,5.726,5.8916,6.1004,6.2822,6.4227,6.5876,6.7523,6.9045,7.0195,7.1109,7.1819,7.1853,7.1853,7.1853,7.1458,7.1492,7.1887,7.1887,7.2496,7.3578,7.3916,7.4931,7.6521,7.8382,7.9566,8.0242,8.0615,8.0987,8.1393,8.1731,8.2103,8.2543,0.0,5.0145,0.0,0.0,5.5144,0.0,5.9069,6.1491,6.2359,6.0236,5.9937,5.9937,5.9937,6.185,6.3108,6.3108,6.3108,6.3108,6.3108,6.3108,6.2569,6.1373,6.1194,6.0209,5.8354,5.5897,5.3832,0.0,0.0,0.0,0.0,4.7309,4.7309,4.7309,4.7459,0.0,0.0,0.0,5.1086,5.2276,5.3109,5.3408,5.3408,5.3408,5.3408,5.3408,5.3258,5.3288,5.3324,5.2785,5.2875,5.3198,5.3198,5.3318,5.3528,5.4042,5.4311,5.4521,5.5059,5.5179,5.5179,5.5179,5.5179,5.5384,5.6042,5.6671,5.7304,5.7965,5.8623,5.9099,5.9099,5.9099,0.0,0.0,0.0,0.0,0.0,0.0,0.0,0.0,0.0,0.0,5.7393,5.6761,5.7542,6.0321,6.1498,6.2782,6.4379,6.5783,6.7286,6.8808,7.0161,7.1075,7.1548,0.0,7.1954,7.1526,7.1526,7.1853,7.2394,7.2563,7.3443,7.483,7.483,7.6149,7.8314,7.9498,8.0141,8.0479,8.0885,8.1596,8.2408,8.2238,8.2746,8.349,0.0,0.0,0.0,0.0,0.0,0.0,5.9877,6.179,6.3018,6.2778,6.2748,6.2748,6.2748,6.2958,6.3108,6.3108,6.3108,6.3108,6.3108,6.3108,6.2778,6.2032,6.1433,6.0446,5.9039,5.706,5.4785,0.0,0.0,0.0,0.0,4.7309,4.7309,0.0,0.0,0.0,0.0,5.0601,5.1528,5.2306,5.3593,5.4132,5.4132,5.4132,5.4132,5.4042,5.3414,5.3593,5.4102,5.4042,5.3653,5.3198,5.3198,5.3623,5.4132,5.4192,5.464,5.5119,5.5179,5.5179,5.5179,5.5179,5.5179,5.5384,5.6042,5.6671,5.7304,5.7965,5.8623,5.9099,5.9099,5.9099,5.9308,0.0,0.0,0.0,0.0,0.0,0.0,0.0,0.0,0.0,0.0,5.7423,5.7621,5.9153,5.9797,6.0238,6.0438,6.3839,6.6474,6.7963,6.8842,7.0263,7.2293,7.1718,7.1718,7.2293,7.2293,7.2326,7.2428,7.3071,7.4187,7.5608,7.5608,7.6893,7.9025,7.916,8.0006,8.1148,8.0547,8.1156,8.234,8.1629,8.2272,8.349,0.0,0.0,0.0,0.0,0.0,0.0,0.0,6.2599,6.3108,6.3108,6.3108,6.3108,6.3108,6.3108,6.3108,6.3108,6.3108,6.3108,6.3108,6.3108,6.2808,6.2121,6.1463,6.0655,5.9727,5.7752,5.5837,0.0,0.0,0.0,0.0,0.0,0.0,0.0,0.0,4.9486,5.0511,5.1828,5.2785,5.3473,5.4431,5.479,5.479,5.479,5.479,5.476,5.4491,5.4551,5.479,5.479,5.461,5.4426,5.4426,5.4581,5.479,5.479,5.497,5.5179,5.5179,5.5179,5.5179,5.5179,5.5504,5.5863,5.6132,5.6974,5.7782,5.8025,5.8623,5.9099,5.9099,5.9099,5.9308,5.9967,0.0,0.0,0.0,0.0,0.0,0.0,0.0,0.0,0.0,5.6915,0.0,0.0,5.9709,6.1478,6.2283,6.4874,6.7049,6.8571,0.0,6.9958,7.1718,7.1424,7.1424,7.1751,7.2191,7.2631,7.3105,7.4289,7.5642,7.7096,7.7536,7.828,7.9135,7.96,8.0107,8.0648,8.0784,8.1494,8.2441,8.2577,8.3287,8.4167,5.727,0.0,5.8348,0.0,6.0565,6.0894,6.2808,6.3108,6.3108,6.3108,6.3108,6.3108,6.3108,6.3108,6.3108,6.3108,6.3108,6.3108,6.3108,6.3108,6.2898,6.2391,6.1762,0.0,6.0416,5.88,5.7154,5.5478,5.3862,0.0,0.0,0.0,0.0,0.0,5.0055,5.0953,5.1887,5.3438,5.4366,5.485,5.5478,5.5748,5.5718,5.5538,5.5478,5.5474,5.5269,5.5179,5.5209,5.5444,5.5478,5.5474,5.5239,5.5354,5.5478,5.5478,5.5598,5.5748,5.5748,5.5748,5.5748,5.5748,5.6107,5.6462,5.6462,5.7304,5.8145,5.8354,5.877,5.9099,5.9099,5.9099,5.9308,5.9967,0.0,0.0,0.0,0.0,0.0,0.0,5.9491,5.8115,5.7453,5.6825,0.0,0.0,0.0,6.2298,6.2995,6.544,6.74,0.0,0.0,0.0,7.1289,7.1289,7.1391,7.165,7.236,7.3206,7.4187,7.5912,7.7299,7.8348,7.9092,7.9431,7.9464,8.0006,8.0445,8.0885,8.1156,8.2002,8.3058,8.3389,8.3964,8.4614,5.9787,6.0595,6.1463,6.2838,6.3048,6.3078,6.3108,6.3108,6.3108,6.3108,6.3108,6.3108,6.3108,6.3108,6.3108,6.3108,6.3108,6.3108,6.3108,6.3108,6.3108,0.0,0.0,6.1762,6.1076,6.0416,5.8797,5.6192,0.0,0.0,5.1176,0.0,5.0548,5.1206,5.2546,5.3169,5.3318,5.5324,5.6162,5.6222,5.6825,5.7064,5.7004,5.6402,5.6192,5.6102,5.5444,5.5179,5.5299,5.5953,5.6192,5.6072,5.5388,5.5653,5.6192,5.6192,5.6611,5.7064,5.7064,5.7064,5.7064,5.7064,5.7064,5.7094,5.7094,5.7633,5.8294,5.8949,5.9099,5.9099,5.9099,5.9099,5.9308,5.9967,0.0,0.0,0.0,0.0,0.0,0.0,5.9907,5.883,5.8145,5.7483,0.0,0.0,0.0,6.1675,0.0,0.0,0.0,6.7895,6.9383,0.0,7.1289,7.1289,7.1684,7.2394,7.3105,7.4255,7.5743,7.8044,7.9067,7.9126,7.987,8.0175,8.0175,8.0209,8.1054,8.2306,8.1562,8.2644,8.4478,8.3761,8.3964,8.4614,6.1373,6.2002,6.26,6.3048,6.3108,6.3108,6.3108,6.3108,6.3108,6.3108,6.3108,6.3108,6.3108,6.3108,6.3108,0.0,6.3108,6.3108,0.0,6.3108,6.3108,6.3108,6.245,6.2002,6.1792,6.1134,6.0146,5.8857,0.0,0.0,0.0,5.2576,5.2606,5.324,5.3683,5.4371,5.5324,5.6372,5.6795,5.6825,5.7004,5.7094,5.7064,5.6885,5.6795,5.6791,5.6555,5.6226,5.5983,5.6611,5.6551,5.6222,5.6406,5.6645,5.6795,5.6795,5.6944,5.7094,5.7094,5.7094,5.7094,5.7094,5.7453,5.7782,5.7782,5.8294,5.886,5.9069,5.9099,5.9099,5.9099,5.9099,5.9488,6.0595,6.0565,0.0,0.0,0.0,0.0,0.0,5.9249,5.8324,5.8115,5.7483,0.0,0.0,0.0,0.0,0.0,0.0,0.0,0.0,6.9688,0.0,7.1289,7.1289,7.1684,7.2428,7.3646,7.5574,7.8044,7.8763,7.9397,7.987,8.0107,8.0209,8.0209,8.0209,8.0784,8.1629,8.1418,8.234,8.3828,8.3592,8.3964,8.4614,6.248,6.2808,6.3108,6.3108,6.3108,6.3108,6.3108,6.3108,6.3108,6.3108,6.3108,6.3108,6.3108,6.3108,0.0,6.3108,6.3108,6.3108,6.3108,6.3108,6.3108,6.3108,6.2718,6.2361,6.2091,6.1942,0.0,6.0475,5.8863,5.7128,5.5269,5.4635,5.467,5.5299,5.5543,5.6137,5.6944,5.7573,5.7842,5.7842,5.7842,5.7842,5.7812,5.7573,5.7483,5.7453,5.7184,5.6881,5.6641,5.7274,5.7244,5.7004,5.7663,5.7842,5.7812,5.7543,5.7663,5.7842,5.7842,5.7842,5.7842,5.7842,5.8171,5.8474,5.8474,5.88,5.9099,5.9099,5.9099,5.9099,5.9099,5.9099,5.9368,6.0236,6.0206,6.0386,6.1224,0.0,0.0,0.0,0.0,0.0,0.0,5.8471,5.8961,0.0,0.0,0.0,0.0,0.0,6.8707,6.9485,7.0229,7.0838,7.1289,7.156,7.209,7.2834,7.4897,7.7029,7.9101,7.9397,7.9769,8.0209,8.0209,8.0209,8.0209,8.0209,8.0615,8.1351,8.1596,8.2441,8.3524,8.3828,8.4174,8.4614,6.3108,6.3108,6.3108,6.3108,6.3108,6.3108,6.3108,6.3108,6.3108,6.3108,6.3108,6.3108,6.3108,6.3108,6.3108,6.3108,0.0,0.0,6.3108,6.3108,6.3108,6.3108,6.3108,6.2808,6.2181,6.2778,6.2421,6.1076,5.9251,5.8022,5.7304,5.6731,5.6791,5.7393,5.7905,5.8205,5.8264,5.886,5.9099,5.9099,5.9099,5.9099,5.9039,5.8414,5.8175,5.8085,5.7453,5.7244,5.7334,5.7995,5.8205,5.8294,5.9009,5.9189,5.8979,5.8354,5.8593,5.9099,5.9099,5.9099,5.9099,5.9099,5.9099,5.9099,5.9099,5.9099,5.9099,5.9099,5.9099,5.9099,5.9099,5.9099,5.9129,5.9159,5.9638,6.0054,6.0114,0.0,0.0,0.0,0.0,0.0,6.0114,6.0116,6.0717,0.0,0.0,0.0,0.0,0.0,6.9397,7.0184,7.0939,7.1289,7.1289,7.2022,7.2834,7.3771,7.6715,7.845,7.9194,7.9904,8.0209,8.0209,8.0209,8.0209,8.0209,8.0242,8.0682,8.1384,8.2171,8.2915,8.3592,8.4309,8.4614,8.4614,0.0,0.0,6.3108,6.3108,6.3108,6.3108,6.3108,6.3108,6.3108,6.3108,6.3108,6.3108,6.3108,6.3108,6.3108,6.3108,6.3108,6.3108,6.3108,6.3108,6.3108,6.3108,6.3108,6.3048,6.2868,6.3018,6.2421,6.1076,6.1134,6.0535,5.9368,5.9246,5.9518,6.0116,5.9249,5.9159,5.9608,5.9249,5.9099,5.9099,5.9099,5.9099,5.9099,5.8919,5.886,5.886,5.868,5.862,5.874,5.9398,5.9279,5.9069,6.0266,5.9937,5.9069,5.8919,5.8979,5.9099,5.9099,5.9099,5.9099,5.9099,5.9099,5.9099,5.9099,5.9099,5.9099,5.9099,5.9099,5.9099,5.9099,5.9099,5.9279,5.9757,5.9548,5.9518,6.0054,5.9668,5.9338,0.0,5.9787,6.0114,6.0114,6.0565,6.1385,0.0,0.0,6.4526,6.7462,6.8068,6.8925,7.0173,7.0939,7.1289,7.1289,7.2022,7.3646,7.6115,7.7976,7.9228,7.9938,8.0107,8.0209,8.0209,8.0209,8.0209,8.0242,8.0784,8.1148,8.1452,8.2712,8.3355,8.3592,8.4309,8.4614,8.4614,6.3108,6.3108,6.3108,6.3108,6.3108,6.3108,6.3108,6.3108,6.3108,6.3108,6.3108,6.3108,6.3108,6.3108,6.3108,6.3108,6.3108,6.3108,6.3108,6.3108,6.3108,6.3108,6.3108,6.3108,6.3108,6.3108,6.2599,6.1553,6.1912,6.1583,6.0565,6.0565,6.0745,6.1074,6.0356,6.0057,6.0084,5.9697,5.9368,5.9099,5.9099,5.9279,5.9548,5.9548,5.9757,6.0027,6.0027,6.0027,6.0086,6.0446,6.0326,6.0146,6.0894,6.0597,6.0027,6.0027,5.9578,5.9159,5.9458,5.9548,5.9638,5.9937,6.0027,6.0027,6.0027,5.9787,5.9548,5.9548,5.9548,5.9548,5.9548,5.9548,5.9668,6.0054,5.9548,5.9219,5.9578,5.9338,5.9219,5.9518,6.0146,6.0685,6.0984,6.1343,6.208,6.3374,6.4053,0.0,6.7988,6.9044,6.9902,7.068,7.1086,7.1458,7.1819,7.3206,7.5067,7.7401,7.8551,7.9498,8.0209,8.0209,8.0209,8.0209,8.0209,8.0209,8.0242,8.1012,8.1317,8.1452,8.2915,8.349,8.3592,8.4309,8.4614,8.4614,6.3108,6.3108,6.3108,6.3108,6.3108,6.3108,6.3108,6.3108,6.3108,6.3108,6.3108,6.3108,6.3108,6.3108,6.3108,6.3108,6.3108,6.3108,6.3108,6.3108,6.3108,6.3108,6.3108,6.3108,6.3108,6.3108,6.2778,6.2091,6.2181,6.1912,6.1253,6.1373,6.1403,6.1403,6.1313,6.0924,6.0413,6.0266,5.9907,5.9398,5.9398,5.9727,6.0236,6.0236,6.0595,6.1076,6.1076,6.1194,6.1253,6.1253,6.1253,6.1283,6.1373,6.1283,6.1164,6.1343,6.0446,5.9548,6.0086,6.0236,6.0386,6.0954,6.1076,6.1076,6.1076,6.0655,6.0236,6.0236,6.0236,6.0236,6.0236,6.0174,6.0114,6.0114,5.9548,5.9099,5.9099,0.0,5.9338,5.9997,6.0685,6.1373,6.2032,6.2181,6.269,6.3787,6.5219,6.6602,6.7888,6.9883,7.1142,7.1458,7.1458,7.1954,7.2902,7.4864,7.6657,7.8145,7.8923,7.96,8.0209,8.0209,8.0209,8.0209,8.0209,8.0209,8.0242,8.1012,8.1249,8.1257,8.2746,8.3321,8.3422,8.414,8.4512,8.4614,6.3108,6.3108,6.3108,6.3108,6.3108,6.3108,6.3108,6.3108,6.3108,6.3108,6.3108,6.3108,6.3108,6.3108,6.3108,6.3108,6.3108,6.3108,6.3108,6.3108,6.3108,6.3108,6.3108,6.3108,6.3108,6.3108,6.2778,6.2091,6.2689,6.26,6.1972,6.251,6.2808,6.2778,6.2181,6.1882,6.1762,6.1194,6.0894,6.0777,6.0777,6.0837,6.0954,6.0954,6.1014,6.1076,6.1076,6.1463,6.1942,6.1942,6.1942,6.2032,6.26,6.2002,6.1343,6.245,6.1822,6.0835,6.0924,6.0954,6.0984,6.1046,6.1076,6.1076,6.1076,6.1044,6.0954,6.0954,6.0954,6.0954,6.0954,6.0475,6.0114,6.0114,5.9548,5.9099,5.9099,0.0,5.9338,5.9997,6.0685,6.1373,6.2032,6.26,6.3044,6.3213,6.4494,6.589,6.7259,6.8707,7.0366,7.2146,7.2225,7.3172,7.5168,7.6183,7.7468,7.8957,7.9667,8.0073,8.0209,8.0209,8.0209,8.0209,8.0209,8.0209,8.0242,8.1012,8.0919,8.0513,8.2002,8.2577,8.2678,8.3389,8.4065,8.4614,6.3108,6.3377,6.3468,6.3168,6.3377,6.3497,6.3168,6.3108,6.3108,6.3108,6.3108,6.3108,6.3108,6.3108,6.3108,6.3108,6.3108,6.3108,6.3108,6.3108,6.3108,6.3108,6.3108,6.3108,6.3108,6.3108,6.2958,6.2659,6.2958,6.2958,6.2659,6.2958,6.3108,6.3108,6.2778,6.2421,6.2061,6.1762,6.1433,6.1076,6.1076,6.1313,6.1642,6.1642,6.1852,6.2181,6.2181,6.2361,6.2659,6.2659,6.2659,6.2689,6.3018,6.2689,6.2301,6.2928,6.2391,6.1642,6.1642,6.1642,6.1732,6.2091,6.2181,6.2181,6.2181,6.1912,6.1642,6.1642,6.1642,6.1642,6.1642,6.1104,6.0745,6.1104,5.9997,5.9219,5.9578,5.9638,5.9877,6.0565,6.1224,6.1912,6.257,6.2928,6.3108,6.3108,6.5428,6.6928,6.7196,6.9555,7.1549,7.2969,7.3375,7.4289,7.5676,7.6893,7.8044,7.9126,7.987,8.0209,8.0209,8.0209,8.0209,8.0209,8.0209,8.0209,8.0242,8.1012,8.1114,8.0885,8.1968,8.2644,8.305,8.3355,8.3964,8.4614,6.3108,6.3588,6.3797,6.3227,6.3588,6.3797,6.3197,6.3108,6.3108,6.3108,6.3227,6.3317,6.3317,6.3467,6.3468,6.3347,6.3317,6.3257,6.3108,6.3108,6.3108,6.3108,6.3108,6.3108,6.3108,6.3108,6.3108,6.3108,6.3108,6.3108,6.3108,6.3108,6.3108,6.3108,6.3108,6.2808,6.2331,6.2331,6.2032,6.1553,6.1553,6.1882,6.2331,6.2331,6.2659,6.3108,6.3108,6.3108,6.3108,6.3108,6.3108,6.3108,6.3108,6.3108,6.3108,6.3108,6.2748,6.2331,6.2331,6.2331,6.2479,6.2988,6.3108,6.3108,6.3108,6.2718,6.2331,6.2331,6.2331,6.2331,6.2331,6.1792,6.1463,6.1822,0.0,5.9697,6.0054,6.0206,6.0565,6.1253,6.1792,6.2361,6.3048,6.3108,6.3282,6.3775,6.6614,6.8273,6.8221,7.1028,7.2969,7.3713,7.4661,7.5506,7.6217,7.757,7.8619,7.9363,7.9938,8.0209,8.0209,8.0209,8.0209,8.0209,8.0209,8.0209,8.0242,8.1012,8.1215,8.1122,8.2069,8.2644,8.3016,8.3355,8.3862,8.4377,6.3108,6.3588,6.3797,6.3227,6.3588,6.3797,6.3197,6.3108,6.3108,6.3108,6.3588,6.3917,6.3917,6.4515,6.4605,6.3977,6.3917,6.3677,6.3138,6.3108,6.3108,6.3108,6.3108,6.3108,6.3108,6.3108,6.3108,6.3108,6.3108,6.3108,6.3108,6.3108,6.3108,6.3108,6.3108,6.3078,6.3048,6.3048,6.3018,6.2958,6.2958,6.2988,6.3048,6.3048,6.3078,6.3108,6.3108,6.3108,6.3108,6.3108,6.3108,6.3108,6.3108,6.3108,6.3108,6.3108,6.3078,6.3048,6.3048,6.3048,6.3048,6.3108,6.3108,6.3108,6.3108,6.3078,6.3048,6.3048,6.3048,6.3048,6.3048,6.248,6.1852,6.1283,0.0,0.0,6.0176,6.0625,6.1283,6.1942,6.2061,6.2361,6.3048,6.3108,6.3891,6.5843,6.7429,6.913,7.1078,7.2605,7.3747,7.4492,7.598,7.7063,7.7831,7.8619,7.9397,8.0107,8.0175,8.0209,8.0209,8.0209,8.0209,8.0209,8.0209,8.0209,8.0242,8.1012,8.0885,8.0412,8.1866,8.2002,8.1655,8.2983,8.3524,8.3693,6.3168,6.3917,6.4306,6.3287,6.3588,6.3797,6.3197,6.3437,6.3647,6.3647,6.4216,6.4456,6.4036,6.4246,6.4126,6.3527,6.3467,6.3318,6.3108,6.3108,6.3108,6.3108,6.3108,6.3108,6.3108,6.3108,6.3108,6.3108,6.3108,6.3108,6.3108,6.3108,6.3108,6.3108,6.3108,6.3108,6.3108,6.3108,6.3108,6.3108,6.3108,6.3108,6.3108,6.3108,6.3108,6.3108,6.3108,6.3108,6.3108,6.3108,6.3108,6.3168,6.3528,6.3647,6.3647,6.3647,6.3647,6.3647,6.3647,6.3407,6.3108,6.3108,6.3108,6.3108,6.3108,6.3108,6.3108,6.3108,6.3108,6.3108,6.3108,6.254,6.2151,6.2301,0.0,6.1164,6.1313,6.1553,6.1822,6.2061,6.245,6.2838,6.3078,6.3108,6.3948,6.6044,6.7947,6.9724,7.1425,7.3223,7.4322,7.4593,7.6115,7.7232,7.7976,7.828,7.9025,8.0209,8.0209,8.0209,8.0209,8.0209,8.0209,8.0209,8.0209,8.0209,8.0209,8.0479,8.0445,8.031,8.1325,8.1832,8.2103,8.3118,8.3795,8.4208,6.3197,6.3947,6.4366,6.3287,6.3767,6.4096,6.3468,6.3707,6.4066,6.4306,6.4695,6.4904,6.4665,6.4814,6.4695,6.4096,6.4006,6.3917,6.3707,6.3498,6.3317,6.3108,6.3108,6.3108,6.3108,6.3108,6.3108,6.3108,6.3108,6.3108,6.3108,6.3108,6.3108,6.3108,6.3108,6.3108,6.3108,6.3108,6.3108,6.3108,6.3108,6.3108,6.3108,6.3108,6.3108,6.3108,6.3108,6.3108,6.3108,6.3108,6.3227,6.3438,6.3857,6.4156,6.4306,6.4306,6.4306,6.4306,6.4306,6.4006,6.3677,6.3677,6.3528,6.3407,6.3407,6.3528,6.3617,6.3437,6.3528,6.3677,6.3677,6.3318,6.3019,6.3108,6.248,6.2032,6.2091,6.2271,6.248,6.266,6.3079,6.3468,6.3677,6.414,6.5264,6.7351,6.9308,7.1106,7.2736,7.4176,7.4965,7.4965,7.598,7.6893,7.7638,7.8111,7.8957,8.0209,8.0209,8.0209,8.0209,8.0209,8.0209,8.0209,8.0209,8.0209,8.0209,8.0445,8.0412,8.031,8.1494,8.2002,8.2205,8.3389,8.4031,8.4275,6.3108,6.3588,6.3827,6.3227,6.4156,6.4785,6.4126,6.4006,6.4246,6.4904,6.5024,6.5263,6.5951,6.658,6.6729,6.6071,6.6011,6.5682,6.5024,6.4395,6.3737,6.3138,6.3108,6.3108,6.3108,6.3108,6.3108,6.3108,6.3108,6.3108,6.3108,6.3108,6.3108,6.3108,6.3108,6.3108,6.3108,6.3108,6.3108,6.3108,6.3108,6.3108,6.3108,6.3108,6.3108,6.3108,6.3108,6.3108,6.3108,6.3108,6.3498,6.4006,6.4006,6.4485,6.5024,6.5024,6.5024,6.5024,6.5024,6.5024,6.4994,6.4994,6.4515,6.4006,6.4006,6.4516,6.4815,6.4156,6.4516,6.4994,6.4994,6.4994,6.4575,6.3347,6.3617,6.3558,6.2301,6.2718,6.3347,6.3947,6.4006,6.4276,6.4934,6.6334,6.8072,7.0241,7.1784,7.3517,7.5604,7.5709,7.5709,7.5709,7.5709,7.6082,7.6893,7.8382,7.9464,8.0175,8.0209,8.0209,8.0209,8.0209,8.0209,8.0209,8.0209,8.0209,8.0242,8.1012,8.0851,8.0412,8.2611,8.2577,8.1587,8.3768,8.414,8.3625,6.3707,6.4276,6.4635,6.4456,6.4725,6.4934,6.4725,6.5114,6.5473,6.5682,6.6131,6.6311,6.6041,6.6191,6.6041,6.5353,6.5293,6.5203,6.5024,6.4815,6.4605,6.4455,6.3558,6.3108,6.3108,6.3108,6.3108,6.3108,6.3108,6.3108,6.3108,6.3108,6.3108,6.3108,6.3108,6.3108,6.3108,6.3108,6.3108,6.3108,6.3108,6.3108,6.3108,6.3108,6.3108,6.3108,6.3108,6.3108,6.3168,6.3588,6.3857,6.4156,6.5114,6.5862,6.64,6.64,6.6071,6.5922,6.6849,6.6071,6.4994,6.4994,6.4845,6.4695,6.4695,6.4845,6.4934,6.4725,6.5203,6.5562,6.5084,6.5383,6.5413,6.4575,6.4575,6.4545,6.4187,6.4336,6.4515,6.4665,6.4695,6.4785,6.4964,6.6334,6.8318,7.0972,7.4423,7.6427,7.6531,7.7029,7.7063,7.6555,7.6555,7.6893,7.7638,7.8111,7.8686,7.9431,7.9938,8.0209,8.0209,8.0209,8.0209,8.0209,8.0209,8.0209,8.0209,8.0445,8.0412,8.0378,8.2069,8.2475,8.2272,8.3971,8.4444,8.4275,6.4006,6.4516,6.4994,6.4994,6.5203,6.5473,6.5772,6.5922,6.6191,6.6729,6.667,6.655,6.64,6.64,6.6251,6.5832,6.5802,6.5682,6.5413,6.5383,6.5263,6.5024,6.4276,6.3707,6.3438,6.3227,6.3108,6.3108,6.3108,6.3227,6.3467,6.3227,6.3227,6.3467,6.3227,6.3108,6.3108,6.3108,6.3108,6.3108,6.3108,6.3108,6.3108,6.3108,6.3108,6.3138,6.3377,6.3438,6.3528,6.4186,6.4575,6.4994,6.6071,6.667,6.7029,6.7329,6.7089,6.7029,6.8076,6.7508,6.6579,6.6579,6.5981,6.5383,6.5383,6.5832,6.6131,6.5862,6.655,6.6999,6.6311,6.6729,6.6789,6.5592,6.5622,6.5622,6.5084,6.5233,6.5473,6.5742,6.5802,6.6011,6.6519,6.8203,7.0618,7.3823,7.6525,7.7831,7.7367,7.7739,7.7773,7.7333,7.7333,7.7536,7.8,7.828,7.8653,7.9126,7.9566,7.9938,8.0209,8.0209,8.0209,8.0209,8.0209,8.0209,8.0209,8.0209,8.0209,8.031,8.1494,8.2137,8.2543,8.3727,8.4343,8.4614,6.3977,6.4516,6.5024,6.5084,6.5622,6.6311,6.6909,6.649,6.652,6.7748,6.6849,6.634,6.6999,6.7089,6.7089,6.7178,6.7178,6.6909,6.6311,6.6281,6.5981,6.5293,6.5203,6.4845,6.4186,6.3558,6.3287,6.3287,6.3287,6.3528,6.4066,6.3528,6.3558,6.4066,6.3467,6.3197,6.3197,6.3138,6.3108,6.3108,6.3108,6.3108,6.3108,6.3108,6.3108,6.3197,6.3767,6.4006,6.4126,6.4845,6.5562,6.6281,6.6879,6.7119,6.7298,6.7987,6.8137,6.8257,6.8974,6.9093,6.9004,6.9064,6.7687,6.6281,6.6281,6.7208,6.7928,6.7298,6.8196,6.8884,6.8227,6.8615,6.8465,6.658,6.6789,6.6759,6.5532,6.5861,6.649,6.7089,6.7178,6.7657,6.8884,7.1249,7.4122,7.763,7.8096,7.817,7.8102,7.8102,7.8102,7.8102,7.8034,7.8034,7.8102,7.8686,7.9034,7.9101,7.9169,7.9566,8.0209,8.0209,8.0209,8.0209,8.0209,8.0209,8.0209,8.0209,8.0209,8.0276,8.1012,8.1697,8.2408,8.3186,8.3896,8.4411,6.3917,6.4516,6.5174,6.5712,6.634,6.6819,6.6969,6.6879,6.6879,6.7178,6.6939,6.7029,6.7718,6.7778,6.7986,6.8525,6.8555,6.8495,6.8375,6.8345,6.8046,6.7358,6.6849,6.6251,6.5592,6.4904,6.4575,6.4575,6.4575,6.4635,6.4785,6.4635,6.4635,6.4755,6.4096,6.3797,6.3767,6.3317,6.3108,6.3108,6.3108,6.3108,6.3108,6.3108,6.3108,6.3197,6.3767,6.4006,6.4186,6.5383,6.658,6.7598,6.7748,6.8136,6.8704,6.9395,6.9183,6.9034,7.0171,6.9752,6.9123,6.9632,6.9064,6.8345,6.8345,6.8585,6.8734,6.8585,6.9213,6.9572,6.8914,6.9333,6.9453,6.8525,6.8465,6.8465,6.8166,6.8256,6.8405,6.8555,6.8555,6.8675,6.8974,7.2122,7.4984,7.6915,7.8723,7.9464,7.8889,7.8855,7.8855,7.8855,7.828,7.828,7.8855,7.845,7.8517,7.9126,7.9701,8.004,8.0209,8.0209,8.0209,8.0209,8.0209,8.0209,8.0209,8.0209,8.0209,8.0276,8.1012,8.1418,8.1697,8.3016,8.3253,8.2956,6.3947,6.4814,6.5562,6.5951,6.655,6.7208,6.7867,6.7657,6.7718,6.8377,6.8136,6.8076,6.8435,6.8197,6.8137,6.8465,6.8824,6.9004,6.9004,6.9004,6.8824,6.8465,6.8136,6.7777,6.7448,6.6789,6.5981,6.4994,6.4994,6.5144,6.5473,6.5144,6.5174,6.5413,6.4455,6.4186,6.4455,6.3797,6.3707,6.4006,6.4006,6.4006,6.4006,6.4006,6.4006,6.4096,6.4725,6.5173,6.5622,6.6969,6.7657,6.8047,6.8407,6.8704,6.9123,6.9782,6.9722,6.9692,7.0649,7.041,6.9991,7.032,7.0171,6.9752,6.9153,6.9243,6.9482,6.9482,6.9961,7.0231,6.9572,6.9991,7.0111,6.9153,6.9273,6.9363,6.9064,6.9273,6.9482,6.9482,6.9482,7.0055,7.1532,7.3757,7.6029,7.8236,7.9532,8.004,7.9667,7.9634,7.9634,7.9634,7.9261,7.9228,7.9634,7.9228,7.9228,7.9634,7.9667,7.987,8.0209,8.0209,8.0209,8.0209,8.0209,8.0209,8.0209,8.0209,8.0209,8.0242,8.0615,8.1012,8.1418,8.2197,8.2441,8.2509,6.4006,6.5084,6.6011,6.6011,6.664,6.7537,6.8645,6.8435,6.8586,6.9662,6.9333,6.9034,6.9153,6.8796,6.8496,6.8496,6.9004,6.9333,6.9333,6.9333,6.9273,6.9183,6.9183,6.9123,6.9004,6.8466,6.7358,6.5682,6.5443,6.5682,6.634,6.5682,6.5622,6.6131,6.4904,6.4665,6.5114,6.4485,6.4515,6.4994,6.4994,6.4994,6.4994,6.4994,6.4994,6.5084,6.5742,6.649,6.7358,6.8585,6.8704,6.8437,6.9004,6.9243,6.9423,6.9991,7.0141,7.026,7.0769,7.0979,7.1068,7.1068,7.1158,7.0949,6.9752,6.9842,7.0141,7.0141,7.056,7.0769,7.038,7.062,7.062,6.9812,6.9931,6.9991,6.9542,6.9871,7.0141,7.0141,7.0141,7.113,7.3703,7.4939,7.6664,7.9202,7.9921,8.0209,8.0209,8.0073,8.0073,8.0209,8.0073,8.0073,8.0209,8.0209,8.0209,8.0175,7.96,7.9634,8.0209,8.0209,8.0209,8.0209,8.0209,8.0209,8.0209,8.0209,8.0209,8.0209,8.0209,8.0547,8.1088,8.1088,8.1663,8.2475,6.4006,6.5084,6.6011,6.6011,6.7029,6.7928,6.8107,6.8525,6.8914,6.9123,6.9064,6.9213,6.9782,7.0231,7.05,7.05,7.059,7.0649,7.0649,7.0649,7.041,6.9903,6.9842,6.9572,6.9004,6.8914,6.8734,6.8465,6.7298,6.7059,6.7718,6.7029,6.6759,6.6819,6.6071,6.5802,6.5832,6.5144,6.4904,6.4994,6.4994,6.4994,6.4994,6.4994,6.4994,6.5084,6.5742,6.6789,6.7987,6.8734,6.9303,6.9754,6.9844,7.0201,7.0649,7.0739,7.0769,7.0799,7.0889,7.1308,7.1757,7.1757,7.2206,7.2445,7.1667,7.1128,7.0769,7.0769,7.0829,7.1038,7.1547,7.1218,7.1218,7.2235,7.1487,7.0949,7.1427,7.1098,7.0769,7.0769,7.0769,7.0963,7.1352,7.3957,7.5781,7.6181,7.8697,8.0209,8.0209,7.96,7.9532,8.0175,7.96,7.9566,8.0175,8.0209,8.0209,8.0209,8.0107,8.0107,8.0209,8.0209,8.0209,8.0209,8.0209,8.0209,8.0209,8.0209,8.0209,8.0209,8.0209,8.0242,8.0344,8.0344,8.1224,8.234,6.3917,6.4784,6.5682,6.643,6.7389,6.8257,6.9005,6.9363,6.9662,7.0021,7.0051,7.0171,7.047,7.0739,7.0769,7.041,7.0709,7.0889,7.0889,7.0889,7.0769,7.05,7.05,7.035,7.0081,6.9722,6.9722,7.0051,6.8764,6.8076,6.7987,6.7718,6.7389,6.6969,6.6311,6.6221,6.652,6.5862,6.5742,6.6131,6.6131,6.6131,6.6161,6.652,6.667,6.6819,6.7867,6.8375,6.8704,6.9722,7.0021,7.0143,7.0861,7.1218,7.1517,7.1906,7.2026,7.2026,7.2026,7.2235,7.2445,7.2445,7.2684,7.2834,7.2535,7.2235,7.1906,7.1547,7.1757,7.2116,7.2415,7.2235,7.2206,7.2804,7.2086,7.1547,7.1846,7.1308,7.0889,7.0889,7.0889,7.1247,7.2141,7.3506,7.5027,7.6776,7.8157,7.9314,8.0124,7.9904,7.987,8.0175,7.987,7.987,8.0209,7.9803,7.96,7.96,7.916,7.9397,8.0209,8.0209,8.0209,8.0209,8.0209,8.0209,8.0209,8.0209,8.0209,8.0209,8.0209,8.0209,8.0209,8.0209,8.0615,8.119]}]]